[[{"header":{"parameterUnit":"m.s-1","parameterCategory":1,"la1":30.6,"la2":28.766,"lo1":-90.7593,"lo2":-88.6598,"dy":0.0162,"dx":0.0183,"nx":116,"ny":114,"refTime":"2023-04-15T12:00:00:Z","depth":0,"parameterNumber":2,"parameterNumberName":"U-component_of_WINDS"},"data":[0.0,0.0,0.0,0.0,0.0,0.0,0.0,0.0,0.0,0.0,0.0,0.0,0.0,0.0,0.0,0.0,0.0,0.0,0.0,0.0,0.0,0.0,0.0,0.0,0.0,0.0,0.0,0.0,0.0,0.0,0.0,0.0,0.0,0.0,0.0,0.0,0.0,0.0,0.0,0.0,0.0,0.0,0.0,0.0,0.0,0.0,0.0,0.0,0.0,0.0,0.0,0.0,0.0,0.0,0.0,0.0,0.0,0.0,0.0,0.0,0.0,0.0,0.0,0.0,0.0,0.0,0.0,0.0,0.0,0.0,0.0,0.0,0.0,0.0,0.0,0.0,0.0,0.0,0.0,0.0,0.0,0.0,0.0,0.0,0.0,0.0,0.0,0.0,0.0,0.0,0.0,0.0,0.0,0.0,0.0,0.0,0.0,0.0,0.0,0.0,0.0,0.0,0.0,0.0,0.0,0.0,0.0,0.0,0.0,0.0,0.0,0.0,0.0,0.0,0.0,0.0,0.0,0.0,0.0,0.0,0.0,0.0,0.0,0.0,0.0,0.0,0.0,0.0,0.0,0.0,0.0,0.0,0.0,0.0,0.0,0.0,0.0,0.0,0.0,0.0,0.0,0.0,0.0,0.0,0.0,0.0,0.0,0.0,0.0,0.0,0.0,0.0,0.0,0.0,0.0,0.0,0.0,0.0,0.0,0.0,0.0,0.0,0.0,0.0,0.0,0.0,0.0,0.0,0.0,0.0,0.0,0.0,0.0,0.0,0.0,0.0,0.0,0.0,0.0,0.0,0.0,0.0,0.0,0.0,0.0,0.0,0.0,0.0,0.0,0.0,0.0,0.0,0.0,0.0,0.0,0.0,0.0,0.0,0.0,0.0,0.0,0.0,0.0,0.0,0.0,0.0,0.0,0.0,0.0,0.0,0.0,0.0,0.0,0.0,0.0,0.0,0.0,0.0,0.0,0.0,0.0,0.0,0.0,0.0,0.0,0.0,0.0,0.0,0.0,0.0,0.0,0.0,0.0,0.0,0.0,0.0,0.0,0.0,0.0,0.0,0.0,0.0,0.0,0.0,0.0,0.0,0.0,0.0,0.0,0.0,0.0,0.0,0.0,0.0,0.0,0.0,0.0,0.0,0.0,0.0,0.0,0.0,0.0,0.0,0.0,0.0,0.0,0.0,0.0,0.0,0.0,0.0,0.0,0.0,0.0,0.0,0.0,0.0,0.0,0.0,0.0,0.0,0.0,0.0,0.0,0.0,0.0,0.0,0.0,0.0,0.0,0.0,0.0,0.0,0.0,0.0,0.0,0.0,0.0,0.0,0.0,0.0,0.0,0.0,0.0,0.0,0.0,0.0,0.0,0.0,0.0,0.0,0.0,0.0,0.0,0.0,0.0,0.0,0.0,0.0,0.0,0.0,0.0,0.0,0.0,0.0,0.0,0.0,0.0,0.0,0.0,0.0,0.0,0.0,0.0,0.0,0.0,0.0,0.0,0.0,0.0,0.0,0.0,0.0,0.0,0.0,0.0,0.0,0.0,0.0,0.0,0.0,0.0,0.0,0.0,0.0,0.0,0.0,0.0,0.0,0.0,0.0,0.0,0.0,0.0,0.0,0.0,0.0,0.0,0.0,0.0,0.0,0.0,0.0,0.0,0.0,0.0,0.0,0.0,0.0,0.0,0.0,0.0,0.0,0.0,0.0,0.0,0.0,0.0,0.0,0.0,0.0,0.0,0.0,0.0,0.0,0.0,0.0,0.0,0.0,0.0,0.0,0.0,0.0,0.0,0.0,0.0,0.0,0.0,0.0,0.0,0.0,0.0,0.0,0.0,0.0,0.0,0.0,0.0,0.0,0.0,0.0,0.0,0.0,0.0,0.0,0.0,0.0,0.0,0.0,0.0,0.0,0.0,0.0,0.0,0.0,0.0,0.0,0.0,0.0,0.0,0.0,0.0,0.0,0.0,0.0,0.0,0.0,0.0,0.0,0.0,0.0,0.0,0.0,0.0,0.0,0.0,0.0,0.0,0.0,0.0,0.0,0.0,0.0,0.0,0.0,0.0,0.0,0.0,0.0,0.0,0.0,0.0,0.0,0.0,0.0,0.0,0.0,0.0,0.0,0.0,0.0,0.0,0.0,0.0,0.0,0.0,0.0,0.0,0.0,0.0,0.0,0.0,0.0,0.0,0.0,0.0,0.0,0.0,0.0,0.0,0.0,0.0,0.0,0.0,0.0,0.0,0.0,0.0,0.0,0.0,0.0,0.0,0.0,0.0,0.0,0.0,0.0,0.0,0.0,0.0,0.0,0.0,0.0,0.0,0.0,0.0,0.0,0.0,0.0,0.0,0.0,0.0,0.0,0.0,0.0,0.0,0.0,0.0,0.0,0.0,0.0,0.0,0.0,0.0,0.0,0.0,0.0,0.0,0.0,0.0,0.0,0.0,0.0,0.0,0.0,0.0,0.0,0.0,0.0,0.0,0.0,0.0,0.0,0.0,0.0,0.0,0.0,0.0,0.0,0.0,0.0,0.0,0.0,0.0,0.0,0.0,0.0,0.0,0.0,0.0,0.0,0.0,0.0,0.0,0.0,0.0,0.0,0.0,0.0,0.0,0.0,0.0,0.0,0.0,0.0,0.0,0.0,0.0,0.0,0.0,0.0,0.0,0.0,0.0,0.0,0.0,0.0,0.0,0.0,0.0,0.0,0.0,0.0,0.0,0.0,0.0,0.0,0.0,0.0,0.0,0.0,0.0,0.0,0.0,0.0,0.0,0.0,0.0,0.0,0.0,0.0,0.0,0.0,0.0,0.0,0.0,0.0,0.0,0.0,0.0,0.0,0.0,0.0,0.0,0.0,0.0,0.0,0.0,0.0,0.0,0.0,0.0,0.0,0.0,0.0,0.0,0.0,0.0,0.0,0.0,0.0,0.0,0.0,0.0,0.0,0.0,0.0,0.0,0.0,0.0,0.0,0.0,0.0,0.0,0.0,0.0,0.0,0.0,0.0,0.0,0.0,0.0,0.0,0.0,0.0,0.0,0.0,0.0,0.0,0.0,0.0,0.0,0.0,0.0,0.0,0.0,0.0,0.0,0.0,0.0,0.0,0.0,0.0,0.0,0.0,0.0,0.0,0.0,0.0,0.0,0.0,0.0,0.0,0.0,0.0,0.0,0.0,0.0,0.0,0.0,0.0,0.0,0.0,0.0,0.0,0.0,0.0,0.0,0.0,0.0,0.0,0.0,0.0,0.0,0.0,0.0,0.0,0.0,0.0,0.0,0.0,0.0,0.0,0.0,0.0,0.0,0.0,0.0,0.0,0.0,0.0,0.0,0.0,0.0,0.0,0.0,0.0,0.0,0.0,0.0,0.0,0.0,0.0,0.0,0.0,0.0,0.0,0.0,0.0,0.0,0.0,0.0,0.0,0.0,0.0,0.0,0.0,0.0,0.0,0.0,0.0,0.0,0.0,0.0,0.0,0.0,0.0,0.0,0.0,0.0,0.0,0.0,0.0,0.0,0.0,0.0,0.0,0.0,0.0,0.0,0.0,0.0,0.0,0.0,0.0,0.0,0.0,0.0,0.0,0.0,0.0,0.0,0.0,0.0,0.0,0.0,0.0,0.0,0.0,0.0,0.0,0.0,0.0,0.0,0.0,0.0,0.0,0.0,0.0,0.0,0.0,0.0,0.0,0.0,0.0,0.0,0.0,0.0,0.0,0.0,0.0,0.0,0.0,0.0,0.0,0.0,0.0,0.0,0.0,0.0,0.0,0.0,0.0,0.0,0.0,0.0,0.0,0.0,0.0,0.0,0.0,0.0,0.0,0.0,0.0,0.0,0.0,0.0,0.0,0.0,0.0,0.0,0.0,0.0,0.0,0.0,0.0,0.0,0.0,0.0,0.0,0.0,0.0,0.0,0.0,0.0,0.0,0.0,0.0,0.0,0.0,0.0,0.0,0.0,0.0,0.0,0.0,0.0,0.0,0.0,0.0,0.0,0.0,0.0,0.0,0.0,0.0,0.0,0.0,0.0,0.0,0.0,0.0,0.0,0.0,0.0,0.0,0.0,0.0,0.0,0.0,0.0,0.0,0.0,0.0,0.0,0.0,0.0,0.0,0.0,0.0,0.0,0.0,0.0,0.0,0.0,0.0,0.0,0.0,0.0,0.0,0.0,0.0,0.0,0.0,0.0,0.0,0.0,0.0,0.0,0.0,0.0,0.0,0.0,0.0,0.0,0.0,0.0,0.0,0.0,0.0,0.0,0.0,0.0,0.0,0.0,0.0,0.0,0.0,0.0,0.0,0.0,0.0,0.0,0.0,0.0,0.0,0.0,0.0,0.0,0.0,0.0,0.0,0.0,0.0,0.0,0.0,0.0,0.0,0.0,0.0,0.0,0.0,0.0,0.0,0.0,0.0,0.0,0.0,0.0,0.0,0.0,0.0,0.0,0.0,0.0,0.0,0.0,0.0,0.0,0.0,0.0,0.0,0.0,0.0,0.0,0.0,0.0,0.0,0.0,0.0,0.0,0.0,0.0,0.0,0.0,0.0,0.0,0.0,0.0,0.0,0.0,0.0,0.0,0.0,0.0,0.0,0.0,0.0,0.0,0.0,0.0,0.0,0.0,0.0,0.0,0.0,0.0,0.0,0.0,0.0,0.0,0.0,0.0,0.0,0.0,0.0,0.0,0.0,0.0,0.0,0.0,0.0,0.0,0.0,0.0,0.0,0.0,0.0,0.0,0.0,0.0,0.0,0.0,0.0,0.0,0.0,0.0,0.0,0.0,0.0,0.0,0.0,0.0,0.0,0.0,0.0,0.0,0.0,0.0,0.0,0.0,0.0,0.0,0.0,0.0,0.0,0.0,0.0,0.0,0.0,0.0,0.0,0.0,0.0,0.0,0.0,0.0,0.0,0.0,0.0,0.0,0.0,0.0,0.0,0.0,0.0,0.0,0.0,0.0,0.0,0.0,0.0,0.0,0.0,0.0,0.0,0.0,0.0,0.0,0.0,0.0,0.0,0.0,0.0,0.0,0.0,0.0,0.0,0.0,0.0,0.0,0.0,0.0,0.0,0.0,0.0,0.0,0.0,0.0,0.0,0.0,0.0,0.0,0.0,0.0,0.0,0.0,0.0,0.0,0.0,0.0,0.0,0.0,0.0,0.0,0.0,0.0,0.0,0.0,0.0,0.0,0.0,0.0,0.0,0.0,0.0,0.0,0.0,0.0,0.0,0.0,0.0,0.0,0.0,0.0,0.0,0.0,0.0,0.0,0.0,0.0,0.0,0.0,0.0,0.0,0.0,0.0,0.0,0.0,0.0,0.0,0.0,0.0,0.0,0.0,0.0,0.0,0.0,0.0,0.0,0.0,0.0,0.0,0.0,0.0,0.0,0.0,0.0,0.0,0.0,0.0,0.0,0.0,0.0,0.0,0.0,0.0,0.0,0.0,0.0,0.0,0.0,0.0,0.0,0.0,0.0,0.0,0.0,0.0,0.0,0.0,0.0,0.0,0.0,0.0,0.0,0.0,0.0,0.0,0.0,0.0,0.0,0.0,0.0,0.0,0.0,0.0,0.0,0.0,0.0,0.0,0.0,0.0,0.0,0.0,0.0,0.0,0.0,0.0,0.0,0.0,0.0,0.0,0.0,0.0,0.0,0.0,0.0,0.0,0.0,0.0,0.0,0.0,0.0,0.0,0.0,0.0,0.0,0.0,0.0,0.0,0.0,0.0,0.0,0.0,0.0,0.0,0.0,0.0,0.0,0.0,0.0,0.0,0.0,0.0,0.0,0.0,0.0,0.0,0.0,0.0,0.0,0.0,0.0,0.0,0.0,0.0,0.0,0.0,0.0,0.0,0.0,0.0,0.0,0.0,0.0,0.0,0.0,0.0,0.0,0.0,0.0,0.0,0.0,0.0,0.0,0.0,0.0,0.0,0.0,0.0,0.0,0.0,0.0,0.0,0.0,0.0,0.0,0.0,0.0,0.0,0.0,0.0,0.0,0.0,0.0,0.0,0.0,0.0,0.0,0.0,0.0,0.0,0.0,0.0,0.0,0.0,0.0,0.0,0.0,0.0,0.0,0.0,0.0,0.0,0.0,0.0,0.0,3.0212,0.0,0.0,0.0,0.0,0.0,0.0,0.0,0.0,0.0,0.0,0.0,0.0,0.0,0.0,0.0,0.0,0.0,0.0,0.0,0.0,0.0,0.0,0.0,0.0,0.0,0.0,0.0,0.0,0.0,0.0,0.0,0.0,0.0,0.0,0.0,0.0,0.0,0.0,0.0,0.0,0.0,0.0,0.0,0.0,0.0,0.0,0.0,0.0,0.0,0.0,0.0,0.0,0.0,0.0,0.0,0.0,0.0,0.0,0.0,0.0,0.0,0.0,0.0,0.0,0.0,0.0,0.0,0.0,0.0,0.0,0.0,0.0,0.0,0.0,0.0,0.0,0.0,0.0,0.0,0.0,0.0,0.0,0.0,0.0,0.0,0.0,0.0,0.0,0.0,0.0,0.0,0.0,0.0,0.0,0.0,0.0,0.0,0.0,0.0,0.0,0.0,0.0,0.0,0.0,0.0,0.0,0.0,0.0,0.0,0.0,0.0,0.0,0.0,0.0,0.0,0.0,2.9924,0.0,0.0,0.0,0.0,0.0,0.0,0.0,0.0,0.0,0.0,0.0,0.0,0.0,0.0,0.0,0.0,0.0,0.0,0.0,0.0,0.0,0.0,0.0,0.0,0.0,0.0,0.0,0.0,0.0,0.0,0.0,0.0,0.0,0.0,0.0,0.0,0.0,0.0,0.0,0.0,0.0,0.0,0.0,0.0,0.0,0.0,0.0,0.0,0.0,0.0,0.0,0.0,0.0,0.0,0.0,0.0,0.0,0.0,0.0,0.0,0.0,0.0,0.0,0.0,0.0,0.0,0.0,0.0,0.0,0.0,0.0,0.0,0.0,0.0,0.0,0.0,0.0,0.0,0.0,0.0,0.0,0.0,0.0,0.0,0.0,0.0,0.0,0.0,0.0,0.0,0.0,0.0,0.0,0.0,0.0,0.0,0.0,0.0,0.0,0.0,0.0,0.0,0.0,0.0,0.0,0.0,0.0,0.0,3.0798,3.0799,3.0799,3.0799,3.0799,3.076,3.0039,2.9727,2.9649,2.8764,0.0,0.0,0.0,0.0,0.0,0.0,0.0,0.0,0.0,0.0,0.0,0.0,0.0,0.0,0.0,0.0,0.0,0.0,0.0,0.0,0.0,0.0,0.0,0.0,0.0,0.0,0.0,0.0,0.0,0.0,0.0,0.0,0.0,0.0,0.0,0.0,0.0,0.0,2.6639,2.8463,2.9249,2.9117,0.0,0.0,0.0,0.0,0.0,0.0,0.0,0.0,0.0,0.0,0.0,0.0,0.0,0.0,0.0,0.0,0.0,0.0,0.0,0.0,0.0,0.0,0.0,0.0,0.0,0.0,0.0,0.0,0.0,0.0,0.0,0.0,0.0,0.0,0.0,0.0,0.0,0.0,0.0,0.0,0.0,0.0,0.0,0.0,3.0796,3.0799,0.0,0.0,0.0,0.0,0.0,0.0,0.0,0.0,0.0,0.0,0.0,0.0,0.0,2.9494,2.9511,3.0364,3.0808,3.0808,3.0804,3.0799,3.0799,3.0799,3.0799,3.0779,3.0682,0.0,3.0565,2.9641,0.0,0.0,0.0,0.0,0.0,0.0,0.0,0.0,0.0,0.0,0.0,0.0,0.0,0.0,0.0,0.0,0.0,0.0,0.0,0.0,0.0,0.0,0.0,0.0,0.0,0.0,0.0,0.0,0.0,0.0,0.0,0.0,0.0,0.0,0.0,0.0,2.589,2.6706,2.7239,2.8743,2.973,3.021,2.9793,2.9593,2.9593,2.9993,0.0,0.0,0.0,0.0,0.0,0.0,0.0,0.0,0.0,0.0,0.0,0.0,0.0,0.0,0.0,0.0,0.0,0.0,0.0,0.0,0.0,0.0,0.0,0.0,0.0,0.0,0.0,0.0,0.0,0.0,0.0,0.0,0.0,0.0,0.0,0.0,0.0,0.0,0.0,3.0711,3.0762,3.0799,3.0099,2.9259,0.0,0.0,0.0,0.0,0.0,0.0,0.0,0.0,0.0,2.8895,2.9308,2.9745,3.0234,3.0604,3.0799,3.0799,3.0799,3.0799,3.0799,3.0799,3.0799,3.0799,3.0799,3.0799,3.0779,3.0369,2.9886,2.9452,0.0,0.0,0.0,0.0,2.9756,2.9379,0.0,0.0,0.0,0.0,0.0,0.0,0.0,0.0,0.0,0.0,0.0,0.0,0.0,0.0,0.0,2.4191,0.0,0.0,0.0,0.0,0.0,0.0,0.0,0.0,0.0,0.0,0.0,0.0,2.5773,2.6718,2.7468,2.855,2.9454,3.0133,3.0056,3.0268,3.0703,3.0684,3.0659,0.0,0.0,0.0,0.0,0.0,0.0,0.0,0.0,0.0,0.0,0.0,0.0,0.0,0.0,0.0,0.0,0.0,0.0,0.0,0.0,0.0,0.0,0.0,0.0,0.0,0.0,0.0,0.0,0.0,0.0,0.0,0.0,0.0,0.0,0.0,0.0,0.0,0.0,3.0613,3.0715,3.0735,3.0072,2.9335,0.0,0.0,0.0,0.0,0.0,0.0,2.8524,2.8527,2.8925,2.9799,2.981,3.0097,3.0739,3.0739,3.0739,3.0739,3.0774,3.0799,3.0799,3.1037,3.1018,3.0799,3.1037,3.1018,3.0799,3.0728,3.0309,2.9777,3.0413,2.9807,2.8747,3.0083,3.0131,2.9631,0.0,0.0,0.0,0.0,0.0,0.0,0.0,0.0,0.0,0.0,0.0,0.0,0.0,0.0,2.3843,2.3815,2.4069,2.3909,0.0,0.0,0.0,0.0,0.0,0.0,0.0,0.0,0.0,2.4689,2.5714,2.6397,2.6765,2.7728,2.8212,2.8326,2.826,2.9149,3.0704,3.0625,3.0571,3.0482,0.0,0.0,0.0,0.0,0.0,0.0,0.0,0.0,0.0,0.0,0.0,0.0,0.0,0.0,0.0,0.0,0.0,0.0,0.0,0.0,0.0,0.0,0.0,0.0,0.0,0.0,0.0,0.0,0.0,0.0,0.0,0.0,0.0,0.0,0.0,0.0,0.0,0.0,0.0,3.0614,3.0002,0.0,0.0,0.0,0.0,2.8242,2.8214,2.8566,2.9383,2.9437,2.9829,3.0706,3.0613,3.0561,3.062,3.062,3.062,3.06,3.0739,3.0799,3.0838,3.1661,3.1583,3.0857,3.168,3.1563,3.0794,3.0587,3.0524,3.0521,3.0384,3.0385,3.0462,3.0479,3.0482,3.0434,0.0,0.0,0.0,0.0,0.0,0.0,0.0,0.0,0.0,0.0,0.0,0.0,0.0,2.3214,2.3298,2.3519,2.3425,2.3022,2.2248,0.0,0.0,0.0,0.0,0.0,0.0,0.0,2.4078,2.4445,2.5054,2.5786,2.6582,2.7043,2.7595,2.8197,2.8081,2.8375,2.8993,2.944,2.9898,3.0297,3.0194,3.0021,0.0,0.0,0.0,0.0,0.0,0.0,0.0,0.0,0.0,0.0,0.0,0.0,0.0,0.0,0.0,0.0,0.0,0.0,0.0,0.0,0.0,0.0,0.0,0.0,0.0,0.0,0.0,0.0,0.0,0.0,0.0,0.0,0.0,0.0,0.0,0.0,0.0,3.0593,3.0386,0.0,2.9494,2.9679,2.9632,2.91,2.9565,3.0018,3.0314,3.0341,3.0487,3.0779,3.0745,3.0734,3.0734,3.0639,3.0639,3.0734,3.0697,3.0728,3.0799,3.1115,3.1096,3.0818,3.1135,3.1096,3.0794,3.0632,3.056,3.0535,3.0507,3.0472,3.0404,3.0392,3.037,3.0359,0.0,0.0,0.0,0.0,0.0,0.0,0.0,0.0,0.0,0.0,0.0,2.1569,2.2792,2.2818,2.2816,2.3043,2.2866,2.2337,2.1413,0.0,0.0,0.0,0.0,0.0,0.0,2.3392,2.3847,2.4578,2.4882,2.5525,2.6473,2.664,2.6928,2.7276,2.7171,2.7283,2.7552,2.7992,2.8778,2.9778,2.999,2.9937,2.9699,0.0,0.0,0.0,0.0,0.0,0.0,0.0,0.0,0.0,0.0,0.0,0.0,0.0,0.0,0.0,0.0,0.0,0.0,0.0,0.0,0.0,0.0,0.0,0.0,0.0,0.0,0.0,0.0,0.0,0.0,0.0,0.0,0.0,0.0,0.0,3.0404,3.0443,3.0529,3.0386,2.9823,3.0599,3.0791,2.9961,3.0739,3.1114,3.0821,3.0808,3.0799,3.0799,3.0764,3.0734,3.0734,3.0639,3.0639,3.0734,3.0697,3.0709,3.0799,3.1096,3.1076,3.0818,3.1115,3.1076,3.0799,3.0703,3.061,3.0501,3.0498,3.0443,3.0359,3.0325,3.034,3.0393,0.0,0.0,0.0,0.0,0.0,0.0,0.0,0.0,0.0,0.0,2.0561,2.1047,2.1795,2.2114,2.2329,2.2345,2.2329,2.1826,2.0731,2.1007,0.0,0.0,0.0,0.0,2.2599,2.2943,2.3797,2.5132,2.5262,2.5684,2.6385,2.6545,2.6222,2.5542,2.5505,2.5915,2.6636,2.6421,2.7325,2.8912,2.9515,2.9399,2.8927,0.0,0.0,0.0,0.0,0.0,0.0,0.0,0.0,0.0,0.0,0.0,0.0,0.0,0.0,0.0,0.0,0.0,0.0,0.0,0.0,0.0,0.0,0.0,0.0,0.0,0.0,0.0,0.0,0.0,0.0,0.0,0.0,0.0,2.9495,2.998,3.0215,3.018,3.0462,3.0634,3.0588,3.1435,3.1646,3.0791,3.1561,3.1691,3.0852,3.0802,3.0799,3.0799,3.0671,3.062,3.062,3.0593,3.0593,3.062,3.0734,3.0799,3.0838,3.1661,3.1602,3.0857,3.168,3.1583,3.0799,3.0799,3.0672,3.0492,3.0359,3.0381,3.0482,3.0348,3.0414,3.0593,0.0,0.0,0.0,0.0,0.0,0.0,0.0,0.0,0.0,0.0,1.994,2.036,2.1372,2.0579,2.0436,2.1494,2.0635,2.002,1.998,0.0,0.0,0.0,0.0,0.0,2.2647,2.3275,2.431,2.5742,2.565,2.5791,2.6204,2.6513,2.6581,2.6476,2.7025,2.7374,2.7522,2.7332,2.7555,2.8084,2.8738,2.9308,2.977,0.0,0.0,0.0,0.0,0.0,0.0,0.0,0.0,0.0,0.0,0.0,0.0,0.0,0.0,0.0,0.0,0.0,0.0,0.0,0.0,0.0,0.0,0.0,0.0,0.0,0.0,0.0,0.0,0.0,0.0,0.0,0.0,2.9903,3.0528,3.0705,3.1061,3.1817,3.1985,3.2115,3.2299,3.2074,3.1855,3.1659,3.1347,3.1042,3.0813,3.0802,3.0799,3.0799,3.0769,3.0739,3.0739,3.0659,3.0659,3.0739,3.0678,3.0703,3.0799,3.1057,3.1037,3.0799,3.1057,3.1018,3.0799,3.0799,3.0703,3.0556,3.0482,3.0472,3.0482,3.0348,3.0372,3.0461,0.0,0.0,0.0,0.0,0.0,0.0,0.0,0.0,0.0,0.0,1.994,2.0198,2.0808,1.9951,1.9693,2.0558,1.9679,1.9139,1.9184,0.0,0.0,0.0,0.0,2.1793,2.2965,2.3533,2.4653,2.6337,2.6315,2.6561,2.7073,2.7445,2.7483,2.7282,2.7776,2.8,2.801,2.7781,2.7941,2.8357,2.8681,2.9136,2.9683,3.012,3.0352,3.0471,3.0649,3.0734,3.0757,3.0781,0.0,0.0,0.0,0.0,0.0,0.0,0.0,0.0,0.0,0.0,0.0,0.0,0.0,0.0,0.0,0.0,0.0,0.0,0.0,0.0,0.0,0.0,0.0,0.0,2.8637,3.0277,3.1233,3.14,3.1657,3.2312,3.2216,3.2173,3.2314,3.2029,3.1724,3.1397,3.1323,3.1133,3.0776,3.0771,3.0798,3.0799,3.0799,3.0799,3.0799,3.0714,3.0714,3.0799,3.0709,3.0714,3.0799,3.0799,3.0799,0.0,3.0799,3.0799,3.0799,3.0799,3.0709,0.0,0.0,0.0,0.0,0.0,3.0443,3.0488,0.0,0.0,0.0,0.0,0.0,0.0,0.0,0.0,0.0,0.0,0.0,2.02,2.0235,1.9869,1.9654,1.9654,1.9273,1.886,0.0,0.0,0.0,2.0519,2.1044,2.1967,2.3425,2.3851,2.4972,2.6908,2.7043,2.7541,2.8366,2.8726,2.8588,2.8044,2.8226,2.8371,2.8451,2.8115,2.8442,2.9215,2.9087,2.9078,2.925,3.0094,3.0421,3.0448,3.064,3.0715,3.0702,3.0771,0.0,0.0,0.0,0.0,0.0,0.0,0.0,0.0,0.0,0.0,0.0,0.0,0.0,0.0,0.0,0.0,0.0,0.0,0.0,0.0,0.0,0.0,0.0,0.0,2.8959,3.0163,3.1625,3.1916,3.2027,3.2173,3.1841,3.1581,3.1516,3.1665,3.1449,3.0675,3.1376,3.1519,3.0736,0.0,0.0,0.0,0.0,3.0891,3.0793,3.0891,3.0891,3.0793,3.0793,3.0793,3.0793,3.0793,3.0793,3.0808,3.0808,3.0804,3.0799,3.0799,3.0709,3.0586,3.0527,3.0519,3.0528,3.0591,3.062,3.0633,0.0,0.0,0.0,0.0,0.0,0.0,0.0,0.0,0.0,2.005,1.9633,1.9472,1.9797,1.9472,1.9213,1.9213,1.886,1.8436,0.0,0.0,1.9757,1.9738,2.1233,2.2627,2.3761,2.4456,2.569,2.7542,2.7281,2.7518,2.8167,2.8555,2.8785,2.8907,2.9782,3.0161,3.0085,0.0,0.0,0.0,0.0,0.0,3.0152,3.0402,3.0505,3.0588,3.0732,3.075,3.0702,3.0716,3.0719,3.0695,3.0707,0.0,0.0,0.0,0.0,0.0,0.0,0.0,0.0,0.0,0.0,0.0,0.0,0.0,0.0,0.0,0.0,0.0,0.0,0.0,0.0,2.7695,2.9644,3.1235,3.1399,3.1673,3.2055,3.2674,3.2852,3.2751,3.2248,3.1813,3.1484,3.1318,3.1045,3.0821,3.0718,3.0718,3.0742,3.081,3.1474,3.1513,3.081,3.1493,3.1493,3.081,0.0,0.0,3.081,3.081,3.0801,3.0804,3.0804,3.081,3.0799,3.0799,3.0709,3.0593,3.0598,3.0571,3.0571,3.0605,3.0665,3.0745,0.0,0.0,0.0,0.0,0.0,0.0,0.0,0.0,0.0,0.0,1.9416,1.925,1.9654,1.9161,1.886,1.9064,1.8567,0.0,0.0,1.9381,2.02,2.1067,2.1989,2.311,2.4356,2.4972,2.5949,2.7391,2.7493,2.7908,2.8607,2.8968,2.9326,2.9679,3.0244,0.0,0.0,0.0,0.0,0.0,0.0,0.0,3.056,3.0588,3.0645,3.0703,3.0742,3.0733,3.0693,3.0707,3.0681,3.064,3.0613,3.0576,3.052,0.0,0.0,0.0,0.0,0.0,0.0,0.0,0.0,0.0,0.0,0.0,0.0,0.0,0.0,2.7655,0.0,0.0,2.8465,2.9047,2.9992,3.0753,3.1007,3.1191,3.1608,3.2544,3.2154,3.1761,3.1619,3.1104,3.081,3.081,3.0646,3.0568,3.0608,3.1077,3.1379,3.1406,3.1854,3.1891,3.1442,3.1442,3.1227,3.0797,3.0797,3.0797,3.0797,3.0797,3.0793,3.0808,3.0808,3.0796,3.081,3.0808,3.0764,3.0703,3.0703,3.0665,3.0593,3.0593,3.0678,3.0799,0.0,0.0,0.0,0.0,0.0,0.0,0.0,0.0,0.0,0.0,0.0,1.9199,1.9493,1.9072,1.8808,0.0,0.0,0.0,0.0,1.9941,2.0925,2.2686,2.2975,2.3782,2.5105,2.5465,2.6144,2.722,2.7637,2.8282,2.9123,2.9418,2.9775,3.0155,0.0,0.0,0.0,0.0,0.0,0.0,0.0,0.0,3.0708,3.0703,3.0729,3.075,3.0507,3.0427,3.0393,3.0373,3.0337,3.0308,3.0414,3.0423,3.0351,3.0084,2.9969,0.0,0.0,0.0,0.0,0.0,0.0,0.0,0.0,0.0,2.8898,2.834,2.8556,2.8854,2.8731,2.8958,2.9443,3.0317,3.0128,3.0058,3.0508,3.0374,3.0632,3.1701,3.0943,3.0371,3.0485,3.0177,3.0003,3.0018,3.0412,3.0617,3.0517,3.1601,3.2154,3.2024,3.2402,3.2519,3.2343,3.166,3.121,3.1054,3.0878,3.08,3.08,3.08,3.08,3.0799,3.0797,3.0792,3.0796,3.081,3.0793,3.0793,3.0804,3.0734,3.0633,3.0633,3.0703,3.0799,0.0,0.0,0.0,0.0,0.0,0.0,0.0,0.0,0.0,0.0,0.0,0.0,0.0,0.0,0.0,0.0,0.0,0.0,0.0,2.1418,2.2565,2.302,2.4075,2.508,2.5944,2.6016,2.6556,2.7624,2.7683,2.8198,2.9105,2.9329,2.9602,2.9938,0.0,0.0,0.0,0.0,0.0,0.0,0.0,0.0,3.0703,3.0708,3.0697,3.0605,2.9757,2.9423,2.9347,2.9225,2.9194,2.9313,3.009,3.0216,3.0056,3.0013,0.0,2.9626,2.9608,2.9474,2.9334,2.9314,2.8966,2.8808,0.0,0.0,2.9426,2.9977,2.9955,2.9853,2.9814,3.0194,3.0283,2.973,3.0162,3.0386,2.9713,2.9089,2.8942,2.9651,3.0167,3.0191,2.9447,2.9492,2.9625,2.9748,3.0665,3.1028,3.0607,3.2113,3.2694,3.2109,3.3598,3.4047,3.3266,3.3168,3.2719,3.196,3.1177,3.0806,3.0806,3.0806,3.0793,3.08,3.08,3.0796,3.0795,3.0799,3.0807,3.0804,3.0793,3.0799,3.0774,3.0774,3.0794,3.0799,0.0,0.0,0.0,0.0,0.0,0.0,0.0,0.0,0.0,0.0,0.0,0.0,0.0,0.0,0.0,0.0,0.0,0.0,2.0858,2.1675,2.2747,2.4084,2.4611,2.516,2.5726,2.598,2.6522,2.7361,2.7577,2.8182,2.9101,2.9175,2.9468,2.9907,0.0,0.0,0.0,0.0,0.0,0.0,0.0,0.0,3.065,3.0098,3.0148,3.042,2.956,2.8849,0.0,0.0,2.8141,2.8135,2.8444,2.8783,2.9039,2.889,2.8783,0.0,2.8567,2.8728,0.0,0.0,2.9254,2.9169,2.9757,2.9905,2.9935,2.9899,2.9954,3.0062,3.0351,3.0331,3.0316,0.0,3.035,3.0026,2.9259,2.8867,2.8592,2.8435,2.9437,2.9903,2.9252,2.9456,2.9643,2.9696,3.0335,3.0854,3.116,3.1883,3.2608,3.3297,3.3659,3.3648,3.3292,3.2868,3.2202,3.1337,3.0963,3.0794,3.0801,3.0801,3.0804,3.0792,3.08,3.0801,3.0801,3.0795,3.081,3.0808,3.0804,3.0794,3.079,3.0808,3.0799,3.0799,0.0,0.0,0.0,0.0,0.0,0.0,0.0,0.0,0.0,0.0,0.0,0.0,0.0,0.0,0.0,0.0,0.0,0.0,0.0,2.2169,2.3157,2.5112,2.5198,0.0,2.5835,2.6139,2.659,2.7282,2.7547,2.8174,2.9038,2.9071,2.9341,2.9776,0.0,0.0,0.0,0.0,0.0,0.0,0.0,0.0,3.0509,2.9555,2.9321,2.9429,2.867,2.8191,0.0,0.0,2.73,2.7569,2.7544,2.8026,2.8539,2.8124,2.8025,2.8075,2.8297,0.0,0.0,2.9958,2.9835,2.9644,3.0317,3.0445,3.0402,3.0179,3.0334,3.0576,3.0761,3.0534,3.0391,3.0729,3.0171,2.9482,2.8863,2.8556,2.8281,2.8022,2.9042,2.973,2.9677,2.9781,2.9776,2.9607,3.0127,3.0682,3.1167,3.1723,3.2604,3.3862,3.3632,3.3495,3.3507,3.296,3.216,3.1076,3.1072,3.0969,3.0739,3.0771,3.0796,3.0796,3.0792,3.0933,3.1149,3.0898,3.0936,3.1131,3.0886,3.0801,3.0799,3.0801,3.0806,3.0798,0.0,0.0,0.0,0.0,0.0,0.0,0.0,0.0,0.0,0.0,0.0,0.0,0.0,0.0,0.0,0.0,0.0,0.0,0.0,2.3293,2.4388,2.5908,2.6033,2.6245,2.6657,2.6691,2.7004,2.7683,2.7683,2.8116,2.8916,2.9042,2.9209,2.9439,0.0,0.0,0.0,0.0,0.0,0.0,0.0,0.0,3.0292,2.9296,2.8227,2.7223,2.6601,0.0,0.0,0.0,2.6749,2.7993,2.8051,2.8587,0.0,2.8229,2.7901,2.8091,0.0,0.0,2.995,3.1071,3.0671,3.024,3.1315,3.1109,3.0887,3.1576,3.1731,3.1603,3.1167,3.1089,3.083,3.0137,2.9411,2.8793,2.8474,2.7799,2.7684,2.864,2.9089,2.9725,0.0,3.0497,3.0013,2.9349,3.03,3.0671,3.0169,3.1872,3.2943,3.314,3.3876,3.4272,3.4272,3.4235,3.3401,3.177,3.1781,3.136,3.0613,3.0739,3.0798,3.0801,3.0796,3.127,3.1995,3.1149,3.1307,3.1972,3.1131,3.0796,3.0796,3.0796,3.0808,3.0794,0.0,0.0,0.0,0.0,0.0,0.0,0.0,0.0,0.0,0.0,0.0,0.0,0.0,0.0,0.0,0.0,0.0,0.0,0.0,2.2708,2.3791,2.5254,2.582,2.628,2.6691,2.6691,2.7036,2.7701,2.7701,2.837,2.969,2.9894,3.032,3.1016,0.0,0.0,0.0,0.0,0.0,0.0,0.0,0.0,3.1632,2.9565,2.8771,2.8608,0.0,0.0,0.0,0.0,2.6665,2.6982,2.6819,0.0,0.0,2.7326,2.813,2.9075,2.8931,0.0,3.0424,3.1312,3.0981,3.0681,3.1533,3.1583,3.1489,3.1748,3.1185,3.0622,3.0472,3.0185,2.9888,2.9655,3.0034,3.0142,2.9544,2.9505,2.9471,2.9311,3.0039,0.0,0.0,0.0,0.0,3.1158,3.1619,3.2139,3.2664,3.2742,3.3297,3.4452,3.4276,3.4179,3.4166,3.4206,3.3381,3.1739,3.1194,3.0801,3.0533,3.0581,3.0633,3.0667,3.0711,3.1258,3.2037,3.1155,3.1317,3.2002,3.1132,3.1152,3.166,3.166,3.2031,3.2363,0.0,0.0,0.0,0.0,0.0,0.0,0.0,0.0,0.0,0.0,0.0,0.0,0.0,0.0,0.0,0.0,0.0,0.0,0.0,0.0,2.3481,2.513,2.5663,2.6168,2.6691,2.6691,2.7036,2.7701,2.7694,2.8485,2.9989,3.0277,3.0849,3.1629,0.0,0.0,0.0,0.0,0.0,0.0,3.1721,3.1385,3.1317,2.9276,2.8688,0.0,0.0,0.0,0.0,0.0,0.0,0.0,0.0,2.6819,2.7163,2.7356,2.8198,2.9125,2.929,2.9982,3.0867,3.1805,3.1547,3.125,3.1844,3.1893,3.1731,3.1455,3.0717,2.9976,2.9517,2.9438,2.9284,2.886,2.966,3.0137,2.9719,2.9776,2.9886,2.992,3.0923,3.152,0.0,0.0,0.0,3.1908,3.2388,3.2901,3.331,3.2931,3.3356,3.4732,3.4312,3.4069,3.4055,3.4395,3.3718,3.2042,3.0954,3.0424,3.0434,3.047,3.0548,3.0607,3.0658,3.1203,3.2054,3.15,3.1585,3.2076,3.1794,3.1858,3.2131,3.2424,3.2758,3.2959,0.0,0.0,0.0,0.0,0.0,0.0,0.0,0.0,0.0,0.0,0.0,0.0,0.0,0.0,0.0,0.0,0.0,0.0,0.0,0.0,0.0,2.539,2.5575,2.593,2.6623,2.6708,2.7036,2.7701,2.7722,2.8439,2.9817,3.0206,3.0721,3.1334,3.1846,0.0,0.0,0.0,3.1935,3.1197,3.1102,0.0,2.9607,2.8614,0.0,0.0,0.0,0.0,0.0,0.0,0.0,0.0,0.0,2.7245,2.7255,2.8211,2.8207,2.8382,3.0445,3.0974,3.1252,3.2488,3.2266,3.1893,3.2179,3.1985,3.1541,3.0834,3.0287,2.9627,0.0,0.0,2.9022,2.794,2.8467,2.9059,2.9079,2.8802,2.9127,0.0,0.0,0.0,0.0,0.0,0.0,3.1726,0.0,3.306,3.2275,3.2609,3.3207,3.4025,3.4063,3.4063,3.4063,3.4732,3.4273,3.2672,3.1065,3.0323,3.0362,3.0479,3.0597,3.0704,3.071,3.1267,3.2162,3.2162,3.2162,3.225,3.3,3.2864,3.2318,3.3078,3.3054,3.2764,0.0,0.0,0.0,0.0,0.0,0.0,0.0,0.0,0.0,0.0,0.0,0.0,0.0,0.0,0.0,0.0,0.0,0.0,0.0,0.0,0.0,0.0,0.0,0.0,0.0,0.0,0.0,0.0,0.0,2.8622,2.9817,3.0052,3.0574,0.0,3.176,3.1931,3.1893,3.2084,3.2428,3.2691,0.0,3.0953,3.1136,0.0,0.0,0.0,0.0,0.0,0.0,0.0,0.0,0.0,0.0,2.7879,2.7773,2.8279,2.8977,2.9788,3.0676,3.1393,3.1952,3.2282,3.2073,3.18,3.1802,3.1351,3.092,3.0731,2.9253,2.8031,0.0,0.0,0.0,2.8526,2.9962,0.0,3.0603,3.0768,0.0,3.1472,0.0,3.2144,3.2731,3.3802,0.0,0.0,3.4228,3.4678,3.4206,3.4282,3.4504,3.4885,3.4885,3.4885,3.4885,3.3872,3.3112,3.2672,3.1016,3.0532,3.1125,3.1205,3.161,3.2235,3.2293,3.2542,3.2912,3.2914,3.2947,3.3005,3.3214,3.3565,3.3955,3.3974,3.4428,3.5061,0.0,0.0,0.0,0.0,0.0,0.0,0.0,0.0,0.0,0.0,0.0,0.0,0.0,0.0,0.0,0.0,0.0,0.0,0.0,0.0,0.0,0.0,0.0,0.0,0.0,0.0,0.0,0.0,0.0,0.0,0.0,3.0005,3.0472,3.1201,3.1605,3.1715,3.1649,0.0,0.0,0.0,0.0,0.0,0.0,0.0,0.0,0.0,0.0,0.0,0.0,0.0,0.0,2.8517,2.8717,2.8684,2.8655,2.9025,0.0,3.03,3.0992,3.1474,3.1821,3.193,3.1819,3.1565,3.1205,3.0864,3.0468,2.9999,2.871,0.0,0.0,0.0,0.0,0.0,0.0,0.0,3.0709,3.1336,3.18,0.0,3.2679,0.0,3.2838,3.4454,3.5217,0.0,3.5325,3.5696,3.5149,3.52,3.5361,3.5587,3.5262,3.5107,3.5209,3.3929,3.328,3.3261,3.1923,3.1541,3.1966,3.2019,3.2307,3.2807,0.0,3.2945,3.3132,3.3481,3.3449,3.3239,3.4,3.4307,3.4345,3.4756,3.5308,3.5852,0.0,0.0,0.0,0.0,0.0,0.0,0.0,0.0,0.0,0.0,0.0,0.0,0.0,0.0,0.0,0.0,0.0,0.0,0.0,0.0,0.0,0.0,0.0,0.0,0.0,0.0,0.0,0.0,0.0,0.0,0.0,0.0,0.0,0.0,0.0,0.0,0.0,0.0,0.0,0.0,0.0,0.0,0.0,0.0,0.0,0.0,0.0,0.0,0.0,0.0,2.8931,2.9414,2.9449,2.9472,2.9575,3.0139,3.0251,3.0353,3.1355,3.1492,3.1334,3.1504,3.1521,3.1312,3.0617,3.0482,3.0187,2.911,0.0,2.8184,2.781,2.8616,2.9074,2.8266,0.0,3.0705,3.0561,3.1353,3.1955,3.1955,3.3783,3.4509,3.3105,3.5525,3.6622,3.5274,3.614,3.6337,3.546,3.5656,3.5904,3.6081,3.5325,3.5001,3.5209,3.4407,3.3987,3.3987,3.3127,3.2749,3.2863,3.2863,3.2962,3.3125,3.3125,0.0,3.3357,3.4031,3.38,3.3157,3.49,3.5009,3.4293,3.5397,3.5799,3.5806,0.0,0.0,0.0,0.0,0.0,0.0,0.0,0.0,0.0,0.0,2.1019,2.1055,0.0,0.0,0.0,0.0,0.0,0.0,0.0,0.0,0.0,0.0,0.0,0.0,0.0,0.0,0.0,0.0,0.0,0.0,0.0,0.0,0.0,0.0,0.0,0.0,0.0,0.0,0.0,0.0,0.0,0.0,0.0,0.0,0.0,0.0,0.0,0.0,0.0,0.0,2.9817,2.9871,2.9819,2.9822,3.0035,3.1126,3.0964,3.0702,3.1986,3.1805,3.1295,3.1334,3.1406,3.1329,3.0577,3.0407,0.0,0.0,0.0,2.8214,2.845,2.8744,2.9193,3.0206,0.0,0.0,0.0,0.0,3.2714,0.0,0.0,0.0,0.0,0.0,0.0,0.0,0.0,3.6796,3.5454,3.6061,3.6339,3.61,3.5325,3.5001,3.5209,3.4407,3.3987,3.3987,3.3127,3.3089,3.3777,3.3777,3.4136,3.4767,3.4767,0.0,3.4839,3.4979,3.4237,3.3164,3.487,3.55,3.5512,3.5717,3.5792,3.5805,0.0,0.0,0.0,0.0,0.0,0.0,0.0,2.0676,2.1084,2.2003,2.2643,2.2881,2.248,2.4159,2.49,0.0,0.0,0.0,0.0,0.0,0.0,0.0,0.0,0.0,0.0,0.0,0.0,0.0,0.0,0.0,0.0,0.0,0.0,0.0,0.0,0.0,0.0,0.0,0.0,0.0,0.0,0.0,0.0,0.0,0.0,0.0,0.0,0.0,0.0,0.0,2.9951,2.9829,3.0403,3.059,3.0778,3.1722,3.1479,3.11,3.2196,3.1885,3.1252,3.1295,3.104,3.07,3.0364,0.0,0.0,0.0,0.0,2.8744,3.0166,0.0,0.0,0.0,0.0,0.0,0.0,0.0,0.0,0.0,0.0,0.0,0.0,0.0,0.0,0.0,0.0,3.7647,3.6537,3.6951,3.6763,3.5758,3.5603,3.5363,3.5054,3.4759,3.4617,3.4617,3.4197,3.4216,3.4617,3.462,3.4833,3.5196,3.5198,0.0,3.52,3.52,3.4791,3.4223,3.5032,3.5399,3.5495,3.5496,3.5488,3.5516,0.0,0.0,0.0,0.0,0.0,0.0,0.0,2.1312,2.1842,2.2984,2.4055,2.4566,2.4141,2.5475,2.5933,0.0,0.0,0.0,0.0,0.0,0.0,0.0,0.0,0.0,0.0,0.0,0.0,0.0,0.0,0.0,0.0,0.0,0.0,0.0,0.0,0.0,0.0,0.0,0.0,0.0,0.0,0.0,0.0,0.0,0.0,0.0,0.0,0.0,0.0,0.0,3.0367,3.0209,3.0798,3.0954,3.1106,3.1833,3.1647,3.1399,3.2241,3.1862,3.123,3.1274,3.0789,3.0332,3.0221,2.9707,0.0,0.0,3.0095,2.9851,3.1639,0.0,0.0,0.0,0.0,0.0,0.0,0.0,0.0,0.0,0.0,0.0,0.0,0.0,0.0,0.0,0.0,0.0,3.7771,3.7571,3.6997,3.5962,3.61,3.5885,3.5229,3.5381,3.5375,3.5198,3.52,3.5198,3.5193,3.5198,3.52,3.5202,3.5204,0.0,0.0,3.6283,3.5846,3.52,3.5197,3.5205,3.52,3.5196,3.5649,3.6222,0.0,0.0,0.0,0.0,0.0,0.0,0.0,2.1378,2.2311,2.3644,2.4522,2.5325,2.5959,2.7464,2.7838,0.0,0.0,0.0,0.0,0.0,0.0,0.0,0.0,0.0,0.0,0.0,0.0,0.0,0.0,0.0,0.0,0.0,0.0,0.0,0.0,0.0,0.0,0.0,0.0,0.0,0.0,0.0,0.0,0.0,0.0,0.0,0.0,0.0,0.0,0.0,0.0,3.1845,3.0581,3.0209,3.0362,3.1072,0.0,0.0,3.2127,3.1749,3.119,3.119,3.114,3.0959,3.0323,0.0,0.0,3.0979,3.1401,3.1936,3.182,3.1437,0.0,0.0,0.0,3.3678,0.0,0.0,0.0,0.0,0.0,0.0,0.0,0.0,0.0,0.0,0.0,0.0,3.8597,3.7213,3.6805,3.757,3.6917,3.6453,3.6265,3.6287,3.5922,3.5192,3.5192,3.521,3.52,3.5202,3.5204,3.5204,3.5204,0.0,0.0,3.9827,3.7997,3.5204,3.5202,3.5202,3.5202,3.5198,3.7175,3.9398,0.0,0.0,0.0,0.0,0.0,0.0,2.0929,2.1399,2.2185,2.3686,2.4502,2.5186,2.5875,2.7211,2.7866,2.7278,0.0,0.0,0.0,0.0,0.0,0.0,0.0,0.0,0.0,0.0,0.0,0.0,0.0,0.0,0.0,0.0,0.0,0.0,0.0,0.0,0.0,0.0,0.0,0.0,0.0,0.0,0.0,0.0,0.0,0.0,0.0,0.0,0.0,0.0,0.0,0.0,3.0294,3.0108,0.0,0.0,3.119,3.136,3.2087,3.1749,3.119,3.119,3.0869,3.0581,3.0755,0.0,3.1465,3.2309,3.2353,3.2518,3.3337,3.3128,3.2898,0.0,0.0,0.0,0.0,0.0,0.0,0.0,0.0,0.0,0.0,0.0,0.0,0.0,0.0,0.0,3.8707,3.8083,3.772,3.7616,3.7294,3.6798,3.6124,3.5525,3.5094,3.4771,3.5071,3.519,3.5256,3.7316,3.827,3.827,3.827,0.0,0.0,4.0307,3.9487,3.8285,3.8265,3.8282,3.8265,3.8284,3.9118,4.012,0.0,0.0,0.0,0.0,0.0,2.0008,2.0965,2.1275,2.1911,2.329,2.4035,2.4683,2.5419,2.6393,2.7212,2.7685,2.8212,0.0,0.0,0.0,0.0,0.0,0.0,0.0,0.0,0.0,0.0,0.0,0.0,0.0,0.0,0.0,0.0,0.0,0.0,0.0,0.0,0.0,0.0,0.0,0.0,0.0,0.0,0.0,0.0,0.0,0.0,0.0,0.0,0.0,0.0,0.0,0.0,0.0,0.0,0.0,3.1173,3.1579,3.1884,3.1732,3.1461,3.1241,3.0818,3.0615,0.0,0.0,3.1851,3.3556,3.352,3.3517,3.4692,3.442,3.3941,3.3612,0.0,3.5274,0.0,0.0,0.0,0.0,0.0,0.0,0.0,0.0,0.0,0.0,0.0,0.0,3.9171,3.8884,3.8444,3.7863,3.7837,3.7507,3.6749,3.6077,3.5752,3.5752,3.6093,3.624,3.6306,3.8726,3.9996,4.0307,4.0291,0.0,0.0,4.0291,4.0309,4.029,4.0307,4.0288,4.0307,4.0289,4.0307,4.0306,0.0,0.0,0.0,0.0,0.0,0.0,2.0602,2.1036,2.1579,2.2319,2.3064,2.3895,2.4908,2.5246,2.6084,2.7654,2.9211,0.0,0.0,0.0,0.0,0.0,0.0,0.0,0.0,0.0,0.0,2.7213,2.7552,0.0,0.0,0.0,0.0,0.0,0.0,0.0,0.0,0.0,0.0,0.0,0.0,0.0,3.5059,0.0,0.0,0.0,0.0,0.0,0.0,0.0,0.0,0.0,0.0,0.0,0.0,0.0,3.114,3.2121,3.1393,3.1732,3.2087,3.1376,3.119,3.1376,0.0,3.2848,3.3607,3.4532,3.512,3.5505,3.5652,3.495,3.4489,3.4985,3.4906,0.0,0.0,0.0,0.0,0.0,0.0,0.0,0.0,0.0,0.0,0.0,0.0,0.0,4.0299,3.929,3.8688,3.8707,3.8689,3.8695,3.8674,3.8656,3.8664,3.8648,3.8652,3.8658,3.8658,3.8693,3.9294,0.0,0.0,0.0,0.0,4.031,4.031,4.031,4.031,4.031,4.0291,4.029,4.0308,4.0308,0.0,0.0,0.0,0.0,0.0,0.0,0.0,2.0171,2.0521,2.1167,2.2274,2.3407,2.4333,2.5299,2.6382,2.7705,2.7791,0.0,0.0,0.0,0.0,0.0,0.0,0.0,0.0,0.0,2.725,2.6858,2.8537,2.8644,2.7386,0.0,0.0,0.0,0.0,0.0,0.0,0.0,0.0,0.0,0.0,3.3716,3.3972,0.0,0.0,0.0,0.0,0.0,0.0,0.0,0.0,0.0,0.0,0.0,0.0,0.0,0.0,0.0,3.1258,3.136,3.1478,3.1258,3.119,3.1376,3.2121,3.3254,3.4273,3.4601,3.5646,3.6331,3.5819,3.6168,3.6384,3.5951,3.6406,0.0,0.0,0.0,0.0,0.0,0.0,0.0,0.0,0.0,0.0,0.0,0.0,0.0,4.0317,3.929,3.8692,3.8706,3.8706,3.8682,3.8713,3.8713,3.8688,3.8715,3.8704,3.8699,3.872,3.9466,3.9977,0.0,0.0,0.0,0.0,4.0304,4.0309,4.031,4.031,4.031,4.031,4.0291,4.031,4.031,0.0,0.0,0.0,0.0,0.0,0.0,0.0,1.9726,1.9912,2.0399,2.1522,2.265,2.3606,2.4857,2.6075,2.7056,2.6894,0.0,0.0,0.0,0.0,0.0,0.0,0.0,0.0,2.8501,2.7892,2.7114,2.8935,2.9017,2.7466,2.9088,2.9029,0.0,0.0,0.0,0.0,0.0,0.0,0.0,3.311,3.3768,3.3829,0.0,0.0,0.0,0.0,0.0,0.0,0.0,0.0,0.0,0.0,0.0,0.0,0.0,3.2391,0.0,0.0,3.2036,3.2036,3.2036,3.2036,0.0,3.3305,3.4061,3.4798,3.5481,3.6329,3.6799,3.6301,3.6686,3.689,3.6033,3.6799,0.0,0.0,0.0,0.0,0.0,0.0,0.0,0.0,0.0,0.0,0.0,0.0,0.0,4.1504,4.087,4.0522,4.051,3.9333,3.8716,3.8693,3.8719,3.8682,3.8682,3.8695,3.8701,3.8718,3.9406,3.9714,0.0,0.0,0.0,0.0,4.1005,4.1032,4.0288,4.0288,4.0291,4.031,4.031,4.031,4.031,0.0,0.0,0.0,0.0,0.0,0.0,0.0,1.969,1.9762,1.9955,2.0804,2.1755,2.279,2.4081,2.5221,2.6073,0.0,0.0,0.0,0.0,0.0,0.0,0.0,0.0,0.0,2.8958,2.8552,2.7789,2.887,2.8853,2.7824,2.8531,2.8275,2.7235,2.7184,0.0,0.0,0.0,0.0,0.0,3.2923,3.3897,0.0,0.0,0.0,0.0,0.0,0.0,0.0,0.0,0.0,0.0,0.0,0.0,0.0,0.0,0.0,0.0,0.0,0.0,0.0,0.0,0.0,0.0,0.0,3.5232,0.0,3.6821,3.699,3.6848,3.6935,3.6707,3.6279,3.5688,3.6446,0.0,0.0,0.0,0.0,0.0,0.0,0.0,0.0,0.0,0.0,0.0,0.0,0.0,4.3497,4.3497,4.3495,4.3505,4.0595,3.9024,3.9039,3.9045,3.893,3.8679,3.87,3.8707,3.8718,3.895,3.9036,0.0,0.0,0.0,0.0,4.2208,4.2203,4.0348,4.039,4.0357,4.0291,4.0463,4.0482,4.0387,0.0,0.0,0.0,0.0,0.0,0.0,0.0,0.0,0.0,0.0,2.0531,2.161,2.2987,2.4029,2.5135,0.0,0.0,0.0,0.0,0.0,0.0,0.0,0.0,0.0,0.0,2.8704,2.801,2.7789,2.8939,2.8905,2.7824,2.8853,2.8732,2.7623,2.708,2.6824,0.0,0.0,0.0,0.0,3.4017,3.4523,0.0,0.0,0.0,0.0,3.1258,3.1309,0.0,0.0,0.0,0.0,0.0,0.0,0.0,0.0,3.4235,3.4353,3.4945,0.0,3.3541,3.41,3.4235,0.0,0.0,0.0,0.0,0.0,0.0,3.7168,3.6815,3.7156,3.7492,3.7479,3.8038,3.8639,0.0,0.0,0.0,0.0,0.0,0.0,0.0,0.0,0.0,0.0,0.0,4.3497,4.3497,4.3497,4.3513,4.3495,4.2766,4.2359,4.2364,4.2378,4.1144,3.8711,3.8692,3.872,3.8771,4.1272,4.2377,0.0,0.0,0.0,4.2387,4.2603,4.1977,4.0948,4.1369,4.0821,4.0074,4.2086,4.2145,4.1227,0.0,0.0,0.0,0.0,0.0,0.0,0.0,0.0,0.0,0.0,0.0,0.0,0.0,0.0,0.0,0.0,0.0,0.0,0.0,0.0,0.0,0.0,0.0,0.0,2.9059,2.8602,2.818,2.7789,2.8782,2.8765,2.7789,2.8424,2.822,2.73,2.7232,2.7402,0.0,0.0,0.0,3.2364,3.4324,0.0,0.0,0.0,0.0,0.0,3.119,3.119,0.0,3.1579,3.2171,3.2848,0.0,0.0,0.0,0.0,3.5013,3.5182,3.5943,3.4852,3.3701,3.4437,3.4655,3.4967,0.0,0.0,0.0,0.0,0.0,0.0,3.6426,3.7018,0.0,3.6924,3.8372,0.0,0.0,0.0,0.0,0.0,0.0,0.0,0.0,0.0,0.0,0.0,0.0,4.3504,4.3497,4.3497,4.3497,4.3497,4.3499,4.3497,4.3487,4.3483,4.2625,4.0903,4.0899,4.0899,4.0958,4.2699,4.3483,0.0,0.0,0.0,4.3458,4.3074,4.2433,4.1707,4.1721,4.108,4.0302,4.1313,4.1472,4.1127,0.0,0.0,0.0,0.0,0.0,0.0,0.0,0.0,0.0,0.0,0.0,0.0,0.0,0.0,0.0,0.0,0.0,0.0,0.0,0.0,0.0,0.0,0.0,2.8552,2.801,2.8416,2.8366,2.7789,2.8602,2.8653,2.801,2.8112,2.7706,2.6894,2.7636,2.8371,0.0,0.0,0.0,3.3489,3.4334,0.0,0.0,0.0,0.0,0.0,0.0,0.0,0.0,3.2239,3.2949,3.3677,3.4199,0.0,0.0,0.0,0.0,0.0,3.6202,3.5091,3.4001,3.5066,3.5217,3.5392,0.0,0.0,0.0,0.0,0.0,0.0,0.0,0.0,0.0,0.0,0.0,0.0,0.0,0.0,0.0,0.0,0.0,0.0,0.0,0.0,0.0,0.0,0.0,4.3506,4.3501,4.3973,4.4026,4.3516,4.3484,4.3503,4.3497,4.3511,4.3493,4.3508,4.3502,4.3502,4.349,4.349,4.3493,4.3497,0.0,0.0,4.3497,4.3497,4.3059,4.236,4.2013,4.1446,4.0795,4.0378,4.0534,4.0884,0.0,0.0,0.0,0.0,0.0,0.0,0.0,0.0,0.0,0.0,0.0,0.0,0.0,0.0,0.0,0.0,0.0,0.0,0.0,0.0,0.0,0.0,2.7994,2.8247,2.8789,2.7655,2.73,2.7789,2.8602,2.8924,2.8822,2.9448,2.9008,2.7689,2.8467,2.8876,2.9151,0.0,0.0,3.3539,3.4852,0.0,0.0,0.0,0.0,0.0,0.0,0.0,0.0,3.306,3.3728,3.425,3.3918,0.0,0.0,0.0,0.0,0.0,3.4594,3.4304,3.4691,3.703,3.6806,3.6206,0.0,0.0,0.0,0.0,0.0,0.0,0.0,0.0,0.0,0.0,0.0,0.0,0.0,0.0,0.0,0.0,0.0,0.0,0.0,0.0,0.0,0.0,0.0,4.3503,4.3523,4.6084,4.6318,4.3605,4.3484,4.3503,4.3497,4.3504,4.3505,4.3503,4.3484,4.3518,4.3513,4.3513,4.3513,4.3497,0.0,4.3497,4.3497,4.3497,4.3036,4.2404,4.3267,4.2686,4.1556,4.31,4.2825,4.1762,0.0,0.0,0.0,0.0,0.0,0.0,0.0,0.0,0.0,0.0,0.0,0.0,0.0,0.0,0.0,0.0,0.0,0.0,0.0,0.0,0.0,2.7806,2.7789,2.7807,2.774,2.7875,2.7892,2.7789,2.8602,2.9011,2.9028,2.9347,2.8907,2.7857,2.9465,3.0421,3.0904,3.271,0.0,3.4645,0.0,0.0,0.0,0.0,0.0,0.0,0.0,0.0,0.0,0.0,3.3984,3.4469,3.4343,0.0,0.0,0.0,0.0,0.0,3.5072,3.4718,3.4666,3.6706,3.5911,3.4794,0.0,0.0,0.0,0.0,0.0,0.0,0.0,0.0,0.0,0.0,0.0,0.0,0.0,0.0,0.0,0.0,0.0,0.0,0.0,0.0,0.0,0.0,0.0,0.0,4.6104,4.5845,4.544,4.4816,4.3959,4.3924,4.4782,4.4803,4.5242,4.6083,4.5203,4.4635,4.4395,4.4946,4.4597,4.3516,0.0,4.3901,4.3497,4.3497,4.3277,4.2981,4.3056,4.2608,4.2036,4.2946,4.2786,4.2136,0.0,0.0,0.0,0.0,0.0,0.0,0.0,0.0,0.0,0.0,0.0,0.0,0.0,0.0,0.0,0.0,0.0,0.0,0.0,0.0,2.8975,2.8383,2.818,2.774,2.6962,2.8112,2.8501,2.8095,2.8873,2.933,2.9536,2.9536,2.9178,2.8687,3.0598,3.1845,3.2633,3.3956,3.4939,3.5577,0.0,0.0,0.0,0.0,0.0,0.0,0.0,0.0,0.0,0.0,0.0,0.0,0.0,0.0,0.0,3.4268,3.4161,3.4334,3.53,3.5015,3.4745,3.5744,0.0,0.0,0.0,0.0,0.0,0.0,0.0,0.0,0.0,0.0,0.0,0.0,0.0,0.0,0.0,0.0,0.0,0.0,0.0,0.0,0.0,0.0,0.0,0.0,0.0,0.0,4.6762,4.504,4.4547,4.5681,4.4784,4.4857,4.6085,4.5828,4.6342,4.7553,4.6561,4.5717,4.5038,4.5882,4.5332,4.3791,4.4232,4.4066,4.3497,4.3497,4.3497,4.3424,4.2818,4.258,4.2561,4.2378,4.2304,4.2304,0.0,0.0,0.0,0.0,0.0,0.0,0.0,0.0,0.0,0.0,0.0,0.0,0.0,0.0,0.0,0.0,0.0,0.0,0.0,0.0,3.0006,2.9956,2.9279,2.8535,2.7722,2.7806,2.823,2.889,2.9651,3.0378,3.1038,3.1038,3.1004,3.0987,3.1833,3.2642,3.3369,3.4143,3.4928,3.5577,3.5068,0.0,0.0,0.0,0.0,0.0,0.0,0.0,0.0,0.0,0.0,0.0,0.0,0.0,3.3251,3.2695,3.346,3.4315,3.3743,3.4484,3.5259,3.4793,0.0,0.0,0.0,0.0,0.0,0.0,0.0,0.0,0.0,0.0,0.0,0.0,0.0,0.0,0.0,0.0,0.0,0.0,0.0,0.0,0.0,0.0,0.0,0.0,0.0,0.0,4.2264,4.4466,4.5558,4.5178,4.6009,4.6507,4.6618,4.5644,4.5223,4.5352,4.6232,4.5975,4.4727,4.4819,4.4764,4.458,4.3883,4.3534,4.3497,4.3497,4.3497,4.3479,4.3424,4.3406,4.3314,4.258,4.2304,4.232,0.0,0.0,0.0,0.0,0.0,0.0,0.0,0.0,0.0,0.0,0.0,0.0,0.0,0.0,0.0,0.0,0.0,0.0,0.0,0.0,3.0487,3.0125,2.9381,2.9059,2.9245,2.9245,2.9161,2.9011,3.0192,3.092,3.1207,3.1664,3.1867,3.1918,3.3119,3.3838,3.4109,3.4516,3.4864,3.5068,3.488,3.4415,0.0,0.0,0.0,0.0,0.0,0.0,0.0,0.0,3.3869,3.425,3.39,3.3546,3.3224,3.345,3.365,3.3844,3.4029,3.4445,0.0,0.0,0.0,0.0,0.0,0.0,0.0,0.0,0.0,0.0,0.0,0.0,0.0,0.0,0.0,0.0,0.0,0.0,0.0,0.0,0.0,0.0,0.0,0.0,0.0,0.0,0.0,0.0,4.4306,4.5358,4.6046,4.632,4.625,4.6214,4.6195,4.5809,4.5608,4.559,4.5993,4.6177,4.6214,4.6214,4.5663,4.469,4.4378,4.3956,4.3497,4.3497,4.3497,4.3497,4.3497,4.3497,4.3442,4.3149,4.3039,4.3073,0.0,0.0,0.0,0.0,0.0,0.0,0.0,0.0,0.0,0.0,0.0,0.0,0.0,0.0,0.0,0.0,0.0,0.0,2.9009,3.0161,3.066,3.0253,2.9644,2.9583,3.0091,3.0108,2.9973,2.9668,3.0463,3.097,3.1207,3.152,3.1832,3.2118,3.3215,3.3796,3.4046,3.4176,3.4363,3.4529,3.4366,3.3853,0.0,0.0,0.0,0.0,0.0,0.0,0.0,0.0,3.3636,3.403,3.3975,3.3638,3.3356,3.3826,3.3721,3.3567,3.4275,3.4629,3.486,0.0,0.0,0.0,0.0,0.0,0.0,0.0,0.0,0.0,0.0,0.0,0.0,0.0,0.0,0.0,0.0,0.0,0.0,0.0,0.0,0.0,0.0,0.0,0.0,0.0,0.0,0.0,0.0,4.5039,4.5512,4.6074,4.5858,4.5698,4.5698,4.5572,4.5773,4.6269,4.5755,4.5938,4.6728,4.6728,4.5993,4.469,4.4433,4.4011,4.3497,4.3497,4.3497,4.3497,4.3497,4.3497,4.3497,4.3497,4.3497,4.3497,0.0,0.0,0.0,0.0,0.0,0.0,0.0,0.0,0.0,0.0,0.0,0.0,0.0,0.0,0.0,0.0,0.0,0.0,2.8682,2.9814,3.0477,3.0518,3.023,3.0108,3.0125,3.0087,3.048,3.1173,3.0463,3.048,3.119,3.0634,3.0849,3.1603,3.1805,3.2287,3.3016,3.2967,3.3388,3.3935,3.3407,3.3198,0.0,0.0,0.0,0.0,0.0,0.0,0.0,0.0,3.3761,3.4132,3.3568,3.3413,3.3413,3.3413,3.3413,3.3583,3.4291,3.4968,0.0,0.0,0.0,0.0,0.0,0.0,0.0,0.0,0.0,0.0,0.0,0.0,0.0,0.0,0.0,0.0,0.0,0.0,0.0,0.0,0.0,0.0,0.0,0.0,0.0,0.0,0.0,0.0,0.0,4.3196,4.3898,4.3915,4.4827,4.5312,4.5312,4.4931,4.5516,4.7095,4.548,4.5149,4.592,4.5902,4.5461,4.4672,4.3846,4.3497,4.3497,4.3497,4.3497,4.3497,4.3497,4.3497,4.3497,4.3497,4.3497,4.3497,0.0,0.0,0.0,0.0,0.0,0.0,0.0,0.0,0.0,0.0,0.0,0.0,0.0,0.0,0.0,0.0,0.0,0.0,2.8665,2.9339,2.9935,3.0477,2.9919,2.9865,3.0366,3.0507,3.0417,3.0005,2.9906,2.9765,2.9609,3.0359,3.0903,3.1209,3.173,3.2351,3.2983,3.259,3.2838,3.3439,3.3773,3.3372,3.2742,0.0,0.0,0.0,0.0,0.0,0.0,0.0,0.0,0.0,3.421,3.4152,3.4152,3.4152,3.4491,3.4906,3.5122,3.4983,0.0,0.0,0.0,0.0,0.0,0.0,0.0,0.0,0.0,0.0,0.0,0.0,0.0,0.0,0.0,0.0,0.0,0.0,0.0,0.0,0.0,0.0,0.0,0.0,0.0,0.0,0.0,0.0,0.0,4.3479,4.4545,4.5684,4.5724,4.5973,4.6558,4.5883,4.5773,4.625,4.5773,4.6269,4.7535,4.5828,4.5241,4.5461,4.4085,4.3497,4.3497,4.3497,4.3497,4.3497,4.3497,4.3497,4.3497,4.3497,4.3497,4.3571,0.0,0.0,0.0,0.0,0.0,0.0,0.0,0.0,0.0,0.0,0.0,0.0,0.0,0.0,0.0,0.0,0.0,0.0,0.0,2.887,2.9255,2.9137,2.9655,3.0297,3.1019,3.0965,3.0534,2.9756,2.9772,2.9567,2.9248,2.9858,3.0154,3.0277,3.0767,3.1324,3.1926,3.1612,3.2024,3.2926,3.3349,3.3068,3.2514,0.0,0.0,0.0,0.0,0.0,0.0,0.0,0.0,0.0,3.4876,3.4876,3.4814,3.4552,3.4568,3.466,3.466,0.0,0.0,0.0,0.0,0.0,0.0,0.0,0.0,0.0,0.0,0.0,0.0,0.0,0.0,0.0,0.0,0.0,0.0,0.0,0.0,0.0,0.0,0.0,0.0,0.0,0.0,0.0,0.0,0.0,0.0,4.2944,4.3878,4.5125,4.4821,4.5088,4.6045,4.5264,4.522,4.5883,4.5096,4.5626,4.7297,4.5516,4.4966,4.5351,4.4048,4.3497,4.3497,4.3497,4.3497,4.3497,4.3497,4.3497,4.3497,4.3497,4.3497,4.3552,0.0,0.0,0.0,0.0,0.0,0.0,0.0,0.0,0.0,0.0,0.0,0.0,0.0,0.0,0.0,0.0,0.0,0.0,0.0,0.0,2.8347,2.7248,2.948,3.1048,3.1709,3.1355,3.0777,3.0021,2.9729,2.9585,2.9565,2.9102,2.8872,2.898,2.9193,2.9735,3.0412,3.0417,3.1155,3.2398,3.2499,3.2428,3.2459,3.3152,0.0,0.0,0.0,0.0,0.0,0.0,0.0,0.0,3.5507,3.5522,3.5445,3.4768,3.4106,3.3598,3.3598,0.0,0.0,0.0,0.0,0.0,0.0,0.0,0.0,0.0,0.0,0.0,0.0,0.0,0.0,0.0,0.0,0.0,0.0,0.0,0.0,0.0,0.0,0.0,0.0,0.0,0.0,0.0,0.0,0.0,0.0,4.1988,4.2417,4.3126,4.2911,4.3332,4.4586,4.3775,4.4169,4.5773,4.3962,4.4016,4.5755,4.4966,4.4599,4.4562,4.3809,4.3497,4.3497,4.3497,4.3497,4.3497,4.3497,4.3497,4.3497,4.3497,4.3497,4.3497,0.0,0.0,0.0,0.0,0.0,0.0,0.0,0.0,0.0,0.0,0.0,0.0,0.0,0.0,0.0,0.0,0.0,0.0,0.0,0.0,2.7145,2.7854,2.9388,3.0577,3.1227,3.129,3.0737,2.9546,2.8962,2.8436,2.7906,2.7783,2.7736,2.7814,2.8367,2.9289,3.0412,3.0417,3.1155,3.2428,3.2974,3.2857,3.2475,3.3115,3.308,0.0,0.0,0.0,0.0,0.0,0.0,0.0,3.5645,3.5845,3.6138,3.546,3.5153,3.5045,0.0,3.4645,0.0,0.0,0.0,0.0,0.0,0.0,0.0,0.0,0.0,0.0,0.0,0.0,0.0,0.0,0.0,0.0,0.0,0.0,0.0,0.0,0.0,0.0,0.0,0.0,0.0,0.0,0.0,0.0,4.1147,4.2044,4.2643,4.2783,4.3059,4.3775,4.5116,4.4339,4.4266,0.0,4.4527,4.4546,4.4947,4.4121,4.3754,4.3736,4.3571,4.3497,4.3497,4.3497,4.3497,4.3497,4.3497,4.3497,4.3497,4.3497,4.3497,4.3589,0.0,0.0,0.0,0.0,0.0,0.0,0.0,0.0,0.0,0.0,0.0,0.0,0.0,0.0,0.0,0.0,0.0,0.0,0.0,0.0,2.6995,2.8639,2.9387,3.0386,3.1711,3.1836,3.1536,3.0843,2.9858,0.0,0.0,0.0,0.0,2.7919,2.8935,2.9766,3.0428,3.0742,3.1486,3.2413,3.2795,3.2693,3.2475,3.3141,3.3203,3.3034,3.4023,0.0,0.0,0.0,0.0,0.0,0.0,0.0,3.6353,3.5691,3.5476,3.5337,0.0,0.0,0.0,0.0,0.0,0.0,0.0,0.0,0.0,0.0,0.0,0.0,0.0,0.0,0.0,0.0,0.0,0.0,0.0,0.0,0.0,0.0,0.0,0.0,0.0,0.0,0.0,0.0,0.0,4.1664,4.0922,4.1516,4.2021,4.2352,4.2584,4.3315,4.4639,4.3596,4.3417,4.4062,4.3469,4.3385,4.3853,4.4014,4.3864,4.3497,4.3497,4.3497,4.3497,4.3497,4.3497,4.3497,4.3497,4.3497,4.3534,4.392,4.4066,4.4195,0.0,0.0,0.0,0.0,0.0,0.0,0.0,0.0,0.0,0.0,0.0,0.0,0.0,0.0,0.0,0.0,0.0,0.0,0.0,0.0,0.0,2.8981,2.9289,3.0243,3.2013,3.2167,3.2167,3.2044,0.0,0.0,0.0,0.0,0.0,2.8458,2.9581,3.0212,3.0443,3.0969,3.1681,3.2398,3.2398,3.2398,3.2459,3.3013,0.0,3.3391,3.4704,3.5109,3.5248,3.6045,0.0,0.0,0.0,0.0,3.6384,3.583,3.5568,3.523,0.0,0.0,0.0,0.0,0.0,0.0,0.0,0.0,0.0,0.0,0.0,0.0,0.0,0.0,0.0,0.0,0.0,0.0,0.0,0.0,0.0,0.0,0.0,0.0,0.0,0.0,0.0,0.0,0.0,4.1664,4.0922,4.1129,4.144,4.1785,4.2061,4.2628,4.3494,4.2462,4.2345,4.3185,4.2207,4.2198,4.3031,4.4034,4.4121,4.3497,4.3497,4.3497,4.3497,4.3497,4.3497,4.3497,4.3497,4.3497,4.3589,4.4415,4.4709,4.4837,0.0,0.0,0.0,0.0,0.0,0.0,0.0,0.0,0.0,0.0,0.0,0.0,0.0,0.0,0.0,0.0,0.0,0.0,0.0,0.0,0.0,2.7596,2.8781,2.9812,3.0674,3.1243,3.1243,3.0689,0.0,0.0,0.0,0.0,0.0,2.8411,0.0,0.0,3.0391,3.0486,3.1259,3.2398,3.2398,3.2398,3.2398,0.0,0.0,0.0,3.3377,3.3681,3.3854,3.5182,3.5598,0.0,0.0,0.0,3.6476,3.6384,3.5938,3.5445,0.0,0.0,0.0,0.0,0.0,0.0,0.0,0.0,0.0,0.0,0.0,0.0,0.0,0.0,0.0,0.0,0.0,0.0,0.0,0.0,0.0,0.0,0.0,0.0,0.0,0.0,0.0,0.0,4.1992,4.1664,4.0922,4.2196,4.2351,4.1078,4.2319,4.2632,4.185,4.1638,4.185,4.2358,4.2591,4.2939,4.3428,4.3608,4.3589,4.3497,4.3497,4.3497,4.3497,4.3497,4.3497,4.3497,4.3497,4.3497,4.3589,4.4415,4.4709,4.4837,0.0,0.0,0.0,0.0,0.0,0.0,0.0,0.0,0.0,0.0,0.0,0.0,0.0,0.0,0.0,0.0,0.0,0.0,0.0,0.0,0.0,2.7334,2.8319,2.9335,3.0397,3.1059,3.1243,0.0,0.0,0.0,0.0,3.0351,2.9889,0.0,0.0,0.0,0.0,0.0,0.0,3.1839,3.225,3.2398,0.0,0.0,0.0,0.0,0.0,0.0,0.0,3.5058,3.5505,3.5599,3.6276,0.0,0.0,0.0,0.0,0.0,0.0,0.0,0.0,0.0,0.0,0.0,0.0,0.0,0.0,0.0,0.0,0.0,0.0,0.0,0.0,0.0,0.0,0.0,0.0,0.0,0.0,0.0,0.0,0.0,0.0,0.0,0.0,0.0,4.2406,4.213,4.094,4.1526,4.1578,4.0905,4.1543,4.1687,4.1163,4.1401,4.1735,4.2198,4.2418,4.275,4.3178,4.341,4.3497,4.3497,4.3497,4.3497,4.3497,4.3497,4.3497,4.3497,4.3497,4.3497,4.3644,4.4911,4.5369,4.5553,0.0,0.0,0.0,0.0,0.0,0.0,0.0,0.0,0.0,0.0,0.0,0.0,0.0,0.0,0.0,0.0,0.0,0.0,0.0,0.0,0.0,2.7334,2.7873,2.8858,3.0397,3.0889,0.0,0.0,0.0,0.0,3.1643,3.1643,3.1382,0.0,3.1074,0.0,0.0,0.0,0.0,0.0,0.0,0.0,0.0,0.0,0.0,0.0,0.0,0.0,0.0,0.0,0.0,0.0,0.0,0.0,0.0,0.0,0.0,0.0,0.0,0.0,0.0,0.0,0.0,0.0,0.0,0.0,0.0,0.0,0.0,0.0,0.0,0.0,0.0,0.0,0.0,0.0,0.0,0.0,0.0,0.0,0.0,0.0,0.0,0.0,0.0,0.0,4.2837,4.2558,4.0957,4.106,4.1078,4.0888,4.106,4.1078,4.0888,4.1209,4.1561,4.2032,4.2032,4.2297,4.2711,4.3014,4.316,4.316,4.341,4.3497,4.3497,4.3497,4.3497,4.3497,4.3497,4.3497,4.3681,4.5314,4.5902,4.6122,0.0,0.0,0.0,0.0,0.0,0.0,0.0,0.0,0.0,0.0,0.0,0.0,0.0,0.0,2.4197,2.4227,2.425,2.4317,2.4302,2.4333,2.5272,2.7303,2.7426,0.0,3.0381,3.0458,0.0,0.0,0.0,0.0,3.2336,3.2336,3.2321,3.2228,3.1012,3.0458,3.0458,0.0,0.0,0.0,0.0,3.2398,0.0,0.0,0.0,0.0,0.0,0.0,0.0,0.0,0.0,0.0,0.0,0.0,0.0,0.0,0.0,0.0,0.0,0.0,0.0,0.0,0.0,0.0,0.0,0.0,0.0,0.0,0.0,0.0,0.0,0.0,0.0,0.0,0.0,0.0,0.0,0.0,0.0,0.0,0.0,0.0,0.0,0.0,0.0,0.0,4.3197,4.2558,4.0957,4.1543,4.1595,4.0905,4.1561,4.1595,4.0888,4.0918,4.1117,4.1516,4.1516,4.1778,4.2257,4.2239,4.2279,4.232,4.3124,4.3497,4.3497,4.3497,4.3497,4.3497,4.3497,4.3497,4.3681,4.5314,4.5902,4.6122,0.0,0.0,0.0,0.0,0.0,0.0,0.0,0.0,0.0,0.0,0.0,0.0,0.0,2.3348,2.3392,2.3494,2.3638,2.3724,2.3724,2.4078,2.5241,2.7303,2.7396,2.835,3.0381,0.0,0.0,0.0,0.0,3.2151,3.2398,3.2398,3.2398,3.2351,3.1443,3.1043,3.1059,3.1289,0.0,0.0,3.2121,3.2136,0.0,0.0,0.0,0.0,0.0,0.0,0.0,0.0,0.0,0.0,0.0,0.0,0.0,0.0,0.0,0.0,0.0,0.0,0.0,0.0,0.0,0.0,0.0,0.0,0.0,0.0,0.0,0.0,0.0,0.0,0.0,0.0,0.0,0.0,0.0,0.0,0.0,0.0,0.0,0.0,0.0,0.0,0.0,0.0,0.0,4.3115,4.1664,4.1836,4.1647,4.0905,4.1147,4.1272,4.1283,4.1041,4.1255,4.1948,4.1648,4.1735,4.2198,4.2198,4.2378,4.2673,4.2995,4.3105,4.3142,4.3375,4.3497,4.3534,4.4066,4.4268,4.447,4.6085,4.6673,4.6838,0.0,0.0,0.0,0.0,0.0,0.0,0.0,0.0,0.0,0.0,0.0,0.0,0.0,0.0,2.3103,2.3254,2.3376,2.3554,2.3714,2.4164,2.5303,2.7304,2.7428,2.8404,3.0368,3.0897,0.0,0.0,0.0,0.0,0.0,0.0,3.2398,3.2367,3.1921,0.0,0.0,0.0,0.0,3.1443,0.0,3.2121,3.172,0.0,0.0,0.0,0.0,0.0,0.0,0.0,0.0,0.0,0.0,0.0,0.0,0.0,0.0,0.0,0.0,0.0,0.0,0.0,0.0,0.0,0.0,0.0,0.0,0.0,0.0,0.0,0.0,0.0,0.0,0.0,0.0,0.0,0.0,0.0,0.0,0.0,0.0,0.0,0.0,0.0,0.0,0.0,0.0,0.0,4.2078,4.1992,4.1647,4.0905,4.0888,4.1041,4.1283,4.1041,4.1163,4.1753,4.1445,4.1445,4.1753,4.2017,4.2296,4.2626,4.3018,4.3159,4.3105,4.3375,4.3644,4.3956,4.4488,4.4874,4.5278,4.6617,4.7113,4.7241,0.0,0.0,0.0,0.0,0.0,0.0,0.0,0.0,0.0,0.0,0.0,0.0,0.0,0.0,0.0,2.3564,2.3593,2.3851,2.4369,2.4603,2.5582,2.7334,2.7506,2.8468,3.0466,3.0495,0.0,0.0,0.0,0.0,0.0,0.0,3.2327,0.0,3.2327,3.1974,3.1405,0.0,3.2013,3.1474,0.0,3.2382,3.2367,0.0,0.0,0.0,3.3075,3.2921,0.0,0.0,0.0,0.0,0.0,0.0,0.0,0.0,0.0,0.0,0.0,0.0,0.0,0.0,0.0,0.0,0.0,0.0,0.0,0.0,0.0,0.0,0.0,0.0,0.0,0.0,0.0,0.0,0.0,0.0,0.0,0.0,0.0,0.0,0.0,0.0,0.0,0.0,4.4268,4.363,4.2112,4.1974,4.163,4.0905,4.0888,4.0888,4.0888,4.0888,4.0888,4.0888,4.0888,4.0888,4.0905,4.163,4.1957,4.204,4.3231,4.3632,4.3463,4.3534,4.403,4.471,4.4782,4.5259,4.603,4.6856,4.715,4.726,0.0,0.0,0.0,0.0,0.0,0.0,0.0,0.0,0.0,0.0,0.0,0.0,0.0,0.0,2.3173,2.3238,2.3741,2.4163,2.4382,2.5275,2.6422,2.791,2.8018,2.874,3.0257,3.0292,0.0,0.0,0.0,0.0,0.0,0.0,0.0,0.0,3.1043,3.094,3.085,3.1901,0.0,0.0,3.2321,3.2105,0.0,0.0,0.0,0.0,0.0,3.1736,0.0,0.0,3.3506,3.4306,0.0,0.0,0.0,0.0,0.0,0.0,3.6184,0.0,0.0,0.0,0.0,0.0,0.0,0.0,0.0,0.0,0.0,0.0,0.0,0.0,0.0,0.0,0.0,0.0,0.0,0.0,0.0,0.0,0.0,0.0,0.0,0.0,0.0,0.0,4.4778,4.4233,4.2923,4.1785,4.1095,4.0888,4.0888,4.0888,4.0888,4.0888,4.0888,4.0888,4.0888,4.0888,4.0888,4.1095,4.1353,4.1642,4.1988,4.2296,4.2649,4.4152,4.4847,4.514,4.6065,4.6581,4.6874,4.7682,4.7976,4.8012,0.0,0.0,0.0,0.0,0.0,0.0,2.1904,0.0,0.0,0.0,0.0,0.0,0.0,0.0,0.0,2.3245,2.3959,2.4515,2.4815,2.5591,2.6483,2.746,2.7852,2.8363,2.9035,2.9294,0.0,0.0,0.0,0.0,0.0,0.0,0.0,0.0,0.0,0.0,0.0,0.0,0.0,0.0,3.2272,0.0,0.0,3.1813,3.1404,0.0,0.0,0.0,3.2048,3.2342,3.3121,0.0,0.0,0.0,0.0,0.0,0.0,0.0,0.0,0.0,0.0,0.0,0.0,0.0,3.6938,3.7307,3.7754,0.0,0.0,0.0,0.0,0.0,0.0,0.0,0.0,0.0,0.0,0.0,0.0,0.0,0.0,0.0,0.0,4.4626,4.4737,4.4869,4.5032,4.4679,4.3699,4.2181,4.1336,4.1336,4.1043,4.0888,4.0888,4.0888,4.0888,4.0888,4.0888,4.0888,4.0905,4.1543,4.2012,4.223,4.2875,4.3278,4.3627,4.5027,4.5316,4.5006,4.6106,4.6712,4.7116,4.7773,4.7995,4.8035,0.0,0.0,0.0,2.3406,2.3406,2.3223,2.269,0.0,0.0,0.0,0.0,0.0,0.0,0.0,0.0,0.0,2.4302,2.4944,2.5528,2.5854,2.6256,2.6754,2.74,2.7695,2.7507,2.8161,2.8133,0.0,0.0,0.0,0.0,0.0,0.0,0.0,0.0,0.0,0.0,0.0,0.0,3.126,3.1905,3.2216,0.0,0.0,3.1879,0.0,3.2104,3.1936,3.1595,3.2104,3.2726,0.0,0.0,0.0,0.0,0.0,3.4906,0.0,0.0,0.0,0.0,0.0,0.0,0.0,3.7246,3.6923,3.6676,3.7353,0.0,0.0,0.0,0.0,0.0,0.0,0.0,0.0,0.0,0.0,0.0,0.0,0.0,0.0,4.4587,4.4737,4.4776,4.4776,4.4947,4.487,4.432,4.2819,4.1992,4.1992,4.1267,4.0888,4.0888,4.0888,4.0888,4.0888,4.0888,4.0922,4.1043,4.2386,4.3059,4.3301,4.4492,4.5096,4.5182,4.573,4.5441,4.4696,4.5471,4.6248,4.6945,4.738,4.7601,4.7733,0.0,0.0,0.0,2.4543,2.4622,2.4439,2.3864,0.0,0.0,0.0,0.0,0.0,0.0,0.0,0.0,0.0,2.5219,2.5844,2.6549,2.6791,2.7183,2.7784,2.757,2.7647,2.7958,2.8675,2.8498,2.7413,0.0,0.0,0.0,0.0,0.0,0.0,0.0,0.0,0.0,0.0,0.0,2.934,3.0425,0.0,3.0866,3.0866,3.1116,3.1537,3.1652,3.1595,3.1537,0.0,3.2083,3.269,0.0,0.0,0.0,0.0,0.0,0.0,0.0,0.0,0.0,0.0,0.0,0.0,3.6661,3.6584,3.6676,0.0,3.7507,0.0,0.0,0.0,0.0,0.0,0.0,0.0,0.0,0.0,0.0,0.0,0.0,0.0,4.4587,4.4626,4.4682,4.4776,4.4485,4.4337,4.4285,4.2819,4.1992,4.1992,4.1267,4.0888,4.0888,4.0888,4.0888,4.0888,4.0888,4.1198,4.1767,4.1457,4.2009,4.3197,4.2802,4.3009,4.3698,4.4386,4.4997,4.5543,4.605,4.6604,4.7085,4.7181,4.7622,4.8172,0.0,0.0,0.0,2.5393,2.5393,2.5105,2.4243,2.4112,0.0,0.0,0.0,0.0,0.0,0.0,0.0,0.0,0.0,0.0,0.0,2.6844,2.7019,2.73,2.7158,2.7131,2.7314,2.7967,2.8179,2.7857,0.0,0.0,0.0,0.0,0.0,0.0,0.0,0.0,0.0,0.0,2.9348,2.9198,3.0101,0.0,3.0524,3.0524,3.051,3.0555,3.0881,3.1248,3.1537,3.1823,3.239,0.0,0.0,3.3136,3.349,0.0,3.4183,3.4522,0.0,0.0,0.0,3.5984,0.0,0.0,0.0,3.6492,3.6676,3.7353,3.723,3.72,0.0,0.0,0.0,0.0,0.0,0.0,0.0,0.0,0.0,0.0,0.0,0.0,4.4621,4.4587,4.4682,4.4886,4.469,4.4644,4.4854,4.3751,4.313,4.313,4.2026,4.144,4.144,4.106,4.0888,4.0888,4.125,4.163,4.1992,4.2388,4.2802,4.3214,4.3147,4.3147,4.3283,4.4026,4.446,4.4809,4.5587,4.6074,4.6284,4.6843,4.7265,4.765,0.0,0.0,0.0,2.5743,2.5692,2.5345,2.4317,2.4176,0.0,0.0,0.0,0.0,0.0,0.0,0.0,0.0,0.0,0.0,0.0,0.0,2.6867,2.6988,2.7201,2.7201,2.6988,2.784,2.8312,2.8462,0.0,0.0,0.0,0.0,0.0,0.0,0.0,0.0,0.0,0.0,0.0,2.9234,0.0,3.0147,3.0147,3.0147,2.9889,2.9566,3.0147,3.0763,3.1364,3.1864,0.0,3.3135,3.2711,3.3352,0.0,0.0,0.0,0.0,0.0,0.0,0.0,0.0,0.0,3.6492,0.0,0.0,0.0,3.72,0.0,0.0,0.0,0.0,0.0,0.0,0.0,0.0,0.0,0.0,0.0,0.0,0.0,0.0,0.0,4.4705,4.489,4.4995,4.5115,4.5257,4.5371,4.4699,4.4285,4.4285,4.2923,4.2216,4.2216,4.1612,4.1319,4.1336,4.1923,4.2216,4.225,4.3337,4.3646,4.3249,4.3647,4.3578,4.3266,4.382,4.4019,4.3965,4.4956,4.539,4.5577,4.6354,4.6783,4.6999,2.5119,2.5071,0.0,0.0,2.5341,2.5123,2.4449,2.4353,0.0,0.0,0.0,0.0,0.0,0.0,0.0,0.0,0.0,0.0,2.8422,0.0,0.0,2.8879,2.9118,2.9104,2.8919,3.0159,3.0323,2.9107,3.039,3.0432,0.0,0.0,0.0,0.0,2.9618,0.0,0.0,0.0,2.8329,0.0,2.8589,2.883,0.0,2.883,2.9107,2.9518,2.9656,3.0101,3.0629,0.0,3.1545,3.2688,0.0,3.3398,0.0,0.0,0.0,0.0,0.0,0.0,0.0,0.0,3.6876,0.0,0.0,0.0,3.6507,3.6599,0.0,0.0,0.0,0.0,0.0,0.0,0.0,0.0,0.0,0.0,0.0,0.0,0.0,0.0,0.0,4.5179,4.5411,4.5029,4.561,4.5805,4.5405,4.4699,4.4285,4.4285,4.3475,4.3076,4.3076,4.3007,4.2955,4.2955,4.3042,4.3076,4.3076,4.2492,4.2578,4.318,4.2509,4.2595,4.3232,4.3318,4.368,4.43,4.4771,4.5258,4.5676,4.5811,4.6302,4.6908,0.0,0.0,0.0,0.0,2.4169,2.4181,2.3586,2.3766,0.0,0.0,0.0,0.0,0.0,0.0,0.0,0.0,0.0,2.7379,0.0,0.0,0.0,2.8572,2.8973,2.9147,2.9215,3.0104,3.0481,3.0263,3.0972,3.1205,0.0,0.0,0.0,0.0,3.0283,0.0,2.9102,0.0,0.0,0.0,0.0,0.0,0.0,2.8587,2.8766,2.9058,2.9407,2.9704,3.0011,0.0,3.1738,0.0,0.0,0.0,0.0,0.0,0.0,0.0,0.0,0.0,0.0,0.0,0.0,0.0,0.0,0.0,3.6599,0.0,0.0,0.0,0.0,0.0,0.0,0.0,3.8599,0.0,0.0,0.0,0.0,0.0,0.0,0.0,0.0,0.0,0.0,0.0,4.564,4.5836,4.5282,4.5061,4.4941,4.4941,4.4199,4.382,4.382,4.2923,4.2475,4.2475,4.2475,4.2475,4.2492,4.2612,4.2612,4.2457,4.213,4.1923,4.1919,4.2302,4.294,4.3732,4.4331,4.4948,4.5579,4.587,4.6224,4.6554,0.0,0.0,0.0,0.0,0.0,2.3382,2.2951,0.0,0.0,0.0,0.0,0.0,2.4616,2.5618,0.0,0.0,0.0,2.7185,0.0,0.0,2.8076,0.0,0.0,0.0,0.0,3.0265,3.0872,3.133,3.1473,3.1762,0.0,0.0,0.0,0.0,0.0,2.9998,2.9699,0.0,0.0,2.8587,2.8587,2.8587,2.8587,2.8587,2.8587,2.8651,2.9107,2.9282,2.9393,3.0569,3.1545,0.0,3.2361,0.0,0.0,0.0,0.0,0.0,3.566,0.0,0.0,0.0,0.0,0.0,0.0,0.0,0.0,0.0,0.0,0.0,0.0,0.0,0.0,0.0,0.0,0.0,0.0,0.0,0.0,0.0,0.0,0.0,0.0,0.0,0.0,0.0,0.0,4.6114,4.5245,4.5318,4.5423,4.5423,4.4889,4.4492,4.4285,4.3164,4.2509,4.2302,4.2302,4.2199,4.2009,4.2578,4.2423,4.1681,4.1681,4.1492,4.1233,4.1767,4.2578,4.3577,4.4061,4.4751,4.5476,4.5854,4.6005,4.6038,0.0,2.1662,0.0,0.0,0.0,0.0,0.0,0.0,0.0,0.0,0.0,0.0,0.0,0.0,0.0,0.0,0.0,2.6305,2.8552,0.0,2.8544,0.0,0.0,3.1258,0.0,0.0,3.2128,3.2155,3.2155,3.2155,0.0,0.0,0.0,0.0,0.0,2.9835,3.0269,2.8505,2.8085,2.8587,2.8587,2.8587,2.8587,0.0,2.8587,2.8587,2.8651,0.0,0.0,2.9331,3.0425,0.0,0.0,0.0,0.0,0.0,0.0,0.0,0.0,0.0,0.0,3.7461,0.0,0.0,0.0,0.0,3.6676,0.0,0.0,0.0,0.0,0.0,0.0,0.0,0.0,0.0,0.0,0.0,0.0,0.0,0.0,0.0,0.0,0.0,0.0,0.0,0.0,0.0,4.5262,4.5318,4.5423,4.5423,4.5406,4.5027,4.4285,4.4234,4.3854,4.318,4.318,4.2733,4.1992,4.2009,4.1612,4.0922,4.0922,4.1319,4.1957,4.1974,4.2871,4.4251,4.4268,4.4751,4.5423,4.5423,4.5423,4.5423,0.0,0.0,0.0,0.0,0.0,0.0,0.0,2.3001,0.0,0.0,0.0,0.0,0.0,0.0,2.5382,0.0,0.0,2.5795,2.7105,2.7557,0.0,0.0,0.0,3.0308,0.0,0.0,0.0,0.0,0.0,0.0,0.0,0.0,0.0,0.0,0.0,3.0351,0.0,0.0,0.0,0.0,0.0,2.8831,2.9129,0.0,0.0,2.8587,2.8587,2.8587,0.0,2.9282,3.0093,3.0964,3.1633,3.2588,3.346,3.369,3.4106,0.0,0.0,0.0,3.6384,3.7277,0.0,0.0,0.0,0.0,0.0,0.0,0.0,0.0,0.0,0.0,0.0,0.0,0.0,0.0,0.0,0.0,4.073,0.0,0.0,0.0,0.0,0.0,0.0,0.0,0.0,0.0,0.0,4.5042,4.5199,4.4682,4.5165,4.5061,4.4285,4.3802,4.3147,4.2388,4.1888,4.1509,4.1267,4.1767,4.1854,4.1647,4.2164,4.2593,4.2768,4.2768,4.3421,4.4285,4.4285,4.4751,4.5423,4.5423,4.5423,4.5423,2.2914,0.0,0.0,0.0,0.0,0.0,0.0,0.0,0.0,0.0,2.3412,0.0,2.3694,0.0,2.4587,0.0,2.4647,2.5016,2.6346,2.6565,0.0,2.8302,2.9039,0.0,0.0,0.0,0.0,0.0,0.0,3.187,0.0,0.0,0.0,0.0,0.0,0.0,0.0,0.0,2.894,0.0,0.0,2.8817,0.0,0.0,2.8722,2.8872,0.0,2.8587,2.8716,2.9282,2.995,3.0644,3.1306,3.2239,3.3044,3.3044,3.3537,3.4183,3.4629,3.5276,0.0,3.663,3.6815,0.0,3.74,0.0,0.0,0.0,0.0,0.0,0.0,0.0,0.0,0.0,0.0,0.0,0.0,4.0723,0.0,0.0,0.0,0.0,0.0,0.0,0.0,0.0,0.0,0.0,0.0,0.0,4.5129,4.4699,4.5165,4.5061,4.4285,4.3594,4.2768,4.1974,4.1233,4.1026,4.1285,4.1767,4.2147,4.244,4.294,4.337,4.3611,4.3611,4.4009,4.4682,4.4682,4.4992,4.5423,4.5423,4.5423,4.5423,0.0,0.0,0.0,0.0,2.3034,0.0,0.0,0.0,2.3001,0.0,2.3001,2.3001,2.3001,2.3001,2.3276,2.3975,2.3423,0.0,2.6126,2.5468,0.0,0.0,2.8265,2.8742,2.904,0.0,0.0,0.0,0.0,0.0,0.0,0.0,0.0,0.0,3.0079,0.0,2.9442,2.8872,2.8627,2.8587,2.8587,2.8614,2.8627,2.86,2.8953,2.9401,2.8804,2.8587,2.8716,2.9282,2.995,3.0644,3.1248,3.1879,3.2398,3.2398,3.2844,3.3352,3.3352,3.4845,3.6245,3.563,0.0,0.0,0.0,0.0,3.6861,0.0,0.0,0.0,0.0,0.0,0.0,0.0,0.0,0.0,0.0,0.0,0.0,0.0,0.0,0.0,0.0,0.0,0.0,0.0,0.0,0.0,0.0,0.0,4.523,4.5372,4.5406,4.5061,4.4285,4.3629,4.2819,4.2043,4.1336,4.1371,4.2043,4.2078,4.2509,4.3283,4.3318,4.3682,4.4337,4.4337,4.4768,4.5423,4.5423,4.5423,4.5423,4.5423,4.5423,4.5423,2.4006,2.4104,2.4104,0.0,2.3493,2.3121,0.0,0.0,0.0,0.0,2.3001,2.3001,2.3001,2.3001,2.3075,2.3276,2.3139,0.0,0.0,0.0,0.0,2.5931,2.6317,2.681,2.7301,2.8699,0.0,3.0171,0.0,0.0,3.1951,0.0,0.0,0.0,0.0,0.0,2.9469,2.9306,2.8994,2.8587,2.8587,2.8858,0.0,0.0,2.8953,2.9401,2.8804,2.8587,2.8651,2.8766,2.9546,3.0524,3.0703,3.1522,3.2398,3.2398,3.2521,3.2659,3.2659,3.3798,3.5076,3.5399,3.6122,3.6892,0.0,0.0,0.0,0.0,0.0,0.0,0.0,0.0,0.0,0.0,0.0,0.0,0.0,0.0,0.0,4.1288,0.0,0.0,0.0,0.0,0.0,0.0,0.0,0.0,0.0,0.0,0.0,4.4596,4.513,4.5061,4.4285,4.4096,4.3663,4.2921,4.2731,4.2681,4.2888,4.344,4.3802,4.4027,4.4596,4.4958,4.513,4.513,4.5251,4.5423,4.5423,4.5423,4.5423,4.5423,4.5423,4.5423,2.4388,0.0,0.0,2.4486,0.0,0.0,2.3722,0.0,0.0,2.3023,2.3001,0.0,2.3001,2.3001,2.3001,2.3001,2.3001,0.0,0.0,0.0,0.0,2.5346,2.5264,2.5545,2.6308,2.7132,0.0,2.9204,0.0,0.0,3.1789,0.0,0.0,0.0,0.0,3.0676,0.0,2.9998,2.9536,2.8953,2.8695,0.0,0.0,2.8722,2.8804,2.9048,2.8709,2.8587,2.8651,2.8881,2.9656,3.0569,3.0822,3.1637,3.2398,3.2398,3.2398,3.2398,3.2398,3.3183,3.4168,3.4876,3.5553,3.6307,3.7277,3.6984,3.6569,0.0,0.0,0.0,0.0,0.0,0.0,0.0,0.0,0.0,0.0,0.0,0.0,0.0,0.0,0.0,0.0,0.0,0.0,0.0,0.0,0.0,0.0,0.0,0.0,4.4268,4.5232,4.5438,4.4716,4.4664,4.4354,4.3698,4.337,4.3387,4.3664,4.4096,4.4458,4.4803,4.5234,4.5423,4.5423,4.5423,4.5423,4.5423,4.5423,4.5423,4.5423,4.5423,4.5423,4.5423,0.0,0.0,0.0,0.0,0.0,0.0,0.0,2.3864,0.0,2.3078,0.0,2.3078,2.3012,2.3001,2.3001,2.3001,0.0,2.3276,2.3902,2.335,2.3632,2.5098,2.4541,2.4624,2.5533,2.5746,0.0,0.0,0.0,2.9984,3.1409,0.0,0.0,0.0,0.0,0.0,0.0,3.054,2.993,0.0,2.8804,2.8587,2.8587,2.8587,2.8587,2.8587,2.8587,2.8587,2.8716,2.9219,2.9889,3.0584,3.119,3.1823,3.2398,3.2398,3.2398,3.2398,3.2398,3.289,3.3552,3.4183,3.4906,3.5799,3.6969,3.6846,3.6661,3.7246,3.6907,3.6522,0.0,0.0,0.0,0.0,0.0,0.0,0.0,0.0,0.0,0.0,0.0,0.0,0.0,0.0,0.0,0.0,0.0,0.0,0.0,0.0,0.0,4.4267,4.5503,4.5863,4.5194,0.0,4.4938,4.4423,4.3768,4.3802,4.4423,4.4423,4.4785,4.5423,4.5423,4.5423,4.5423,4.5423,4.5423,4.5423,4.5423,4.5423,4.5423,4.5423,4.5423,4.5423,0.0,0.0,0.0,0.0,0.0,2.548,2.4989,2.4596,2.4028,2.3121,2.3351,2.3449,2.3045,2.3001,2.3001,2.3001,2.3001,0.0,0.0,0.0,0.0,2.3423,2.3276,2.3632,2.4397,2.5661,2.708,0.0,2.9984,3.1124,3.2019,0.0,0.0,0.0,0.0,0.0,3.0527,2.9903,0.0,2.8736,2.8627,2.8587,2.8587,2.8587,2.8587,2.8587,2.8587,2.8587,2.8587,2.8702,2.9546,3.0524,3.0644,3.145,3.2398,3.2398,3.2398,3.2398,3.2398,3.289,3.3429,3.3567,3.4537,3.5537,3.5784,3.6184,3.6522,3.6645,3.6569,3.6661,3.7215,0.0,0.0,0.0,0.0,0.0,0.0,0.0,0.0,0.0,0.0,0.0,0.0,0.0,0.0,0.0,0.0,0.0,0.0,0.0,0.0,0.0,4.5316,0.0,0.0,0.0,4.5302,4.5234,4.5096,4.5096,4.5234,4.5234,4.5303,4.5423,4.5423,4.5423,4.5423,4.5423,4.5423,4.5423,4.5423,4.5423,4.5423,4.5423,4.5423,4.5423,0.0,0.0,0.0,0.0,0.0,0.0,0.0,2.5196,0.0,2.3897,2.3744,2.3635,2.3405,2.3154,2.3001,2.3001,2.3001,2.3001,2.3001,2.3001,2.3001,2.3001,2.3001,0.0,2.3486,2.4445,2.6021,2.8154,2.8749,3.0157,3.2182,0.0,0.0,0.0,0.0,3.1517,0.0,0.0,0.0,2.9021,2.8722,2.8587,2.8627,2.894,2.8858,2.8627,2.894,2.8858,2.8587,2.8587,2.9247,3.0011,3.0389,3.1175,3.1992,3.2342,3.2398,3.2398,3.2398,3.2628,3.2952,3.3306,3.4183,3.5045,3.5399,3.5999,3.6492,3.6492,3.6492,3.6692,3.7384,3.7507,0.0,0.0,0.0,0.0,0.0,0.0,0.0,0.0,0.0,0.0,0.0,0.0,0.0,0.0,0.0,0.0,0.0,0.0,0.0,0.0,0.0,0.0,0.0,0.0,0.0,4.5423,4.5318,4.53,4.5423,4.5423,4.5423,4.5423,4.5423,4.5423,4.5423,4.5423,4.5423,4.5423,4.5423,4.5423,4.5423,4.5423,4.5423,4.5423,0.0,2.628,0.0,0.0,2.6037,0.0,2.5524,2.5721,2.5557,2.4607,2.4137,2.3853,2.3744,2.3296,2.3001,2.3001,2.3001,2.3001,2.3001,2.3001,2.3001,2.3001,2.3001,2.3001,2.3001,2.3434,2.4873,0.0,2.7324,2.8944,0.0,0.0,0.0,0.0,0.0,0.0,0.0,0.0,2.9849,2.9252,2.8777,2.8587,2.8655,2.9252,2.9184,2.8831,2.9306,2.917,2.8763,2.8627,2.8994,2.9628,3.0269,3.094,3.1595,3.2216,3.2398,3.2398,3.2398,3.2398,3.2521,3.3059,3.3844,3.4614,3.5153,3.5907,3.6492,3.6492,3.6492,3.6661,3.7184,3.7292,0.0,0.0,0.0,0.0,0.0,0.0,0.0,0.0,0.0,0.0,0.0,0.0,0.0,0.0,0.0,4.1402,4.0951,4.3093,4.4177,0.0,0.0,4.4992,4.498,0.0,4.574,0.0,4.53,4.53,4.5423,4.5423,4.5423,4.5423,4.5423,4.5423,4.5423,4.5423,4.5423,4.5423,4.5423,4.5423,4.5423,4.5423,4.5423,4.5423,0.0,0.0,0.0,0.0,0.0,0.0,2.6431,2.6157,2.5557,2.4607,2.4454,2.4246,2.3777,2.3296,2.3001,2.3001,2.3001,2.3001,2.3001,2.3001,2.3001,2.3001,2.3001,2.3001,2.3001,2.3694,2.4687,0.0,0.0,2.8727,0.0,0.0,0.0,0.0,0.0,0.0,0.0,2.9564,2.9224,2.8668,2.8614,2.8587,2.8655,2.9252,2.9442,2.9401,2.9455,2.9442,2.9306,2.8763,2.8994,2.9628,3.0269,3.094,3.1595,3.2216,3.2398,3.2398,3.2398,3.2398,3.2413,3.2475,3.349,3.4491,3.4552,3.5568,3.6492,3.6492,3.6492,3.6507,3.6569,3.6584,3.6799,0.0,0.0,0.0,0.0,0.0,0.0,0.0,0.0,0.0,0.0,3.8675,0.0,0.0,4.0821,4.2469,4.3081,4.287,4.3259,4.445,0.0,4.4936,4.4823,4.5133,4.5262,4.5247,4.5318,4.5371,4.5423,4.5423,4.5423,4.5423,4.5423,4.5423,4.5423,4.5423,4.5423,4.5423,4.5423,4.5423,4.5423,4.5423,4.5423,4.5423,0.0,0.0,0.0,0.0,0.0,0.0,0.0,2.6026,2.5764,2.5382,2.5087,2.4825,2.4618,2.4181,2.3766,2.3471,2.3438,2.3307,2.3023,2.3001,2.3001,2.3001,2.3001,2.3001,2.3001,2.3508,2.4384,0.0,0.0,0.0,0.0,0.0,0.0,0.0,0.0,2.993,2.9482,2.9482,2.955,2.9686,2.9686,2.9686,2.9754,3.0337,3.0351,3.0079,3.0446,3.0093,2.9442,2.9197,2.9053,2.9121,3.0147,3.0703,3.1116,3.2104,3.2398,3.2398,3.2398,3.2398,3.2398,3.2398,3.3444,3.4475,3.4475,3.5522,3.6492,3.6492,3.6492,3.6492,3.6492,3.6492,3.6584,0.0,0.0,0.0,0.0,0.0,0.0,0.0,0.0,0.0,0.0,0.0,0.0,0.0,0.0,4.0883,4.1527,4.1321,4.2061,4.3954,0.0,4.314,4.4787,4.4498,4.4597,4.5086,4.5032,4.5103,4.514,4.5247,4.53,4.5423,4.5423,4.5423,4.5423,4.5423,4.5423,4.5423,4.5423,4.5423,4.5423,4.5423,4.5423,4.5423,2.7288,0.0,2.7501,0.0,2.6693,2.6398,2.6321,2.6081,2.6005,2.6278,2.5775,2.5327,2.5185,2.476,2.4279,2.3777,2.3733,2.3525,2.3034,2.3001,2.3001,2.3001,2.3001,0.0,2.315,2.3372,2.4033,2.5321,2.6593,0.0,0.0,0.0,0.0,0.0,2.974,2.974,2.974,2.974,3.0011,3.0405,3.0405,3.0405,3.0473,3.107,3.1042,3.073,3.1151,3.0635,2.9726,2.9536,2.9089,2.883,3.0101,3.0524,3.0748,3.2048,3.2398,3.2398,3.2398,3.2398,3.2398,3.2398,3.3444,3.4475,3.4475,3.5522,3.6492,3.6492,3.6492,3.6492,3.6492,3.6492,3.6553,3.6753,0.0,0.0,0.0,0.0,0.0,0.0,0.0,3.4568,3.4491,0.0,0.0,0.0,0.0,0.0,4.0571,4.0663,0.0,0.0,0.0,0.0,0.0,4.3893,4.4088,4.4631,4.4814,4.494,4.4978,4.5086,4.5194,4.5371,4.5371,4.5353,4.5423,4.5423,4.5423,4.5423,4.5423,4.5423,4.5458,4.5682,4.5768,4.5803,2.7564,2.7282,2.6944,2.7861,2.6846,2.6223,2.7151,2.6496,2.6234,2.7173,2.6474,2.571,2.5229,2.476,2.4279,2.3777,2.3733,2.3525,2.3034,2.3001,2.3001,0.0,0.0,2.315,2.3593,2.3224,2.379,2.5324,0.0,0.0,2.8166,0.0,3.0185,3.0405,3.0405,3.0405,3.0405,3.0405,3.0405,3.0405,3.0405,3.0405,3.0473,3.107,3.13,3.1287,3.13,3.0907,3.031,2.9686,2.9089,2.883,3.0101,3.0524,3.0748,3.2048,3.2398,3.2398,3.2398,3.2398,3.2398,3.2398,3.3444,3.4475,3.4475,3.5522,3.6492,3.6492,3.6492,3.6492,3.6492,3.6492,3.6707,3.7384,0.0,0.0,0.0,0.0,0.0,0.0,3.7046,3.6661,3.466,0.0,0.0,0.0,0.0,0.0,0.0,0.0,0.0,4.1509,4.2125,0.0,4.2616,4.3408,4.3781,4.3839,4.4614,4.4978,4.4978,4.4978,4.5086,4.5177,4.5177,4.53,4.5423,4.5423,4.5423,4.5423,4.5423,4.5423,4.5527,4.6303,4.6596,4.67,2.708,2.7435,2.7577,2.7555,2.7446,2.725,2.69,2.6856,2.6856,2.6846,2.6583,2.6212,2.5721,2.5535,2.5251,0.0,2.4421,2.4039,0.0,2.3187,2.3143,2.3482,2.3504,2.3744,2.4161,2.4382,2.4678,2.5123,0.0,0.0,0.0,3.0414,3.0589,3.0405,3.0405,3.0635,3.1015,3.1015,3.1246,3.1612,3.1612,3.1612,3.1639,3.1829,3.1897,3.1897,3.1897,3.1517,3.0975,3.0785,3.0038,2.9381,3.0178,3.0444,3.0703,3.1537,3.2048,3.2398,3.2398,3.2398,3.2398,3.2398,3.3444,3.4475,3.4475,3.5522,3.6492,3.6492,3.6492,3.6492,3.6492,3.6861,3.7246,3.7461,3.7892,0.0,0.0,0.0,0.0,0.0,3.5306,3.4814,0.0,3.4722,0.0,0.0,0.0,0.0,0.0,0.0,0.0,0.0,4.0571,0.0,4.2616,4.283,4.3136,4.3571,4.435,4.4793,4.4886,4.4886,4.494,4.5086,4.5177,4.523,4.5247,4.5371,4.5423,4.5423,4.5423,4.5423,4.5527,4.632,4.6613,4.6717,2.7551,2.7882,2.7938,2.7632,2.7687,2.7632,2.7217,2.725,2.7337,2.7424,2.7108,2.6769,2.6463,2.6278,0.0,2.5229,2.476,2.4355,2.4039,2.3547,2.3493,2.3995,2.4017,2.4237,2.469,0.0,0.0,2.5527,2.6883,2.84,2.9928,3.0,3.029,3.0605,3.0674,3.107,3.1626,3.1626,3.1843,3.2182,3.2182,3.2182,3.2182,3.2182,3.2182,3.2182,3.2182,3.1789,3.13,3.13,3.0635,2.9848,2.9986,3.0397,3.095,3.1366,3.1936,3.2398,3.2398,3.2582,3.2782,3.2782,3.3814,3.4922,3.5168,3.5891,3.6492,3.6492,3.6492,3.6492,3.6492,3.7046,3.7507,3.7507,3.8061,3.8277,3.76,0.0,0.0,0.0,0.0,0.0,0.0,3.5106,0.0,0.0,0.0,0.0,0.0,0.0,0.0,4.0139,3.9985,0.0,4.1815,4.1994,4.2458,4.3136,4.4121,4.4626,4.472,4.472,4.4776,4.494,4.5086,4.5123,4.523,4.5353,4.5423,4.5405,4.5751,4.5872,4.5992,4.7062,4.7441,4.7562,2.8516,2.8342,2.8036,0.0,2.7687,0.0,2.7971,2.7687,2.7719,2.8593,2.7894,2.7304,2.7272,2.6856,2.6212,2.5306,0.0,0.0,0.0,2.4061,2.4006,2.4519,2.4541,2.4689,2.5072,2.4801,2.5172,2.6241,2.6645,2.7619,2.8944,2.88,2.9542,3.107,3.1284,3.1667,3.2182,3.2182,3.2182,3.2182,3.2182,3.2182,3.2182,3.2182,3.2182,3.2182,3.2182,3.1829,3.1355,3.1355,3.0961,3.0364,2.9781,3.0443,3.1395,3.1441,3.191,3.2459,3.2459,3.2952,3.3475,3.3475,3.4491,3.566,3.6338,3.6492,3.6492,3.6492,3.6492,3.6507,3.6553,3.7107,3.7584,3.7631,3.82,3.84,3.7677,0.0,0.0,0.0,0.0,0.0,0.0,3.6476,3.6569,0.0,0.0,0.0,0.0,0.0,4.0278,3.9539,4.017,4.0524,4.0524,4.1142,4.1836,4.2583,4.3931,4.4587,4.4587,4.4587,4.4682,4.4776,4.494,4.5121,4.5262,4.5386,4.5474,4.5648,4.6389,4.6682,4.6855,4.8286,4.8821,4.8941,0.0,0.0,2.8036,2.8036,2.8244,2.8331,2.808,2.8254,2.8364,2.8222,2.7687,2.7184,2.6824,2.6365,2.5983,2.5742,2.5295,2.5011,2.5011,2.4574,2.4519,2.4989,2.5011,2.5256,2.57,2.5946,2.6163,2.6322,2.7807,2.8556,2.8761,3.0025,3.1003,3.1688,3.1761,3.1901,3.2182,3.2182,3.2182,3.2182,3.2182,3.2182,3.2182,3.2182,3.2182,3.2182,3.2182,3.2087,3.1965,3.1965,3.1585,3.1056,3.0907,3.1046,3.1275,3.0843,3.1882,3.3167,3.3167,3.3675,3.4214,3.4214,3.486,3.566,3.6338,3.6492,3.6492,3.6492,3.6492,3.6661,3.7169,3.7815,3.8431,3.8954,3.9616,3.9631,3.8431,3.8138,0.0,0.0,3.6276,3.6091,3.5045,3.6353,3.7261,0.0,0.0,0.0,0.0,4.0878,4.0786,3.9554,4.017,4.0524,4.0524,4.1142,4.2078,4.3257,4.4179,4.4587,4.4587,4.4587,4.4643,4.4626,4.4776,4.5248,4.5925,4.6035,4.6505,4.7182,4.7389,4.7458,4.7562,4.8476,4.8821,4.8941,2.78,2.8088,2.8375,2.8375,2.8582,2.8669,2.8407,2.8593,2.8659,2.8396,2.8134,2.7708,2.702,2.6704,2.6463,2.6256,2.5579,2.5262,2.5491,2.5273,2.5349,2.5819,2.6037,2.6278,2.654,2.6576,2.664,2.6772,2.7359,2.8136,2.9099,2.9923,3.0771,3.1743,3.1963,3.2258,3.2562,3.2291,3.2494,3.2942,3.2399,3.2345,3.2548,3.2291,3.2182,3.2182,3.2182,3.2182,3.2182,3.2182,3.1965,3.1653,3.1382,3.1709,3.2074,3.1546,3.2301,3.3437,3.3833,3.4398,3.5014,3.5322,3.5907,3.6507,3.6861,3.7184,3.7415,3.7415,3.7415,3.7523,3.7892,3.8523,3.9093,3.9462,3.9831,3.9708,3.8662,3.8246,0.0,3.6538,3.6738,3.6784,3.6368,3.7323,3.8092,3.84,0.0,0.0,4.0493,4.1217,4.1109,4.0016,4.0662,4.0863,4.0524,4.1459,4.2493,4.3584,4.4289,4.4925,4.5585,4.5246,4.528,4.5568,4.5399,4.558,4.5993,4.6144,4.6512,4.703,4.7791,4.8122,4.8208,4.9022,4.9355,4.9424,2.8757,2.8757,2.8757,2.8757,2.8757,2.8757,2.8757,2.8757,2.8757,2.8757,2.8691,2.8331,2.7512,2.7359,2.7151,2.6769,2.5972,2.5677,2.6092,2.6114,2.6299,2.6715,2.7108,2.7315,2.7315,2.6867,2.6749,2.7136,2.6573,2.7406,2.9459,2.9344,3.0139,3.1596,3.1963,3.2434,3.3023,3.2521,3.2942,3.3774,3.2752,3.2616,3.2996,3.2399,3.2182,3.2182,3.2182,3.2182,3.2182,3.2182,3.2182,3.2087,3.1585,3.2208,3.3068,3.2796,3.3084,3.3709,3.4451,3.5122,3.5799,3.6476,3.7076,3.7523,3.7631,3.8092,3.8508,3.8508,3.8508,3.8539,3.8646,3.9139,3.9554,3.9647,3.9677,3.94,3.8616,0.0,3.7615,3.7507,3.7507,3.7769,3.8446,3.86,3.8908,3.9477,3.9616,3.9924,4.0493,4.1309,4.1432,4.0709,4.1386,4.1401,4.0693,4.1995,4.299,4.3733,4.4515,4.5568,4.6769,4.616,4.621,4.6752,4.6242,4.6078,4.6238,4.6334,4.6476,4.6754,4.8151,4.8723,4.885,4.9636,4.9935,4.9935,2.8757,2.8757,2.8757,2.8757,2.8757,2.8757,2.8757,2.8757,2.8757,2.8757,2.8407,2.8091,2.7938,2.7555,2.7282,2.7206,2.7075,2.7009,2.7086,2.7086,2.713,2.7206,2.7272,2.7315,2.7315,2.6867,2.6583,2.6678,2.7615,2.8187,2.8664,3.0012,3.0885,3.1347,3.1596,3.2152,3.2839,3.2969,3.3322,3.3801,3.32,3.2983,3.2996,3.2399,3.2182,3.2182,3.2182,3.2182,3.2182,3.2182,3.2182,3.2155,3.2074,3.2177,3.2552,3.3715,3.4089,3.4368,3.5141,3.5814,3.6492,3.7169,3.7415,3.7646,3.8231,3.8431,3.8508,3.8508,3.8508,3.8677,3.9262,3.9447,3.9708,4.0278,4.037,3.9939,3.8677,0.0,3.8138,3.7569,3.7507,3.7769,3.8446,3.9031,3.94,3.9508,4.0047,4.0416,4.0524,4.1755,4.214,4.1447,4.2094,4.2125,4.1447,4.2826,4.3572,4.3749,4.5551,4.6566,4.6786,4.6667,4.6684,4.6786,4.6726,4.7073,4.775,4.775,4.826,4.8992,4.9274,4.9376,4.9376,4.9674,4.9784,4.9784,2.8757,2.8757,2.8757,2.8757,2.8757,2.8757,2.8757,2.8757,2.8757,2.8757,2.856,2.8331,2.8069,2.7839,2.7708,2.7708,2.7708,2.7818,2.8069,2.785,2.7708,2.7708,2.7949,2.7971,2.7708,2.7239,2.7041,2.729,2.7579,2.8199,2.9147,3.0012,3.081,3.1434,3.1669,3.2213,3.2976,3.2725,3.3295,3.4312,3.3078,3.2969,3.343,3.2521,3.2182,3.2182,3.2182,3.2182,3.2182,3.2182,3.2182,3.2182,3.2182,3.2444,3.2903,3.3492,3.4581,3.5608,3.635,3.6538,3.6738,3.7784,3.8046,3.8215,3.8908,3.9339,3.9601,3.9601,3.9601,3.9693,4.0001,4.0062,4.017,4.0478,4.0524,0.0,0.0,3.9046,3.8939,3.8616,3.8585,3.8846,3.9524,3.9878,4.0062,4.0062,4.0355,4.0693,4.1078,4.2063,4.2617,4.2663,4.2633,4.2463,4.214,4.3169,4.4069,4.4837,4.5765,4.6814,4.797,4.7581,4.7614,4.7953,4.7564,4.764,4.8005,4.8005,4.8226,4.8685,4.9154,4.935,4.935,4.953,4.9649,4.9708,2.8757,2.8757,2.8757,2.8757,2.8757,2.8757,2.8757,2.8757,2.8757,2.8757,2.8757,2.8615,2.8244,2.8211,2.8211,2.8211,2.8211,2.8364,2.8735,2.8407,2.8211,2.8211,2.856,2.8582,2.8211,2.7621,2.7622,2.8299,2.7706,2.8411,3.008,3.0342,3.0916,3.1734,3.2078,3.261,3.3254,3.2928,3.358,3.4706,3.32,3.305,3.3634,3.2576,3.2182,3.2182,3.2182,3.2182,3.2182,3.2182,3.2182,3.2182,3.2182,3.2671,3.3212,3.3395,3.503,3.6846,3.7353,3.7123,3.7046,3.8415,3.8739,3.8923,3.9601,4.0155,4.0524,4.0524,4.0524,4.0524,4.0524,4.0524,4.0524,4.0524,0.0,0.0,0.0,3.9524,3.9524,3.9524,3.9524,3.9785,4.0462,4.0524,4.0524,4.0524,4.0524,4.0832,4.1555,4.2248,4.2971,4.3787,4.3171,4.2833,4.2833,4.349,4.4411,4.554,4.6027,4.7078,4.8702,4.8365,4.8477,4.8968,4.8409,4.8173,4.8173,4.8173,4.8173,4.8223,4.8887,4.9168,4.9168,4.935,4.9488,4.959,2.8757,2.8757,2.8757,2.8757,2.8757,2.8757,2.8757,2.8757,2.8757,2.8757,2.8757,2.8735,2.8702,2.8702,2.8702,2.8702,2.8702,2.8724,2.8757,2.8724,2.8702,2.8702,2.8735,2.8735,2.8702,2.7785,2.7944,2.9343,2.8692,2.9333,3.1291,3.1525,3.1847,3.2104,3.2864,3.3362,3.3688,3.4343,3.4706,3.4774,3.4018,3.3539,3.305,3.2413,3.2182,3.2182,3.2182,3.2182,3.2182,3.2182,3.2182,3.2182,3.2182,3.2622,3.323,3.4008,3.5753,3.7446,3.7492,3.7461,3.7754,3.9108,3.9447,3.9616,4.0293,4.0493,4.0524,4.0524,4.0524,4.0524,4.0524,4.0524,4.0524,4.0524,0.0,0.0,3.9616,3.9524,3.9524,3.9524,3.9524,3.9785,4.0462,4.0524,4.0524,4.0524,4.0524,4.0832,4.1555,4.2248,4.3187,4.4464,4.3848,4.3494,4.3494,4.425,4.4677,4.4811,4.6814,4.785,4.8015,4.8606,4.8951,4.9001,4.8951,4.8934,4.8934,4.8934,4.8934,4.8934,4.8984,4.9001,4.9001,4.9168,4.9229,4.929,2.8757,2.8757,2.8757,2.8757,2.8757,2.8757,2.8757,2.8757,2.8757,2.8757,2.8757,2.8757,2.8757,2.8757,2.8757,2.8757,2.8757,2.8757,2.8757,2.8757,2.8757,2.8757,2.8757,2.8757,2.8757,2.8102,2.8544,3.0201,2.9308,3.0035,3.2169,3.1941,3.1913,3.2143,3.2431,3.2768,3.319,3.3419,3.4008,3.4787,3.4113,3.4027,3.4054,3.3091,3.2955,3.3173,3.244,3.2643,3.3213,3.2847,3.2725,3.2793,3.3159,3.3173,3.3436,3.5024,3.6437,3.7643,3.8499,3.8446,3.8446,3.9816,3.9831,3.9693,4.037,4.0524,4.0524,4.0524,4.0524,4.0524,4.0524,4.0524,4.0524,4.0524,0.0,4.0432,4.0185,4.0139,4.0139,4.0139,4.0139,4.0247,4.0509,4.0524,4.0524,4.0524,4.0524,4.1016,4.2171,4.3248,4.4064,4.4556,4.4326,4.4202,4.4202,4.4471,4.4898,4.5317,4.6613,4.7489,4.795,4.8656,4.9001,4.9001,4.9001,4.9001,4.9001,4.9001,4.9001,4.9001,4.9001,4.9001,4.9001,4.9063,4.9107,4.9297,2.8757,2.8757,2.8757,2.8757,2.8757,2.8757,2.8757,2.8757,2.8757,2.8757,2.8757,2.8757,2.8757,2.8757,2.8757,2.8757,2.8757,2.8757,2.8757,2.8757,2.8757,2.8757,2.8757,2.8757,2.8757,2.855,2.9338,3.0961,3.0252,3.101,3.3208,3.2659,3.2463,3.2697,3.2869,3.309,3.3329,3.3517,3.4103,3.4787,3.4316,3.4289,3.4461,3.3647,3.3593,3.3774,3.3023,3.3254,3.3801,3.3485,3.3335,3.3417,3.381,3.3813,3.4016,3.5608,3.6662,3.754,3.8796,3.8956,3.9001,4.0224,4.017,3.9955,4.0432,4.0524,4.0524,4.0524,4.0524,4.0524,4.0524,4.0524,4.0524,4.0524,4.0524,4.0524,4.0524,4.0524,4.0524,4.0524,4.0524,4.0524,4.0524,4.0524,4.0524,4.0524,4.0739,4.1463,4.2833,4.3972,4.4572,4.4572,4.4572,4.4572,4.4572,4.4572,4.4858,4.5348,4.6324,4.7085,4.7622,4.8593,4.9001,4.9001,4.9001,4.9001,4.9001,4.9001,4.9001,4.9001,4.9001,4.9001,4.9035,4.9255,4.9402,4.9627,2.8757,2.8757,2.8757,2.8757,2.8757,2.8757,2.8757,2.8757,2.8757,2.8757,2.8757,2.8757,2.8757,2.8757,2.8757,2.8757,2.8757,2.8757,2.8757,2.8757,2.8757,2.8757,2.8757,2.8757,2.8757,2.9274,3.022,3.1577,3.1459,3.2421,3.4384,3.3849,3.375,3.3925,3.4505,3.4671,3.4566,3.5144,3.513,3.4841,3.4841,3.4489,3.3883,3.3883,3.3883,3.3883,3.3869,3.3883,3.3883,3.3883,3.3883,3.3883,3.3883,3.4389,3.5162,3.5765,3.6522,3.7303,3.8121,3.8811,3.9463,4.0301,4.0524,4.0524,4.0524,4.0524,4.0524,4.0524,4.0524,4.0524,4.0524,4.0524,4.0524,4.0524,4.0524,4.0524,4.0524,4.0524,4.0524,4.0524,4.0524,4.0524,4.0524,4.0539,4.0539,4.0539,4.1217,4.2186,4.3494,4.4218,4.4572,4.4572,4.4572,4.4572,4.4587,4.4572,4.4572,4.4648,4.6127,4.6811,4.688,4.8322,4.9001,4.9001,4.9018,4.9018,4.9001,4.9018,4.9018,4.9001,4.9001,4.9001,4.9103,4.9813,5.0084,5.0202,2.8757,2.8757,2.8757,2.8757,2.8757,2.8757,2.8757,2.8757,2.8757,2.8757,2.8757,2.8757,2.8757,2.8757,2.8757,2.8757,2.8757,2.8757,2.8757,2.8757,2.8757,2.8757,2.8757,2.8757,2.8757,2.8973,2.9851,3.1577,3.1149,3.2122,3.4384,3.3849,3.3587,3.3668,3.4002,3.4218,3.43,3.4634,3.4995,3.5452,3.5452,3.5343,3.514,3.4719,3.4828,3.5072,3.4167,3.4475,3.5126,3.4706,3.457,3.457,3.457,3.5375,3.6354,3.6536,3.7163,3.7884,3.8106,3.8707,3.9463,4.0301,4.0524,4.0524,4.0524,4.0524,4.0524,4.0524,4.0524,4.0524,4.0524,4.0524,4.0524,4.0524,4.0524,4.0524,4.0524,4.0524,4.0524,4.0524,4.0524,4.0524,4.0524,4.0986,4.1278,4.1278,4.234,4.3156,4.3541,4.4218,4.4572,4.4572,4.4572,4.4803,4.528,4.4818,4.4572,4.4648,4.6127,4.6811,4.688,4.8322,4.9001,4.9035,4.9543,4.9475,4.9035,4.956,4.9458,4.9001,4.9001,4.9323,4.9796,5.0016,5.0422,5.098,2.8757,2.8757,2.8757,2.8757,2.8757,2.8757,2.8757,2.8757,2.8757,2.8757,2.8757,2.8757,2.8757,2.8757,2.8757,2.8757,2.8757,2.8757,2.8757,2.8757,2.8757,2.8757,2.9198,2.9371,2.9371,2.9726,3.0609,3.219,3.2129,3.2921,3.4384,3.4071,3.3914,3.3914,3.4065,3.4228,3.4485,3.4553,3.4996,3.5562,3.5562,3.5642,3.5683,3.5316,3.5398,3.5615,3.4896,3.5113,3.5655,3.5303,3.5181,3.5181,3.5181,3.573,3.6401,3.6401,3.6766,3.7281,3.7951,3.8487,3.9088,4.0231,4.0524,4.0524,4.0524,4.0524,4.0524,4.0524,4.0524,4.0524,4.0524,4.0524,4.0524,4.0524,4.0524,4.0524,4.0524,4.0524,4.0524,4.0524,4.0524,4.0632,4.0924,4.134,4.1817,4.234,4.3125,4.3694,4.3956,4.4356,4.4572,4.4572,4.4849,4.5172,4.5588,4.5449,4.5372,4.5372,4.6592,4.73,4.7637,4.8829,4.9594,4.9881,5.0033,4.9847,4.9441,4.9593,4.956,4.9407,4.912,4.9627,5.0541,5.0541,5.1014,5.1758,2.8757,2.8757,2.8757,2.8757,2.8757,2.8757,2.8757,2.8757,2.8757,2.8757,2.8757,2.8757,2.8757,2.8757,2.8757,2.8757,2.8757,2.8757,2.8757,2.8757,2.885,2.8932,2.9726,3.026,3.0441,3.1223,3.2016,3.298,3.3869,3.4314,3.4397,3.4397,3.4397,3.4397,3.4397,3.4577,3.4756,3.4839,3.5086,3.5399,3.5399,3.5562,3.571,3.571,3.571,3.571,3.571,3.571,3.571,3.571,3.571,3.571,3.571,3.571,3.571,3.571,3.571,3.6017,3.751,3.7951,3.8324,3.9849,4.0231,4.0301,4.0455,4.0524,4.0524,4.0524,4.0524,4.0524,4.0524,4.0524,4.0524,4.0524,4.0524,4.0524,4.0524,4.0524,4.0524,4.0524,4.0586,4.0878,4.1524,4.1709,4.2294,4.3556,4.3664,4.3925,4.4541,4.4633,4.4664,4.4664,4.5326,4.5711,4.5772,4.6372,4.6665,4.6603,4.7324,4.8126,4.8916,4.9641,5.0426,5.1183,5.0557,5.0202,5.005,4.9526,4.961,5.0033,4.9424,5.0067,5.1319,5.1319,5.1775,5.252,2.8757,2.8757,2.8757,2.8757,2.8757,2.8757,2.8757,2.8757,2.8757,2.8757,2.8757,2.8757,2.8757,2.8757,2.8757,2.8757,2.8757,2.8757,2.8757,2.8757,2.9106,2.9897,3.0079,3.0878,3.2364,3.184,3.2016,3.298,3.3164,3.3687,3.4397,3.4397,3.4397,3.4397,3.4577,3.4756,3.4839,3.5003,3.5154,3.5399,3.5399,3.5562,3.571,3.571,3.571,3.571,3.571,3.571,3.571,3.571,3.571,3.571,3.571,3.571,3.571,3.571,3.571,3.579,3.6163,3.6702,3.7232,3.7601,3.8115,3.8928,4.0216,4.0524,4.0524,4.0524,4.0524,4.0524,4.0524,4.0524,4.0524,4.0524,4.0524,4.0524,4.0524,4.0524,4.0524,4.0524,4.1032,4.1432,4.1586,4.254,4.3479,4.4295,4.4356,4.4433,4.4572,4.508,4.5372,4.5372,4.6018,4.6634,4.7157,4.7311,4.7127,4.6603,4.7324,4.8126,4.8916,4.9641,5.0426,5.1234,5.164,5.1166,5.0168,5.1166,5.0997,5.0135,5.0574,5.1285,5.2063,5.2063,5.257,5.3264,2.8757,2.8943,2.9095,2.9095,2.9095,2.9095,2.9095,2.891,2.8757,2.8757,2.8757,2.8757,2.8757,2.8757,2.8757,2.8757,2.8757,2.8757,2.8757,2.8757,2.9024,2.9555,3.0429,3.1311,3.2277,3.2722,3.3164,3.3687,3.3687,3.3953,3.4397,3.4397,3.4397,3.4397,3.4577,3.4577,3.4577,3.4743,3.4908,3.5086,3.5236,3.5399,3.5562,3.5629,3.571,3.571,3.571,3.571,3.571,3.571,3.571,3.571,3.571,3.571,3.571,3.571,3.571,3.579,3.6177,3.6559,3.7,3.7372,3.78,3.8324,3.916,3.9621,3.992,3.992,4.0231,4.0524,4.0524,4.0816,4.0924,4.0586,4.1078,4.1294,4.0616,4.1109,4.1263,4.0601,4.1447,4.2202,4.2509,4.3448,4.4326,4.5003,4.4756,4.4864,4.5511,4.5572,4.5741,4.6065,4.6726,4.725,4.7604,4.7927,4.7912,4.7558,4.7929,4.8746,4.9936,5.0317,5.1201,5.2317,5.23,5.186,5.1183,5.1606,5.1539,5.115,5.12,5.1894,5.2841,5.2435,5.2807,5.3501,2.8877,2.9205,2.951,2.9598,2.9532,2.951,2.9598,2.9194,2.8877,2.8877,2.8811,2.8757,2.8757,2.8757,2.8757,2.8757,2.8757,2.8757,2.8757,2.8757,2.8932,2.929,3.0789,3.1753,3.2103,3.3602,3.4397,3.4397,3.4397,3.4397,3.4397,3.4397,3.4397,3.4397,3.4397,3.4397,3.4397,3.4397,3.4577,3.4839,3.5003,3.5154,3.5399,3.5562,3.5642,3.5642,3.571,3.571,3.571,3.571,3.571,3.571,3.571,3.571,3.571,3.571,3.571,3.5871,3.648,3.6702,3.6858,3.751,3.7724,3.7724,3.7724,3.8649,3.9556,3.9643,4.0243,4.0739,4.0863,4.1278,4.1447,4.0955,4.1848,4.2202,4.1047,4.1878,4.2186,4.1016,4.2001,4.3033,4.3679,4.4356,4.4987,4.5541,4.5172,4.5418,4.6542,4.6172,4.6188,4.6742,4.7419,4.7773,4.7773,4.8327,4.862,4.862,4.862,4.939,5.0919,5.107,5.1898,5.3247,5.2724,5.2435,5.2266,5.1809,5.1877,5.2249,5.1792,5.2384,5.3416,5.2756,5.2942,5.3501,2.939,2.9434,2.962,3.0035,2.9762,2.9631,3.0046,2.9707,2.939,2.939,2.9019,2.8757,2.8757,2.8757,2.8757,2.8757,2.8757,2.8757,2.8757,2.8757,2.9555,3.1134,3.1488,3.2364,3.3966,3.4301,3.4397,3.4397,3.4397,3.4397,3.4397,3.4397,3.4397,3.4397,3.4397,3.4397,3.4397,3.4397,3.4577,3.4756,3.4839,3.4921,3.5154,3.5399,3.548,3.548,3.5642,3.571,3.571,3.571,3.571,3.571,3.571,3.571,3.571,3.571,3.571,3.571,3.5871,3.5871,3.5857,3.6017,3.6004,3.6004,3.6004,3.8184,4.0437,4.1148,4.1377,4.1632,4.2217,4.1925,4.1755,4.2248,4.2494,4.254,4.2355,4.2494,4.254,4.2355,4.2987,4.371,4.4372,4.5049,4.548,4.5572,4.6034,4.6403,4.6588,4.7065,4.7373,4.7465,4.8127,4.8481,4.8481,4.8558,4.862,4.862,4.862,4.9081,5.0104,5.0767,5.1606,5.252,5.3094,5.2942,5.235,5.2942,5.2841,5.2367,5.2959,5.3331,5.3501,5.3382,5.3416,5.3501,2.9838,3.01,3.0341,3.0559,3.0417,3.0341,3.0559,2.9958,2.9489,2.9489,2.9063,2.8757,2.8757,2.8757,2.8866,2.9139,2.891,2.8757,2.8757,2.8757,2.9198,2.9988,3.1045,3.2016,3.2809,3.3869,3.4397,3.4397,3.4397,3.4397,3.4397,3.4397,3.4397,3.4397,3.4397,3.4397,3.4397,3.4397,3.4481,3.4577,3.4756,3.4839,3.4921,3.5154,3.5318,3.5399,3.5642,3.571,3.571,3.571,3.571,3.571,3.571,3.571,3.571,3.571,3.571,3.571,3.571,3.571,3.571,3.571,3.5967,3.6293,3.6753,3.8903,4.0518,3.963,4.0081,4.089,4.164,4.1925,4.2134,4.2544,4.3233,4.3448,4.2709,4.3233,4.3848,4.4233,4.4187,4.4402,4.5064,4.5757,4.6157,4.6157,4.6434,4.6927,4.7681,4.765,4.7773,4.8158,4.8466,4.862,4.862,4.862,4.862,4.862,4.862,4.9097,4.9947,5.0691,5.1533,5.2307,5.3127,5.3298,5.301,5.3348,5.3298,5.301,5.3365,5.3501,5.3501,5.3501,5.3501,5.3501]},{"header":{"parameterUnit":"m.s-1","parameterCategory":1,"la1":30.6,"la2":28.766,"lo1":-90.7593,"lo2":-88.6598,"dy":0.0162,"dx":0.0183,"nx":116,"ny":114,"refTime":"2023-04-15T12:00:00:Z","depth":0,"parameterNumber":3,"parameterNumberName":"V-component_of_WINDS"},"data":[0.0,0.0,0.0,0.0,0.0,0.0,0.0,0.0,0.0,0.0,0.0,0.0,0.0,0.0,0.0,0.0,0.0,0.0,0.0,0.0,0.0,0.0,0.0,0.0,0.0,0.0,0.0,0.0,0.0,0.0,0.0,0.0,0.0,0.0,0.0,0.0,0.0,0.0,0.0,0.0,0.0,0.0,0.0,0.0,0.0,0.0,0.0,0.0,0.0,0.0,0.0,0.0,0.0,0.0,0.0,0.0,0.0,0.0,0.0,0.0,0.0,0.0,0.0,0.0,0.0,0.0,0.0,0.0,0.0,0.0,0.0,0.0,0.0,0.0,0.0,0.0,0.0,0.0,0.0,0.0,0.0,0.0,0.0,0.0,0.0,0.0,0.0,0.0,0.0,0.0,0.0,0.0,0.0,0.0,0.0,0.0,0.0,0.0,0.0,0.0,0.0,0.0,0.0,0.0,0.0,0.0,0.0,0.0,0.0,0.0,0.0,0.0,0.0,0.0,0.0,0.0,0.0,0.0,0.0,0.0,0.0,0.0,0.0,0.0,0.0,0.0,0.0,0.0,0.0,0.0,0.0,0.0,0.0,0.0,0.0,0.0,0.0,0.0,0.0,0.0,0.0,0.0,0.0,0.0,0.0,0.0,0.0,0.0,0.0,0.0,0.0,0.0,0.0,0.0,0.0,0.0,0.0,0.0,0.0,0.0,0.0,0.0,0.0,0.0,0.0,0.0,0.0,0.0,0.0,0.0,0.0,0.0,0.0,0.0,0.0,0.0,0.0,0.0,0.0,0.0,0.0,0.0,0.0,0.0,0.0,0.0,0.0,0.0,0.0,0.0,0.0,0.0,0.0,0.0,0.0,0.0,0.0,0.0,0.0,0.0,0.0,0.0,0.0,0.0,0.0,0.0,0.0,0.0,0.0,0.0,0.0,0.0,0.0,0.0,0.0,0.0,0.0,0.0,0.0,0.0,0.0,0.0,0.0,0.0,0.0,0.0,0.0,0.0,0.0,0.0,0.0,0.0,0.0,0.0,0.0,0.0,0.0,0.0,0.0,0.0,0.0,0.0,0.0,0.0,0.0,0.0,0.0,0.0,0.0,0.0,0.0,0.0,0.0,0.0,0.0,0.0,0.0,0.0,0.0,0.0,0.0,0.0,0.0,0.0,0.0,0.0,0.0,0.0,0.0,0.0,0.0,0.0,0.0,0.0,0.0,0.0,0.0,0.0,0.0,0.0,0.0,0.0,0.0,0.0,0.0,0.0,0.0,0.0,0.0,0.0,0.0,0.0,0.0,0.0,0.0,0.0,0.0,0.0,0.0,0.0,0.0,0.0,0.0,0.0,0.0,0.0,0.0,0.0,0.0,0.0,0.0,0.0,0.0,0.0,0.0,0.0,0.0,0.0,0.0,0.0,0.0,0.0,0.0,0.0,0.0,0.0,0.0,0.0,0.0,0.0,0.0,0.0,0.0,0.0,0.0,0.0,0.0,0.0,0.0,0.0,0.0,0.0,0.0,0.0,0.0,0.0,0.0,0.0,0.0,0.0,0.0,0.0,0.0,0.0,0.0,0.0,0.0,0.0,0.0,0.0,0.0,0.0,0.0,0.0,0.0,0.0,0.0,0.0,0.0,0.0,0.0,0.0,0.0,0.0,0.0,0.0,0.0,0.0,0.0,0.0,0.0,0.0,0.0,0.0,0.0,0.0,0.0,0.0,0.0,0.0,0.0,0.0,0.0,0.0,0.0,0.0,0.0,0.0,0.0,0.0,0.0,0.0,0.0,0.0,0.0,0.0,0.0,0.0,0.0,0.0,0.0,0.0,0.0,0.0,0.0,0.0,0.0,0.0,0.0,0.0,0.0,0.0,0.0,0.0,0.0,0.0,0.0,0.0,0.0,0.0,0.0,0.0,0.0,0.0,0.0,0.0,0.0,0.0,0.0,0.0,0.0,0.0,0.0,0.0,0.0,0.0,0.0,0.0,0.0,0.0,0.0,0.0,0.0,0.0,0.0,0.0,0.0,0.0,0.0,0.0,0.0,0.0,0.0,0.0,0.0,0.0,0.0,0.0,0.0,0.0,0.0,0.0,0.0,0.0,0.0,0.0,0.0,0.0,0.0,0.0,0.0,0.0,0.0,0.0,0.0,0.0,0.0,0.0,0.0,0.0,0.0,0.0,0.0,0.0,0.0,0.0,0.0,0.0,0.0,0.0,0.0,0.0,0.0,0.0,0.0,0.0,0.0,0.0,0.0,0.0,0.0,0.0,0.0,0.0,0.0,0.0,0.0,0.0,0.0,0.0,0.0,0.0,0.0,0.0,0.0,0.0,0.0,0.0,0.0,0.0,0.0,0.0,0.0,0.0,0.0,0.0,0.0,0.0,0.0,0.0,0.0,0.0,0.0,0.0,0.0,0.0,0.0,0.0,0.0,0.0,0.0,0.0,0.0,0.0,0.0,0.0,0.0,0.0,0.0,0.0,0.0,0.0,0.0,0.0,0.0,0.0,0.0,0.0,0.0,0.0,0.0,0.0,0.0,0.0,0.0,0.0,0.0,0.0,0.0,0.0,0.0,0.0,0.0,0.0,0.0,0.0,0.0,0.0,0.0,0.0,0.0,0.0,0.0,0.0,0.0,0.0,0.0,0.0,0.0,0.0,0.0,0.0,0.0,0.0,0.0,0.0,0.0,0.0,0.0,0.0,0.0,0.0,0.0,0.0,0.0,0.0,0.0,0.0,0.0,0.0,0.0,0.0,0.0,0.0,0.0,0.0,0.0,0.0,0.0,0.0,0.0,0.0,0.0,0.0,0.0,0.0,0.0,0.0,0.0,0.0,0.0,0.0,0.0,0.0,0.0,0.0,0.0,0.0,0.0,0.0,0.0,0.0,0.0,0.0,0.0,0.0,0.0,0.0,0.0,0.0,0.0,0.0,0.0,0.0,0.0,0.0,0.0,0.0,0.0,0.0,0.0,0.0,0.0,0.0,0.0,0.0,0.0,0.0,0.0,0.0,0.0,0.0,0.0,0.0,0.0,0.0,0.0,0.0,0.0,0.0,0.0,0.0,0.0,0.0,0.0,0.0,0.0,0.0,0.0,0.0,0.0,0.0,0.0,0.0,0.0,0.0,0.0,0.0,0.0,0.0,0.0,0.0,0.0,0.0,0.0,0.0,0.0,0.0,0.0,0.0,0.0,0.0,0.0,0.0,0.0,0.0,0.0,0.0,0.0,0.0,0.0,0.0,0.0,0.0,0.0,0.0,0.0,0.0,0.0,0.0,0.0,0.0,0.0,0.0,0.0,0.0,0.0,0.0,0.0,0.0,0.0,0.0,0.0,0.0,0.0,0.0,0.0,0.0,0.0,0.0,0.0,0.0,0.0,0.0,0.0,0.0,0.0,0.0,0.0,0.0,0.0,0.0,0.0,0.0,0.0,0.0,0.0,0.0,0.0,0.0,0.0,0.0,0.0,0.0,0.0,0.0,0.0,0.0,0.0,0.0,0.0,0.0,0.0,0.0,0.0,0.0,0.0,0.0,0.0,0.0,0.0,0.0,0.0,0.0,0.0,0.0,0.0,0.0,0.0,0.0,0.0,0.0,0.0,0.0,0.0,0.0,0.0,0.0,0.0,0.0,0.0,0.0,0.0,0.0,0.0,0.0,0.0,0.0,0.0,0.0,0.0,0.0,0.0,0.0,0.0,0.0,0.0,0.0,0.0,0.0,0.0,0.0,0.0,0.0,0.0,0.0,0.0,0.0,0.0,0.0,0.0,0.0,0.0,0.0,0.0,0.0,0.0,0.0,0.0,0.0,0.0,0.0,0.0,0.0,0.0,0.0,0.0,0.0,0.0,0.0,0.0,0.0,0.0,0.0,0.0,0.0,0.0,0.0,0.0,0.0,0.0,0.0,0.0,0.0,0.0,0.0,0.0,0.0,0.0,0.0,0.0,0.0,0.0,0.0,0.0,0.0,0.0,0.0,0.0,0.0,0.0,0.0,0.0,0.0,0.0,0.0,0.0,0.0,0.0,0.0,0.0,0.0,0.0,0.0,0.0,0.0,0.0,0.0,0.0,0.0,0.0,0.0,0.0,0.0,0.0,0.0,0.0,0.0,0.0,0.0,0.0,0.0,0.0,0.0,0.0,0.0,0.0,0.0,0.0,0.0,0.0,0.0,0.0,0.0,0.0,0.0,0.0,0.0,0.0,0.0,0.0,0.0,0.0,0.0,0.0,0.0,0.0,0.0,0.0,0.0,0.0,0.0,0.0,0.0,0.0,0.0,0.0,0.0,0.0,0.0,0.0,0.0,0.0,0.0,0.0,0.0,0.0,0.0,0.0,0.0,0.0,0.0,0.0,0.0,0.0,0.0,0.0,0.0,0.0,0.0,0.0,0.0,0.0,0.0,0.0,0.0,0.0,0.0,0.0,0.0,0.0,0.0,0.0,0.0,0.0,0.0,0.0,0.0,0.0,0.0,0.0,0.0,0.0,0.0,0.0,0.0,0.0,0.0,0.0,0.0,0.0,0.0,0.0,0.0,0.0,0.0,0.0,0.0,0.0,0.0,0.0,0.0,0.0,0.0,0.0,0.0,0.0,0.0,0.0,0.0,0.0,0.0,0.0,0.0,0.0,0.0,0.0,0.0,0.0,0.0,0.0,0.0,0.0,0.0,0.0,0.0,0.0,0.0,0.0,0.0,0.0,0.0,0.0,0.0,0.0,0.0,0.0,0.0,0.0,0.0,0.0,0.0,0.0,0.0,0.0,0.0,0.0,0.0,0.0,0.0,0.0,0.0,0.0,0.0,0.0,0.0,0.0,0.0,0.0,0.0,0.0,0.0,0.0,0.0,0.0,0.0,0.0,0.0,0.0,0.0,0.0,0.0,0.0,0.0,0.0,0.0,0.0,0.0,0.0,0.0,0.0,0.0,0.0,0.0,0.0,0.0,0.0,0.0,0.0,0.0,0.0,0.0,0.0,0.0,0.0,0.0,0.0,0.0,0.0,0.0,0.0,0.0,0.0,0.0,0.0,0.0,0.0,0.0,0.0,0.0,0.0,0.0,0.0,0.0,0.0,0.0,0.0,0.0,0.0,0.0,0.0,0.0,0.0,0.0,0.0,0.0,0.0,0.0,0.0,0.0,0.0,0.0,0.0,0.0,0.0,0.0,0.0,0.0,0.0,0.0,0.0,0.0,0.0,0.0,0.0,0.0,0.0,0.0,0.0,0.0,0.0,0.0,0.0,0.0,0.0,0.0,0.0,0.0,0.0,0.0,0.0,0.0,0.0,0.0,0.0,0.0,0.0,0.0,0.0,0.0,0.0,0.0,0.0,0.0,0.0,0.0,0.0,0.0,0.0,0.0,0.0,0.0,0.0,0.0,0.0,0.0,0.0,0.0,0.0,0.0,0.0,0.0,0.0,0.0,0.0,0.0,0.0,0.0,0.0,0.0,0.0,0.0,0.0,0.0,0.0,0.0,0.0,0.0,0.0,0.0,0.0,0.0,0.0,0.0,0.0,0.0,0.0,0.0,0.0,0.0,0.0,0.0,0.0,0.0,0.0,0.0,0.0,0.0,0.0,0.0,0.0,0.0,0.0,0.0,0.0,0.0,0.0,0.0,0.0,0.0,0.0,0.0,0.0,0.0,0.0,0.0,0.0,0.0,0.0,0.0,0.0,0.0,0.0,0.0,0.0,0.0,0.0,0.0,0.0,0.0,0.0,0.0,0.0,0.0,0.0,0.0,0.0,0.0,0.0,0.0,0.0,0.0,0.0,0.0,0.0,0.0,0.0,0.0,0.0,0.0,0.0,0.0,0.0,0.0,0.0,0.0,0.0,0.0,0.0,0.0,0.0,0.0,0.0,0.0,0.0,0.0,0.0,0.0,0.0,0.0,0.0,0.0,0.0,0.0,0.0,0.0,0.0,0.0,0.0,0.0,0.0,0.0,0.0,0.0,0.0,0.0,0.0,0.0,0.0,0.0,0.0,0.0,0.0,0.0,0.0,0.0,0.0,0.0,0.0,0.0,0.0,0.0,0.0,0.0,0.0,0.0,0.0,0.0,0.0,0.0,0.0,0.0,0.0,0.0,0.0,0.0,0.0,0.0,0.0,0.0,-0.1583,0.0,0.0,0.0,0.0,0.0,0.0,0.0,0.0,0.0,0.0,0.0,0.0,0.0,0.0,0.0,0.0,0.0,0.0,0.0,0.0,0.0,0.0,0.0,0.0,0.0,0.0,0.0,0.0,0.0,0.0,0.0,0.0,0.0,0.0,0.0,0.0,0.0,0.0,0.0,0.0,0.0,0.0,0.0,0.0,0.0,0.0,0.0,0.0,0.0,0.0,0.0,0.0,0.0,0.0,0.0,0.0,0.0,0.0,0.0,0.0,0.0,0.0,0.0,0.0,0.0,0.0,0.0,0.0,0.0,0.0,0.0,0.0,0.0,0.0,0.0,0.0,0.0,0.0,0.0,0.0,0.0,0.0,0.0,0.0,0.0,0.0,0.0,0.0,0.0,0.0,0.0,0.0,0.0,0.0,0.0,0.0,0.0,0.0,0.0,0.0,0.0,0.0,0.0,0.0,0.0,0.0,0.0,0.0,0.0,0.0,0.0,0.0,0.0,0.0,0.0,0.0,-0.183,0.0,0.0,0.0,0.0,0.0,0.0,0.0,0.0,0.0,0.0,0.0,0.0,0.0,0.0,0.0,0.0,0.0,0.0,0.0,0.0,0.0,0.0,0.0,0.0,0.0,0.0,0.0,0.0,0.0,0.0,0.0,0.0,0.0,0.0,0.0,0.0,0.0,0.0,0.0,0.0,0.0,0.0,0.0,0.0,0.0,0.0,0.0,0.0,0.0,0.0,0.0,0.0,0.0,0.0,0.0,0.0,0.0,0.0,0.0,0.0,0.0,0.0,0.0,0.0,0.0,0.0,0.0,0.0,0.0,0.0,0.0,0.0,0.0,0.0,0.0,0.0,0.0,0.0,0.0,0.0,0.0,0.0,0.0,0.0,0.0,0.0,0.0,0.0,0.0,0.0,0.0,0.0,0.0,0.0,0.0,0.0,0.0,0.0,0.0,0.0,0.0,0.0,0.0,0.0,0.0,0.0,0.0,0.0,-0.1951,-0.2221,-0.2221,-0.2221,-0.2221,-0.2218,-0.2166,-0.2144,-0.2138,-0.2201,0.0,0.0,0.0,0.0,0.0,0.0,0.0,0.0,0.0,0.0,0.0,0.0,0.0,0.0,0.0,0.0,0.0,0.0,0.0,0.0,0.0,0.0,0.0,0.0,0.0,0.0,0.0,0.0,0.0,0.0,0.0,0.0,0.0,0.0,0.0,0.0,0.0,0.0,0.41,0.419,0.2495,-0.0508,0.0,0.0,0.0,0.0,0.0,0.0,0.0,0.0,0.0,0.0,0.0,0.0,0.0,0.0,0.0,0.0,0.0,0.0,0.0,0.0,0.0,0.0,0.0,0.0,0.0,0.0,0.0,0.0,0.0,0.0,0.0,0.0,0.0,0.0,0.0,0.0,0.0,0.0,0.0,0.0,0.0,0.0,0.0,0.0,0.121,0.1143,0.0,0.0,0.0,0.0,0.0,0.0,0.0,0.0,0.0,0.0,0.0,0.0,0.0,-0.1481,-0.187,-0.199,-0.2087,-0.2087,-0.2154,-0.2221,-0.2221,-0.2221,-0.2221,-0.222,-0.2213,0.0,-0.2204,-0.2724,0.0,0.0,0.0,0.0,0.0,0.0,0.0,0.0,0.0,0.0,0.0,0.0,0.0,0.0,0.0,0.0,0.0,0.0,0.0,0.0,0.0,0.0,0.0,0.0,0.0,0.0,0.0,0.0,0.0,0.0,0.0,0.0,0.0,0.0,0.0,0.0,0.4565,0.4051,0.4314,0.4296,0.2601,-0.0527,-0.0845,-0.0969,-0.0969,-0.0654,0.0,0.0,0.0,0.0,0.0,0.0,0.0,0.0,0.0,0.0,0.0,0.0,0.0,0.0,0.0,0.0,0.0,0.0,0.0,0.0,0.0,0.0,0.0,0.0,0.0,0.0,0.0,0.0,0.0,0.0,0.0,0.0,0.0,0.0,0.0,0.0,0.0,0.0,0.0,0.208,0.1545,0.1143,0.1051,0.1022,0.0,0.0,0.0,0.0,0.0,0.0,0.0,0.0,0.0,-0.1325,-0.1664,-0.1884,-0.218,-0.2207,-0.2221,-0.2221,-0.2221,-0.2221,-0.2221,-0.2221,-0.2221,-0.2221,-0.2221,-0.2221,-0.222,-0.2457,-0.2615,-0.2641,0.0,0.0,0.0,0.0,-0.3325,-0.4129,0.0,0.0,0.0,0.0,0.0,0.0,0.0,0.0,0.0,0.0,0.0,0.0,0.0,0.0,0.0,1.193,0.0,0.0,0.0,0.0,0.0,0.0,0.0,0.0,0.0,0.0,0.0,0.0,0.5185,0.4351,0.4105,0.4267,0.2383,-0.1184,-0.2894,-0.3315,-0.2686,-0.2684,-0.2952,0.0,0.0,0.0,0.0,0.0,0.0,0.0,0.0,0.0,0.0,0.0,0.0,0.0,0.0,0.0,0.0,0.0,0.0,0.0,0.0,0.0,0.0,0.0,0.0,0.0,0.0,0.0,0.0,0.0,0.0,0.0,0.0,0.0,0.0,0.0,0.0,0.0,0.0,0.2813,0.2013,0.1678,0.1247,0.1088,0.0,0.0,0.0,0.0,0.0,0.0,-0.0809,-0.1246,-0.1516,-0.1627,-0.2085,-0.2435,-0.2487,-0.2487,-0.2487,-0.2487,-0.2287,-0.2221,-0.2221,-0.217,-0.2169,-0.2221,-0.217,-0.2169,-0.2221,-0.2621,-0.2918,-0.313,-0.3062,-0.3396,-0.3848,-0.3561,-0.3967,-0.4561,0.0,0.0,0.0,0.0,0.0,0.0,0.0,0.0,0.0,0.0,0.0,0.0,0.0,0.0,1.2611,1.2663,1.2132,1.1661,0.0,0.0,0.0,0.0,0.0,0.0,0.0,0.0,0.0,0.7079,0.689,0.5731,0.3643,0.4082,0.1293,-0.4044,-0.2597,-0.2743,-0.4247,-0.5262,-0.5116,-0.442,0.0,0.0,0.0,0.0,0.0,0.0,0.0,0.0,0.0,0.0,0.0,0.0,0.0,0.0,0.0,0.0,0.0,0.0,0.0,0.0,0.0,0.0,0.0,0.0,0.0,0.0,0.0,0.0,0.0,0.0,0.0,0.0,0.0,0.0,0.0,0.0,0.0,0.0,0.0,0.3015,0.1835,0.0,0.0,0.0,0.0,0.0185,-0.0677,-0.1247,-0.1347,-0.18,-0.2086,-0.2147,-0.2813,-0.3145,-0.3151,-0.3151,-0.3151,-0.3149,-0.2487,-0.2221,-0.2224,-0.2214,-0.2208,-0.2225,-0.2215,-0.2207,-0.2288,-0.362,-0.3816,-0.3343,-0.4677,-0.4406,-0.3336,-0.4013,-0.4284,-0.4345,0.0,0.0,0.0,0.0,0.0,0.0,0.0,0.0,0.0,0.0,0.0,0.0,0.0,1.4226,1.3861,1.4625,1.3799,1.3092,1.2716,0.0,0.0,0.0,0.0,0.0,0.0,0.0,0.8883,0.7943,0.6713,0.5599,0.4687,0.332,0.0361,-0.3837,-0.3822,-0.4114,-0.4722,-0.5125,-0.5339,-0.5547,-0.628,-0.6244,0.0,0.0,0.0,0.0,0.0,0.0,0.0,0.0,0.0,0.0,0.0,0.0,0.0,0.0,0.0,0.0,0.0,0.0,0.0,0.0,0.0,0.0,0.0,0.0,0.0,0.0,0.0,0.0,0.0,0.0,0.0,0.0,0.0,0.0,0.0,0.0,0.0,0.3215,0.2725,0.0,0.2127,0.1685,0.097,-0.0254,-0.0581,-0.1114,-0.1854,-0.2055,-0.2199,-0.222,-0.242,-0.2554,-0.2554,-0.295,-0.295,-0.2554,-0.2753,-0.2621,-0.2221,-0.2176,-0.2174,-0.2223,-0.2177,-0.2174,-0.2288,-0.322,-0.3685,-0.3885,-0.3949,-0.4215,-0.468,-0.4882,-0.5014,-0.508,0.0,0.0,0.0,0.0,0.0,0.0,0.0,0.0,0.0,0.0,0.0,1.4893,1.5665,1.4889,1.4676,1.547,1.4779,1.423,1.4039,0.0,0.0,0.0,0.0,0.0,0.0,1.0415,0.9695,0.8764,0.7253,0.6128,0.5266,0.2507,-0.0529,-0.3652,-0.4486,-0.4872,-0.492,-0.5125,-0.5594,-0.6262,-0.658,-0.6637,-0.6448,0.0,0.0,0.0,0.0,0.0,0.0,0.0,0.0,0.0,0.0,0.0,0.0,0.0,0.0,0.0,0.0,0.0,0.0,0.0,0.0,0.0,0.0,0.0,0.0,0.0,0.0,0.0,0.0,0.0,0.0,0.0,0.0,0.0,0.0,0.0,0.4544,0.4278,0.3613,0.3127,0.2872,0.2274,0.1344,0.0131,-0.0469,-0.1087,-0.1885,-0.2087,-0.2221,-0.2221,-0.2421,-0.2554,-0.2554,-0.295,-0.295,-0.2554,-0.2753,-0.2619,-0.2221,-0.2174,-0.2173,-0.2223,-0.2176,-0.2173,-0.2221,-0.2686,-0.342,-0.4287,-0.4015,-0.4414,-0.508,-0.5279,-0.5077,-0.4746,0.0,0.0,0.0,0.0,0.0,0.0,0.0,0.0,0.0,0.0,1.5424,1.5292,1.569,1.5341,1.5061,1.5072,1.5061,1.5071,1.5062,1.4641,0.0,0.0,0.0,0.0,1.208,1.1501,1.0657,0.9522,0.876,0.7365,0.5308,0.174,-0.1202,-0.3646,-0.4497,-0.4862,-0.4937,-0.5616,-0.6058,-0.6476,-0.7564,-0.7466,-0.6678,0.0,0.0,0.0,0.0,0.0,0.0,0.0,0.0,0.0,0.0,0.0,0.0,0.0,0.0,0.0,0.0,0.0,0.0,0.0,0.0,0.0,0.0,0.0,0.0,0.0,0.0,0.0,0.0,0.0,0.0,0.0,0.0,0.0,0.8527,0.6715,0.5668,0.6346,0.4553,0.3558,0.4231,0.2612,0.1451,0.1344,-0.0275,-0.1314,-0.128,-0.1884,-0.2221,-0.2221,-0.2818,-0.3151,-0.3151,-0.3215,-0.3215,-0.3151,-0.2554,-0.2221,-0.2224,-0.2214,-0.221,-0.2225,-0.2215,-0.2208,-0.2221,-0.2221,-0.3021,-0.4353,-0.508,-0.4948,-0.442,-0.5147,-0.4478,-0.3215,0.0,0.0,0.0,0.0,0.0,0.0,0.0,0.0,0.0,0.0,1.6219,1.6195,1.6326,1.6516,1.6475,1.6197,1.6414,1.643,1.6107,0.0,0.0,0.0,0.0,0.0,1.3541,1.2637,1.1595,1.0531,0.8895,0.7762,0.7021,0.4022,0.0232,-0.4134,-0.416,-0.4458,-0.4977,-0.5747,-0.592,-0.5778,-0.6966,-0.7104,-0.6668,0.0,0.0,0.0,0.0,0.0,0.0,0.0,0.0,0.0,0.0,0.0,0.0,0.0,0.0,0.0,0.0,0.0,0.0,0.0,0.0,0.0,0.0,0.0,0.0,0.0,0.0,0.0,0.0,0.0,0.0,0.0,0.0,0.9788,0.861,0.7798,0.7242,0.6908,0.629,0.559,0.4683,0.3513,0.2507,0.159,0.0137,-0.0881,-0.1278,-0.1884,-0.2221,-0.2221,-0.2354,-0.2487,-0.2487,-0.2952,-0.2952,-0.2487,-0.2751,-0.2686,-0.2221,-0.2172,-0.217,-0.2221,-0.2172,-0.2169,-0.2221,-0.2221,-0.2686,-0.3549,-0.4284,-0.4486,-0.442,-0.5147,-0.4878,-0.4146,0.0,0.0,0.0,0.0,0.0,0.0,0.0,0.0,0.0,0.0,1.6219,1.621,1.6257,1.6666,1.682,1.6573,1.6956,1.7157,1.7047,0.0,0.0,0.0,0.0,1.5118,1.4842,1.4001,1.2833,1.1383,1.0036,0.8823,0.7763,0.5584,0.2042,-0.2567,-0.3595,-0.4247,-0.4562,-0.54,-0.5495,-0.5192,-0.6162,-0.6459,-0.6242,-0.5855,-0.5352,-0.4758,-0.3763,-0.2554,-0.1208,0.0067,0.0,0.0,0.0,0.0,0.0,0.0,0.0,0.0,0.0,0.0,0.0,0.0,0.0,0.0,0.0,0.0,0.0,0.0,0.0,0.0,0.0,0.0,0.0,0.0,1.1498,1.132,1.0678,0.9525,0.8557,0.8056,0.7364,0.6546,0.5698,0.4501,0.3474,0.2816,0.1231,0.0068,-0.0537,-0.1344,-0.1951,-0.2221,-0.2221,-0.2221,-0.2221,-0.2552,-0.2552,-0.2221,-0.2619,-0.2552,-0.2221,-0.2221,-0.2221,0.0,-0.2221,-0.2221,-0.2221,-0.2221,-0.2619,0.0,0.0,0.0,0.0,0.0,-0.4278,-0.3946,0.0,0.0,0.0,0.0,0.0,0.0,0.0,0.0,0.0,0.0,0.0,1.5925,1.5881,1.6306,1.6565,1.6565,1.6976,1.7434,0.0,0.0,0.0,1.7447,1.6965,1.6478,1.595,1.5342,1.4128,1.2263,1.1619,1.016,0.8,0.6764,0.4145,0.0367,-0.2532,-0.3861,-0.3998,-0.4642,-0.4823,-0.4693,-0.5325,-0.5586,-0.5619,-0.5239,-0.5296,-0.5369,-0.383,-0.2013,-0.0201,0.0806,0.0,0.0,0.0,0.0,0.0,0.0,0.0,0.0,0.0,0.0,0.0,0.0,0.0,0.0,0.0,0.0,0.0,0.0,0.0,0.0,0.0,0.0,0.0,0.0,1.2893,1.3115,1.3669,1.1617,0.9945,0.953,0.8087,0.7074,0.6915,0.5441,0.442,0.4448,0.2607,0.1238,0.0604,0.0,0.0,0.0,0.0,-0.2025,-0.2018,-0.2025,-0.2025,-0.2018,-0.2018,-0.2018,-0.2018,-0.2018,-0.2018,-0.2087,-0.2087,-0.2154,-0.2221,-0.2221,-0.2619,-0.3282,-0.3951,-0.4154,-0.4087,-0.3418,-0.3151,-0.3017,0.0,0.0,0.0,0.0,0.0,0.0,0.0,0.0,0.0,1.7661,1.7218,1.6778,1.6392,1.6778,1.7073,1.7073,1.7434,1.7882,0.0,0.0,1.8104,1.8326,1.7659,1.7128,1.687,1.5882,1.4683,1.3211,1.2004,1.077,0.9562,0.8121,0.6053,0.3357,0.0455,-0.2109,-0.4161,0.0,0.0,0.0,0.0,0.0,-0.5249,-0.5292,-0.5036,-0.4503,-0.4182,-0.2353,0.0268,0.2755,0.35,0.3362,0.3431,0.0,0.0,0.0,0.0,0.0,0.0,0.0,0.0,0.0,0.0,0.0,0.0,0.0,0.0,0.0,0.0,0.0,0.0,0.0,0.0,1.3433,1.3745,1.407,1.4558,1.3608,1.2305,1.0616,0.9575,0.8623,0.7742,0.6256,0.5339,0.5381,0.34,0.1885,0.1207,0.0536,-0.0134,-0.0807,-0.0824,-0.0825,-0.0807,-0.0825,-0.0825,-0.0807,0.0,0.0,-0.0807,-0.0807,-0.1076,-0.148,-0.148,-0.1749,-0.2221,-0.2221,-0.2619,-0.3215,-0.3351,-0.3416,-0.3416,-0.3284,-0.2885,-0.242,0.0,0.0,0.0,0.0,0.0,0.0,0.0,0.0,0.0,0.0,1.7636,1.7031,1.6565,1.7102,1.7434,1.724,1.7774,0.0,0.0,1.8392,1.8429,1.8721,1.8369,1.7975,1.7615,1.6765,1.5592,1.3957,1.2674,1.1631,1.0767,0.8995,0.677,0.4237,0.2779,0.0,0.0,0.0,0.0,0.0,0.0,0.0,-0.3685,-0.4503,-0.4648,-0.411,-0.269,-0.0738,0.134,0.3431,0.3971,0.383,0.3894,0.4025,0.4289,0.0,0.0,0.0,0.0,0.0,0.0,0.0,0.0,0.0,0.0,0.0,0.0,0.0,0.0,1.2025,0.0,0.0,1.4037,1.488,1.4872,1.4916,1.5375,1.4215,1.2851,1.1604,1.0447,0.9408,0.8472,0.6967,0.5989,0.5989,0.4375,0.3078,0.2409,0.1493,0.0685,0.0069,-0.0278,-0.0487,-0.048,-0.048,-0.0477,-0.047,-0.047,-0.047,-0.047,-0.047,-0.0672,-0.0874,-0.0874,-0.121,-0.1749,-0.2087,-0.2421,-0.2686,-0.2686,-0.2885,-0.3215,-0.3215,-0.2751,-0.2221,0.0,0.0,0.0,0.0,0.0,0.0,0.0,0.0,0.0,0.0,0.0,1.706,1.6723,1.7173,1.7462,0.0,0.0,0.0,0.0,1.8595,1.8676,1.8784,1.8771,1.8414,1.7743,1.7257,1.6099,1.4246,1.333,1.2444,1.1545,0.9701,0.7493,0.5114,0.0,0.0,0.0,0.0,0.0,0.0,0.0,0.0,-0.1811,-0.2686,-0.323,-0.3029,0.02,0.1928,0.286,0.4066,0.4331,0.4259,0.4478,0.4683,0.5011,0.6326,0.685,0.0,0.0,0.0,0.0,0.0,0.0,0.0,0.0,0.0,1.1529,1.3215,1.2789,1.2696,1.4639,1.4755,1.4921,1.6035,1.5851,1.5647,1.5882,1.4488,1.3161,1.2408,1.1034,0.9868,0.9175,0.7734,0.6789,0.6724,0.5568,0.4439,0.3544,0.2487,0.1474,0.0699,0.0141,-0.0142,-0.0141,-0.0138,-0.0204,-0.0203,-0.0202,-0.0202,-0.0202,-0.0202,-0.0269,-0.0336,-0.047,-0.0739,-0.121,-0.1749,-0.2018,-0.2018,-0.2154,-0.2554,-0.3017,-0.3017,-0.2686,-0.2221,0.0,0.0,0.0,0.0,0.0,0.0,0.0,0.0,0.0,0.0,0.0,0.0,0.0,0.0,0.0,0.0,0.0,0.0,0.0,1.8618,1.8684,1.8311,1.8225,1.7643,1.6528,1.6415,1.5487,1.3623,1.3502,1.2776,1.1538,1.0386,0.9192,0.7952,0.0,0.0,0.0,0.0,0.0,0.0,0.0,0.0,-0.0134,0.0938,0.0603,0.0134,0.4646,0.5653,0.4977,0.5946,0.5807,0.5169,0.5373,0.5873,0.6457,0.6654,0.0,0.8355,0.849,0.8941,0.939,0.9454,1.0471,1.1493,0.0,0.0,1.2948,1.3582,1.4048,1.4399,1.4703,1.5468,1.6017,1.5808,1.6037,1.6072,1.5799,1.5224,1.4351,1.297,1.1279,1.0102,0.9924,0.9017,0.8285,0.7832,0.7221,0.5891,0.3623,0.3517,0.2788,0.1121,0.1026,0.104,0.1016,0.1013,0.1,0.0907,0.0953,0.0941,0.0941,0.0941,0.0672,0.0202,-0.0269,-0.0538,-0.0605,-0.1143,-0.1412,-0.148,-0.2018,-0.2221,-0.2287,-0.2287,-0.2288,-0.2221,0.0,0.0,0.0,0.0,0.0,0.0,0.0,0.0,0.0,0.0,0.0,0.0,0.0,0.0,0.0,0.0,0.0,0.0,1.8131,1.8349,1.8338,1.8148,1.8128,1.7699,1.6866,1.6472,1.5545,1.4016,1.3674,1.2621,1.0953,1.0117,0.9291,0.8435,0.0,0.0,0.0,0.0,0.0,0.0,0.0,0.0,0.2614,0.3762,0.3835,0.3533,0.5345,0.5935,0.0,0.0,0.5982,0.5916,0.6241,0.6778,0.7375,0.8012,0.8526,0.0,0.9351,1.0032,0.0,0.0,1.1745,1.2608,1.3404,1.355,1.3721,1.4663,1.4772,1.4906,1.5548,1.6383,1.6978,0.0,1.6997,1.6815,1.6386,1.5268,1.4178,1.3335,1.1968,1.081,1.0072,0.8935,0.8221,0.8027,0.7003,0.6067,0.5145,0.4694,0.4148,0.3647,0.2723,0.2353,0.2401,0.201,0.1688,0.1368,0.142,0.1277,0.1076,0.1076,0.1008,0.0739,0.0202,-0.0067,-0.0067,-0.0605,-0.0807,-0.0874,-0.148,-0.1681,-0.1748,-0.2087,-0.2221,-0.2221,0.0,0.0,0.0,0.0,0.0,0.0,0.0,0.0,0.0,0.0,0.0,0.0,0.0,0.0,0.0,0.0,0.0,0.0,0.0,1.7873,1.785,1.7665,1.7644,0.0,1.6698,1.6255,1.5429,1.4127,1.3734,1.2544,1.0785,0.9939,0.9111,0.8398,0.0,0.0,0.0,0.0,0.0,0.0,0.0,0.0,0.4764,0.5478,0.5965,0.6121,0.5833,0.6121,0.0,0.0,0.668,0.713,0.738,0.7838,0.8386,0.907,0.9309,0.953,1.0369,0.0,0.0,1.1876,1.2741,1.3745,1.438,1.4521,1.4746,1.5794,1.5623,1.5579,1.6615,1.7187,1.7635,1.7831,1.7507,1.7021,1.6413,1.5104,1.4101,1.3743,1.2703,1.1711,1.0802,0.9533,0.8679,0.842,0.7372,0.6522,0.6199,0.5451,0.5018,0.5061,0.3981,0.3447,0.3522,0.3101,0.2602,0.2173,0.2241,0.203,0.1611,0.1344,0.121,0.121,0.0739,0.054,0.0476,-0.0067,-0.027,-0.034,-0.0876,-0.1076,-0.1143,-0.1547,-0.1817,-0.1951,0.0,0.0,0.0,0.0,0.0,0.0,0.0,0.0,0.0,0.0,0.0,0.0,0.0,0.0,0.0,0.0,0.0,0.0,0.0,1.7315,1.7235,1.6585,1.6425,1.6083,1.5468,1.541,1.4815,1.3502,1.3502,1.2813,1.1536,1.0142,0.914,0.8441,0.0,0.0,0.0,0.0,0.0,0.0,0.0,0.0,0.5683,0.5894,0.6582,0.7294,0.7128,0.0,0.0,0.0,0.8498,0.9095,0.8979,0.9289,0.0,0.9377,0.9675,1.0363,0.0,0.0,1.1949,1.154,1.3019,1.4586,1.4271,1.5257,1.6337,1.6789,1.6872,1.707,1.7813,1.7949,1.789,1.7488,1.7066,1.6457,1.53,1.4781,1.4412,1.4124,1.341,1.2848,0.0,1.1402,1.0261,0.9536,0.8975,0.7932,0.6207,0.562,0.4997,0.4143,0.4084,0.4056,0.4056,0.4204,0.4101,0.376,0.3832,0.3573,0.2813,0.1947,0.1614,0.1547,0.121,0.1092,0.1047,0.0476,0.0273,0.0209,-0.034,-0.0538,-0.0538,-0.0538,-0.0874,-0.1277,0.0,0.0,0.0,0.0,0.0,0.0,0.0,0.0,0.0,0.0,0.0,0.0,0.0,0.0,0.0,0.0,0.0,0.0,0.0,1.6726,1.6658,1.6011,1.6213,1.6026,1.541,1.541,1.4756,1.3511,1.3511,1.2631,1.088,1.0366,0.9706,0.8821,0.0,0.0,0.0,0.0,0.0,0.0,0.0,0.0,0.6652,0.669,0.724,0.7934,0.0,0.0,0.0,0.0,0.9247,0.9754,1.0027,0.0,0.0,1.1249,1.1294,1.1453,1.1762,0.0,1.315,1.321,1.4529,1.5802,1.598,1.6354,1.6743,1.6881,1.702,1.7149,1.7416,1.7869,1.8137,1.7995,1.778,1.7402,1.6715,1.6103,1.5588,1.5177,1.4732,0.0,0.0,0.0,0.0,0.9378,0.8769,0.7939,0.6869,0.6587,0.6397,0.6385,0.5813,0.5566,0.5641,0.5265,0.484,0.4319,0.3968,0.3645,0.3411,0.3147,0.2815,0.2414,0.208,0.1775,0.1469,0.102,0.082,0.0768,0.0272,0.0,0.0,0.0,-0.007,-0.0212,0.0,0.0,0.0,0.0,0.0,0.0,0.0,0.0,0.0,0.0,0.0,0.0,0.0,0.0,0.0,0.0,0.0,0.0,0.0,0.0,1.5763,1.5399,1.565,1.5646,1.541,1.541,1.4756,1.3511,1.3657,1.2757,1.0915,1.1095,1.0773,0.9973,0.0,0.0,0.0,0.0,0.0,0.0,0.725,0.7318,0.7519,0.7708,0.8226,0.0,0.0,0.0,0.0,0.0,0.0,0.0,0.0,1.1246,1.1882,1.2829,1.2776,1.2513,1.2964,1.3664,1.4312,1.4327,1.5472,1.6528,1.6489,1.6691,1.6872,1.6725,1.6939,1.722,1.7387,1.7863,1.8299,1.8386,1.791,1.7488,1.7158,1.642,1.589,1.5909,1.5586,1.5034,0.0,0.0,0.0,1.0061,0.9211,0.8432,0.792,0.7301,0.709,0.7382,0.6903,0.6622,0.6697,0.6375,0.5945,0.5434,0.4695,0.4411,0.4345,0.4079,0.3616,0.3082,0.275,0.2319,0.189,0.1651,0.1517,0.1471,0.118,0.1043,0.1052,0.1061,0.1001,0.0791,0.0,0.0,0.0,0.0,0.0,0.0,0.0,0.0,0.0,0.0,0.0,0.0,0.0,0.0,0.0,0.0,0.0,0.0,0.0,0.0,0.0,1.4733,1.4766,1.4971,1.5371,1.5342,1.4756,1.3511,1.3822,1.3186,1.1595,1.2204,1.2179,1.156,1.0194,0.0,0.0,0.0,0.8111,0.7923,0.7899,0.0,0.835,0.8816,0.0,0.0,0.0,0.0,0.0,0.0,0.0,0.0,0.0,1.1495,1.2206,1.4066,1.3987,1.3538,1.5014,1.5528,1.5496,1.4806,1.5824,1.6691,1.6044,1.6385,1.6771,1.6395,1.6788,1.7278,0.0,0.0,1.8312,1.8581,1.7616,1.6777,1.6704,1.5801,1.5487,0.0,0.0,0.0,0.0,0.0,0.0,1.1626,0.0,0.9558,0.9179,0.7829,0.7134,0.7232,0.724,0.724,0.724,0.7382,0.7285,0.7019,0.6109,0.562,0.5627,0.4827,0.4164,0.3634,0.3228,0.2736,0.232,0.232,0.232,0.2184,0.238,0.237,0.2331,0.2386,0.2166,0.1789,0.0,0.0,0.0,0.0,0.0,0.0,0.0,0.0,0.0,0.0,0.0,0.0,0.0,0.0,0.0,0.0,0.0,0.0,0.0,0.0,0.0,0.0,0.0,0.0,0.0,0.0,0.0,0.0,0.0,1.2445,1.1595,1.2218,1.1966,0.0,1.0704,1.0375,0.9979,0.9276,0.8993,0.9143,0.0,0.9316,0.9519,0.0,0.0,0.0,0.0,0.0,0.0,0.0,0.0,0.0,0.0,1.234,1.2951,1.4409,1.4368,1.4128,1.5294,1.5738,1.5844,1.5658,1.6254,1.6908,1.6821,1.667,1.6441,1.634,1.6635,1.7094,0.0,0.0,0.0,1.897,1.7825,0.0,1.758,1.6967,0.0,1.6734,0.0,1.6114,1.4744,1.4785,0.0,0.0,1.1453,1.0355,0.8926,0.8468,0.8045,0.7415,0.7415,0.7415,0.7415,0.72,0.7114,0.7019,0.6451,0.6281,0.6403,0.6207,0.5859,0.5467,0.5115,0.4356,0.3387,0.3169,0.281,0.2308,0.2395,0.2421,0.2449,0.245,0.2407,0.2298,0.0,0.0,0.0,0.0,0.0,0.0,0.0,0.0,0.0,0.0,0.0,0.0,0.0,0.0,0.0,0.0,0.0,0.0,0.0,0.0,0.0,0.0,0.0,0.0,0.0,0.0,0.0,0.0,0.0,0.0,0.0,1.1971,1.185,1.1356,1.127,1.1076,1.0667,0.0,0.0,0.0,0.0,0.0,0.0,0.0,0.0,0.0,0.0,0.0,0.0,0.0,0.0,1.3298,1.3697,1.399,1.4444,1.5677,0.0,1.5689,1.6306,1.6647,1.6742,1.6533,1.683,1.7139,1.6943,1.6671,1.6457,1.6543,1.6911,0.0,0.0,0.0,0.0,0.0,0.0,0.0,1.7552,1.7192,1.6908,0.0,1.7376,0.0,1.4792,1.534,1.4858,0.0,1.1991,1.1169,0.9996,0.9597,0.9063,0.8216,0.806,0.7863,0.7484,0.7212,0.7074,0.707,0.6786,0.6704,0.6867,0.6806,0.6573,0.6154,0.0,0.5365,0.4509,0.4408,0.4033,0.364,0.3499,0.3379,0.3383,0.3194,0.2934,0.2743,0.0,0.0,0.0,0.0,0.0,0.0,0.0,0.0,0.0,0.0,0.0,0.0,0.0,0.0,0.0,0.0,0.0,0.0,0.0,0.0,0.0,0.0,0.0,0.0,0.0,0.0,0.0,0.0,0.0,0.0,0.0,0.0,0.0,0.0,0.0,0.0,0.0,0.0,0.0,0.0,0.0,0.0,0.0,0.0,0.0,0.0,0.0,0.0,0.0,0.0,1.4504,1.3638,1.5167,1.567,1.5891,1.7052,1.729,1.7348,1.756,1.7636,1.7638,1.7373,1.7382,1.7357,1.6797,1.6637,1.6647,1.6807,0.0,1.7955,1.867,1.8584,1.8522,1.8797,0.0,1.6758,1.7378,1.7201,1.6991,1.6991,1.7963,1.7583,1.4913,1.5817,1.5545,1.3013,1.2444,1.1982,1.1522,1.0901,1.0126,0.9163,0.8807,0.8322,0.7484,0.7313,0.7224,0.7224,0.7041,0.7036,0.706,0.706,0.6781,0.6364,0.6364,0.0,0.5507,0.5619,0.558,0.54,0.4983,0.4765,0.4667,0.419,0.3763,0.329,0.0,0.0,0.0,0.0,0.0,0.0,0.0,0.0,0.0,0.0,1.6496,1.645,0.0,0.0,0.0,0.0,0.0,0.0,0.0,0.0,0.0,0.0,0.0,0.0,0.0,0.0,0.0,0.0,0.0,0.0,0.0,0.0,0.0,0.0,0.0,0.0,0.0,0.0,0.0,0.0,0.0,0.0,0.0,0.0,0.0,0.0,0.0,0.0,0.0,0.0,1.5854,1.4408,1.4867,1.495,1.5221,1.6637,1.6812,1.6844,1.7913,1.7995,1.7706,1.7638,1.7588,1.7366,1.6949,1.6855,0.0,0.0,0.0,1.8235,1.9189,1.9206,1.9414,2.0183,0.0,0.0,0.0,0.0,1.7394,0.0,0.0,0.0,0.0,0.0,0.0,0.0,0.0,1.276,1.1605,1.163,1.0937,0.9168,0.8807,0.8322,0.7484,0.7313,0.7224,0.7224,0.7041,0.7033,0.7179,0.7179,0.7178,0.7311,0.7311,0.0,0.6222,0.6325,0.6037,0.5475,0.5445,0.5464,0.5386,0.5338,0.4951,0.4396,0.0,0.0,0.0,0.0,0.0,0.0,0.0,1.63,1.6252,1.6431,1.6451,1.6321,1.6109,1.6295,1.6093,0.0,0.0,0.0,0.0,0.0,0.0,0.0,0.0,0.0,0.0,0.0,0.0,0.0,0.0,0.0,0.0,0.0,0.0,0.0,0.0,0.0,0.0,0.0,0.0,0.0,0.0,0.0,0.0,0.0,0.0,0.0,0.0,0.0,0.0,0.0,1.6347,1.5281,1.6166,1.6437,1.6624,1.7584,1.7539,1.7417,1.8216,1.8132,1.7862,1.7706,1.7562,1.7369,1.7092,0.0,0.0,0.0,0.0,1.9206,2.0347,0.0,0.0,0.0,0.0,0.0,0.0,0.0,0.0,0.0,0.0,0.0,0.0,0.0,0.0,0.0,0.0,1.3517,1.267,1.2364,1.168,1.0423,0.9374,0.8653,0.8093,0.7626,0.7358,0.7358,0.7269,0.7273,0.7358,0.7438,0.7563,0.7642,0.7723,0.0,0.7242,0.7242,0.6999,0.6652,0.6256,0.6083,0.6099,0.586,0.5541,0.5229,0.0,0.0,0.0,0.0,0.0,0.0,0.0,1.6501,1.6385,1.6546,1.6378,1.6106,1.5828,1.6464,1.6363,0.0,0.0,0.0,0.0,0.0,0.0,0.0,0.0,0.0,0.0,0.0,0.0,0.0,0.0,0.0,0.0,0.0,0.0,0.0,0.0,0.0,0.0,0.0,0.0,0.0,0.0,0.0,0.0,0.0,0.0,0.0,0.0,0.0,0.0,0.0,1.7006,1.6402,1.7514,1.7871,1.7959,1.8379,1.8271,1.8037,1.8334,1.8211,1.794,1.7784,1.7687,1.7424,1.7185,1.7412,0.0,0.0,1.9173,2.0325,2.1341,0.0,0.0,0.0,0.0,0.0,0.0,0.0,0.0,0.0,0.0,0.0,0.0,0.0,0.0,0.0,0.0,0.0,1.3748,1.3028,1.2289,1.1685,1.0437,0.9531,0.9029,0.8413,0.8005,0.7723,0.7804,0.7723,0.7561,0.7723,0.7804,0.7885,0.7966,0.0,0.0,0.7878,0.7865,0.7804,0.7161,0.6923,0.6842,0.6444,0.6126,0.5899,0.0,0.0,0.0,0.0,0.0,0.0,0.0,1.6478,1.621,1.71,1.6385,1.5825,1.6064,1.6748,1.681,0.0,0.0,0.0,0.0,0.0,0.0,0.0,0.0,0.0,0.0,0.0,0.0,0.0,0.0,0.0,0.0,0.0,0.0,0.0,0.0,0.0,0.0,0.0,0.0,0.0,0.0,0.0,0.0,0.0,0.0,0.0,0.0,0.0,0.0,0.0,0.0,1.8201,1.7656,1.7441,1.7529,1.7939,0.0,0.0,1.8455,1.833,1.8008,1.8008,1.7978,1.7784,1.7243,0.0,0.0,1.8522,1.9812,2.1038,2.1666,2.2218,0.0,0.0,0.0,2.0136,0.0,0.0,0.0,0.0,0.0,0.0,0.0,0.0,0.0,0.0,0.0,0.0,1.4048,1.3453,1.2853,1.2298,1.1906,1.1232,1.0142,1.0063,0.9541,0.8611,0.8774,0.8453,0.7804,0.7885,0.7966,0.7966,0.7966,0.0,0.0,0.8012,0.799,0.7966,0.7885,0.7885,0.7885,0.7723,0.7226,0.6681,0.0,0.0,0.0,0.0,0.0,0.0,1.6797,1.642,1.6416,1.7209,1.6449,1.6045,1.6564,1.6675,1.6496,1.6148,0.0,0.0,0.0,0.0,0.0,0.0,0.0,0.0,0.0,0.0,0.0,0.0,0.0,0.0,0.0,0.0,0.0,0.0,0.0,0.0,0.0,0.0,0.0,0.0,0.0,0.0,0.0,0.0,0.0,0.0,0.0,0.0,0.0,0.0,0.0,0.0,1.749,1.7383,0.0,0.0,1.8008,1.8105,1.8525,1.833,1.8008,1.8008,1.7822,1.7656,1.7667,0.0,1.8813,1.8842,2.0021,2.1218,2.1857,2.2556,2.2822,0.0,0.0,0.0,0.0,0.0,0.0,0.0,0.0,0.0,0.0,0.0,0.0,0.0,0.0,0.0,1.4088,1.3861,1.3543,1.3136,1.2569,1.1956,1.1303,1.0861,1.0395,0.997,1.0056,0.9925,0.9612,0.9217,0.9011,0.9011,0.8572,0.0,0.0,0.8201,0.8213,0.8138,0.8046,0.7963,0.8046,0.805,0.787,0.7526,0.0,0.0,0.0,0.0,0.0,1.6567,1.6752,1.6548,1.6586,1.7155,1.6442,1.6106,1.6586,1.6253,1.6029,1.6226,1.637,0.0,0.0,0.0,0.0,0.0,0.0,0.0,0.0,0.0,0.0,0.0,0.0,0.0,0.0,0.0,0.0,0.0,0.0,0.0,0.0,0.0,0.0,0.0,0.0,0.0,0.0,0.0,0.0,0.0,0.0,0.0,0.0,0.0,0.0,0.0,0.0,0.0,0.0,0.0,1.7998,1.8232,1.8408,1.832,1.8164,1.8037,1.7793,1.7676,0.0,0.0,1.9233,1.9766,2.0844,2.1975,2.2853,2.3435,2.3546,2.2886,0.0,2.1722,0.0,0.0,0.0,0.0,0.0,0.0,0.0,0.0,0.0,0.0,0.0,0.0,1.4354,1.4345,1.4183,1.3781,1.3213,1.2732,1.2475,1.1897,1.1444,1.1187,1.1207,1.0993,1.0496,1.0015,0.9602,0.9306,0.884,0.0,0.0,0.8472,0.8384,0.838,0.8201,0.8197,0.8201,0.8288,0.8201,0.8109,0.0,0.0,0.0,0.0,0.0,0.0,1.7287,1.6883,1.6633,1.7049,1.63,1.5741,1.5792,1.5471,1.5442,1.6047,1.6865,0.0,0.0,0.0,0.0,0.0,0.0,0.0,0.0,0.0,0.0,1.4469,1.3812,0.0,0.0,0.0,0.0,0.0,0.0,0.0,0.0,0.0,0.0,0.0,0.0,0.0,1.8641,0.0,0.0,0.0,0.0,0.0,0.0,0.0,0.0,0.0,0.0,0.0,0.0,0.0,1.7978,1.8545,1.8125,1.832,1.8525,1.8115,1.8008,1.8115,0.0,1.8965,1.9796,2.1473,2.2482,2.35,2.4848,2.4929,2.46,2.382,2.2668,0.0,0.0,0.0,0.0,0.0,0.0,0.0,0.0,0.0,0.0,0.0,0.0,0.0,1.4967,1.4984,1.4754,1.4088,1.4082,1.3893,1.36,1.3594,1.3031,1.2001,1.2187,1.1359,0.9728,0.9827,0.9434,0.0,0.0,0.0,0.0,0.8568,0.8568,0.8568,0.8568,0.8568,0.8564,0.838,0.8292,0.8292,0.0,0.0,0.0,0.0,0.0,0.0,0.0,1.6554,1.6618,1.7217,1.6785,1.6389,1.649,1.6195,1.6009,1.6076,1.6045,0.0,0.0,0.0,0.0,0.0,0.0,0.0,0.0,0.0,1.5653,1.5118,1.4462,1.4204,1.4181,0.0,0.0,0.0,0.0,0.0,0.0,0.0,0.0,0.0,0.0,1.8497,1.9123,0.0,0.0,0.0,0.0,0.0,0.0,0.0,0.0,0.0,0.0,0.0,0.0,0.0,0.0,0.0,1.8047,1.8105,1.8174,1.8047,1.8008,1.8115,1.8545,1.9199,2.0088,2.1621,2.26,2.3594,2.4848,2.4858,2.4541,2.4135,2.286,0.0,0.0,0.0,0.0,0.0,0.0,0.0,0.0,0.0,0.0,0.0,0.0,0.0,1.4974,1.4984,1.4853,1.4375,1.4375,1.4271,1.3899,1.3899,1.3795,1.3425,1.3516,1.3231,1.2675,1.2066,1.1652,0.0,0.0,0.0,0.0,0.949,0.9121,0.8568,0.8568,0.8568,0.8568,0.8564,0.8476,0.8476,0.0,0.0,0.0,0.0,0.0,0.0,0.0,1.6479,1.656,1.6891,1.6739,1.6607,1.6683,1.6375,1.6136,1.6177,1.5684,0.0,0.0,0.0,0.0,0.0,0.0,0.0,0.0,1.6455,1.6103,1.5654,1.5223,1.5025,1.5068,1.4187,1.3769,0.0,0.0,0.0,0.0,0.0,0.0,0.0,1.8543,1.9008,1.9531,0.0,0.0,0.0,0.0,0.0,0.0,0.0,0.0,0.0,0.0,0.0,0.0,0.0,1.8701,0.0,0.0,1.8496,1.8496,1.8496,1.8496,0.0,1.9228,2.0064,2.1116,2.2822,2.3705,2.4588,2.5893,2.5688,2.5117,2.4881,2.3444,0.0,0.0,0.0,0.0,0.0,0.0,0.0,0.0,0.0,0.0,0.0,0.0,0.0,1.5312,1.528,1.5151,1.4845,1.4706,1.4572,1.4467,1.4284,1.4271,1.4271,1.4179,1.399,1.3711,1.309,1.2713,0.0,0.0,0.0,0.0,1.0796,1.0135,0.9301,0.9301,0.9024,0.8568,0.8568,0.8568,0.8568,0.0,0.0,0.0,0.0,0.0,0.0,0.0,1.6522,1.6436,1.6231,1.6327,1.6468,1.6482,1.6166,1.5991,1.6213,0.0,0.0,0.0,0.0,0.0,0.0,0.0,0.0,0.0,1.6719,1.6484,1.6125,1.5921,1.5911,1.6064,1.4773,1.4329,1.4634,1.4606,0.0,0.0,0.0,0.0,0.0,1.9685,1.957,0.0,0.0,0.0,0.0,0.0,0.0,0.0,0.0,0.0,0.0,0.0,0.0,0.0,0.0,0.0,0.0,0.0,0.0,0.0,0.0,0.0,0.0,0.0,2.1379,0.0,2.4836,2.5661,2.6405,2.7706,2.7162,2.6358,2.581,2.4238,0.0,0.0,0.0,0.0,0.0,0.0,0.0,0.0,0.0,0.0,0.0,0.0,0.0,1.5832,1.5832,1.5724,1.5406,1.5178,1.5078,1.4986,1.4695,1.4555,1.4558,1.4277,1.3802,1.3237,1.3222,1.2966,0.0,0.0,0.0,0.0,1.2303,1.1605,1.0529,1.0446,0.9689,0.8656,0.8693,0.8605,0.8584,0.0,0.0,0.0,0.0,0.0,0.0,0.0,0.0,0.0,0.0,1.67,1.6657,1.6171,1.6208,1.609,0.0,0.0,0.0,0.0,0.0,0.0,0.0,0.0,0.0,0.0,1.6572,1.6172,1.6125,1.5794,1.5776,1.6064,1.5503,1.5438,1.5708,1.5321,1.5099,0.0,0.0,0.0,0.0,2.0138,1.9932,0.0,0.0,0.0,0.0,1.8047,1.8076,0.0,0.0,0.0,0.0,0.0,0.0,0.0,0.0,1.9766,1.9834,2.0176,0.0,1.9365,1.9687,1.9766,0.0,0.0,0.0,0.0,0.0,0.0,2.7128,2.7995,2.7244,2.6374,2.6121,2.4116,2.276,0.0,0.0,0.0,0.0,0.0,0.0,0.0,0.0,0.0,0.0,0.0,1.5832,1.5832,1.5832,1.573,1.5724,1.5671,1.5418,1.5002,1.4903,1.4874,1.486,1.4853,1.467,1.4592,1.4514,1.4488,0.0,0.0,0.0,1.3263,1.3229,1.2534,1.1452,1.0795,1.0178,0.9529,0.9138,0.8862,0.8763,0.0,0.0,0.0,0.0,0.0,0.0,0.0,0.0,0.0,0.0,0.0,0.0,0.0,0.0,0.0,0.0,0.0,0.0,0.0,0.0,0.0,0.0,0.0,0.0,1.6777,1.6514,1.6269,1.6125,1.6119,1.6109,1.6125,1.5918,1.5804,1.5762,1.5802,1.5662,0.0,0.0,0.0,1.993,2.0118,0.0,0.0,0.0,0.0,0.0,1.8008,1.8008,0.0,1.8232,1.8574,1.8965,0.0,0.0,0.0,0.0,2.0215,2.0312,2.0752,2.0529,2.0249,2.0692,2.1237,2.1956,0.0,0.0,0.0,0.0,0.0,0.0,2.7699,2.7267,0.0,2.6095,2.4682,0.0,0.0,0.0,0.0,0.0,0.0,0.0,0.0,0.0,0.0,0.0,0.0,1.6265,1.5832,1.5832,1.5832,1.5832,1.594,1.5832,1.5399,1.5292,1.5199,1.5191,1.5089,1.5089,1.5212,1.5225,1.5292,0.0,0.0,0.0,1.4646,1.4622,1.389,1.2751,1.2161,1.1489,1.0705,1.0301,1.0148,1.0159,0.0,0.0,0.0,0.0,0.0,0.0,0.0,0.0,0.0,0.0,0.0,0.0,0.0,0.0,0.0,0.0,0.0,0.0,0.0,0.0,0.0,0.0,0.0,1.6484,1.6172,1.6406,1.6377,1.6125,1.6514,1.6543,1.6172,1.623,1.5996,1.5527,1.6117,1.6052,0.0,0.0,0.0,2.0522,2.0023,0.0,0.0,0.0,0.0,0.0,0.0,0.0,0.0,1.8613,1.9023,1.9443,1.9944,0.0,0.0,0.0,0.0,0.0,2.1431,2.1609,2.1766,2.2018,2.2979,2.3985,0.0,0.0,0.0,0.0,0.0,0.0,0.0,0.0,0.0,0.0,0.0,0.0,0.0,0.0,0.0,0.0,0.0,0.0,0.0,0.0,0.0,0.0,0.0,1.6918,1.6048,1.5896,1.5807,1.5838,1.615,1.6157,1.5832,1.5622,1.5615,1.5514,1.5298,1.5298,1.5507,1.5507,1.5615,1.5832,0.0,0.0,1.5832,1.5832,1.5143,1.4173,1.3854,1.3068,1.1987,1.1673,1.1623,1.182,0.0,0.0,0.0,0.0,0.0,0.0,0.0,0.0,0.0,0.0,0.0,0.0,0.0,0.0,0.0,0.0,0.0,0.0,0.0,0.0,0.0,0.0,1.6162,1.6309,1.6621,1.5967,1.5762,1.6125,1.6514,1.6699,1.6641,1.7002,1.6748,1.5986,1.6436,1.6587,1.6577,0.0,0.0,2.0553,2.0529,0.0,0.0,0.0,0.0,0.0,0.0,0.0,0.0,1.9377,1.9473,1.9974,2.0683,0.0,0.0,0.0,0.0,0.0,2.2789,2.3466,2.4178,2.3591,2.3902,2.4768,0.0,0.0,0.0,0.0,0.0,0.0,0.0,0.0,0.0,0.0,0.0,0.0,0.0,0.0,0.0,0.0,0.0,0.0,0.0,0.0,0.0,0.0,0.0,1.7246,1.7035,1.6546,1.6062,1.5763,1.615,1.6157,1.5832,1.6265,1.6374,1.6157,1.615,1.5947,1.573,1.573,1.573,1.5832,0.0,1.5832,1.5832,1.5832,1.5558,1.512,1.4477,1.387,1.3302,1.2664,1.228,1.1877,0.0,0.0,0.0,0.0,0.0,0.0,0.0,0.0,0.0,0.0,0.0,0.0,0.0,0.0,0.0,0.0,0.0,0.0,0.0,0.0,0.0,1.6135,1.6125,1.6055,1.6016,1.6094,1.6103,1.6125,1.6514,1.6665,1.6675,1.6943,1.6689,1.6164,1.7012,1.7387,1.7485,1.8695,0.0,2.0611,0.0,0.0,0.0,0.0,0.0,0.0,0.0,0.0,0.0,0.0,2.0118,2.0102,2.1148,0.0,0.0,0.0,0.0,0.0,2.3656,2.431,2.4956,2.511,2.5262,2.5512,0.0,0.0,0.0,0.0,0.0,0.0,0.0,0.0,0.0,0.0,0.0,0.0,0.0,0.0,0.0,0.0,0.0,0.0,0.0,0.0,0.0,0.0,0.0,0.0,1.678,1.646,1.6203,1.6091,1.6217,1.6313,1.6299,1.6751,1.6691,1.6319,1.6341,1.6246,1.6049,1.6248,1.6122,1.5838,0.0,1.5979,1.5832,1.5832,1.5752,1.5538,1.5036,1.4775,1.4577,1.4266,1.4005,1.3792,0.0,0.0,0.0,0.0,0.0,0.0,0.0,0.0,0.0,0.0,0.0,0.0,0.0,0.0,0.0,0.0,0.0,0.0,0.0,0.0,1.6728,1.6387,1.6269,1.6016,1.5566,1.623,1.6455,1.6221,1.667,1.6934,1.6967,1.6967,1.6846,1.6562,1.7666,1.8201,1.8276,1.9309,2.007,2.0644,0.0,0.0,0.0,0.0,0.0,0.0,0.0,0.0,0.0,0.0,0.0,0.0,0.0,0.0,0.0,2.2574,2.326,2.4041,2.4602,2.5207,2.571,2.6329,0.0,0.0,0.0,0.0,0.0,0.0,0.0,0.0,0.0,0.0,0.0,0.0,0.0,0.0,0.0,0.0,0.0,0.0,0.0,0.0,0.0,0.0,0.0,0.0,0.0,0.0,1.7367,1.6952,1.6766,1.6627,1.6522,1.6549,1.666,1.6907,1.6753,1.6374,1.6488,1.6414,1.6281,1.6473,1.6388,1.5939,1.6099,1.6039,1.5832,1.5832,1.5832,1.5805,1.5585,1.5498,1.5491,1.5424,1.5398,1.5398,0.0,0.0,0.0,0.0,0.0,0.0,0.0,0.0,0.0,0.0,0.0,0.0,0.0,0.0,0.0,0.0,0.0,0.0,0.0,0.0,1.7324,1.7295,1.6904,1.6475,1.6086,1.6135,1.6299,1.668,1.7119,1.7539,1.792,1.792,1.79,1.7891,1.8379,1.8657,1.8879,1.9613,2.0166,2.0644,2.1385,0.0,0.0,0.0,0.0,0.0,0.0,0.0,0.0,0.0,0.0,0.0,0.0,0.0,2.4047,2.4862,2.5791,2.6569,2.6127,2.6701,2.7423,2.694,0.0,0.0,0.0,0.0,0.0,0.0,0.0,0.0,0.0,0.0,0.0,0.0,0.0,0.0,0.0,0.0,0.0,0.0,0.0,0.0,0.0,0.0,0.0,0.0,0.0,0.0,2.0046,1.876,1.7946,1.7682,1.7317,1.7042,1.6737,1.65,1.646,1.6619,1.6941,1.6847,1.6279,1.6313,1.6293,1.6226,1.5972,1.5845,1.5832,1.5832,1.5832,1.5825,1.5805,1.5798,1.5765,1.5498,1.5398,1.5299,0.0,0.0,0.0,0.0,0.0,0.0,0.0,0.0,0.0,0.0,0.0,0.0,0.0,0.0,0.0,0.0,0.0,0.0,0.0,0.0,1.778,1.7393,1.6963,1.6777,1.6885,1.6885,1.6836,1.6665,1.7432,1.7852,1.8018,1.8281,1.8398,1.8428,1.9121,1.9438,1.9594,2.0637,2.1156,2.1385,2.169,2.2349,0.0,0.0,0.0,0.0,0.0,0.0,0.0,0.0,2.3169,2.2777,2.4181,2.4372,2.425,2.4865,2.5704,2.6442,2.6586,2.6911,0.0,0.0,0.0,0.0,0.0,0.0,0.0,0.0,0.0,0.0,0.0,0.0,0.0,0.0,0.0,0.0,0.0,0.0,0.0,0.0,0.0,0.0,0.0,0.0,0.0,0.0,0.0,0.0,1.9036,1.7867,1.733,1.7434,1.7062,1.682,1.67,1.656,1.66,1.6706,1.6854,1.6921,1.682,1.682,1.662,1.6266,1.6152,1.5999,1.5832,1.5832,1.5832,1.5832,1.5832,1.5832,1.5812,1.5705,1.5665,1.5571,0.0,0.0,0.0,0.0,0.0,0.0,0.0,0.0,0.0,0.0,0.0,0.0,0.0,0.0,0.0,0.0,0.0,0.0,1.8839,1.8664,1.8332,1.7909,1.7288,1.708,1.7373,1.7383,1.7305,1.7129,1.7588,1.7881,1.8018,1.8567,1.8844,1.9014,1.9958,2.0508,2.066,2.1563,2.1997,2.2209,2.2424,2.3158,0.0,0.0,0.0,0.0,0.0,0.0,0.0,0.0,2.4214,2.3828,2.4911,2.5005,2.4795,2.5145,2.5642,2.6226,2.6779,2.7055,2.7236,0.0,0.0,0.0,0.0,0.0,0.0,0.0,0.0,0.0,0.0,0.0,0.0,0.0,0.0,0.0,0.0,0.0,0.0,0.0,0.0,0.0,0.0,0.0,0.0,0.0,0.0,0.0,0.0,1.8656,1.8273,1.8498,1.7603,1.72,1.72,1.6812,1.666,1.684,1.6653,1.672,1.7007,1.7007,1.674,1.6266,1.6172,1.6019,1.5832,1.5832,1.5832,1.5832,1.5832,1.5832,1.5832,1.5832,1.5832,1.5832,0.0,0.0,0.0,0.0,0.0,0.0,0.0,0.0,0.0,0.0,0.0,0.0,0.0,0.0,0.0,0.0,0.0,0.0,1.9438,1.9177,1.9044,1.8977,1.7985,1.7383,1.7393,1.7458,1.7598,1.7998,1.7588,1.7598,1.8008,1.8865,1.937,1.9748,2.0952,2.1778,2.2165,2.2237,2.2521,2.3106,2.3829,2.412,0.0,0.0,0.0,0.0,0.0,0.0,0.0,0.0,2.5557,2.5027,2.5874,2.6105,2.6105,2.6105,2.6105,2.6238,2.6791,2.732,0.0,0.0,0.0,0.0,0.0,0.0,0.0,0.0,0.0,0.0,0.0,0.0,0.0,0.0,0.0,0.0,0.0,0.0,0.0,0.0,0.0,0.0,0.0,0.0,0.0,0.0,0.0,0.0,0.0,2.1655,2.1292,2.13,1.9259,1.8192,1.8192,1.6911,1.6567,1.7141,1.6553,1.6433,1.6714,1.6707,1.6547,1.6259,1.5959,1.5832,1.5832,1.5832,1.5832,1.5832,1.5832,1.5832,1.5832,1.5832,1.5832,1.5832,0.0,0.0,0.0,0.0,0.0,0.0,0.0,0.0,0.0,0.0,0.0,0.0,0.0,0.0,0.0,0.0,0.0,0.0,2.0922,2.0448,1.9814,1.9044,1.8424,1.8212,1.8517,1.9435,1.9285,1.8208,1.8961,1.9145,1.8772,1.9809,2.0261,2.0364,2.1101,2.1718,2.2248,2.282,2.3315,2.3852,2.4425,2.4807,2.4897,0.0,0.0,0.0,0.0,0.0,0.0,0.0,0.0,0.0,2.6608,2.6683,2.6683,2.6683,2.6947,2.7272,2.744,2.7332,0.0,0.0,0.0,0.0,0.0,0.0,0.0,0.0,0.0,0.0,0.0,0.0,0.0,0.0,0.0,0.0,0.0,0.0,0.0,0.0,0.0,0.0,0.0,0.0,0.0,0.0,0.0,0.0,0.0,1.97,1.9023,1.9392,1.7896,1.7303,1.7523,1.6927,1.666,1.6834,1.666,1.684,1.7301,1.668,1.6466,1.6547,1.6046,1.5832,1.5832,1.5832,1.5832,1.5832,1.5832,1.5832,1.5832,1.5832,1.5832,1.5858,0.0,0.0,0.0,0.0,0.0,0.0,0.0,0.0,0.0,0.0,0.0,0.0,0.0,0.0,0.0,0.0,0.0,0.0,0.0,2.1072,2.0295,1.9285,1.935,1.9581,2.0048,2.1083,2.0986,1.9695,1.9987,1.9943,1.9543,2.0521,2.0918,2.0809,2.1643,2.2343,2.2878,2.3179,2.3805,2.4587,2.4903,2.5146,2.5289,0.0,0.0,0.0,0.0,0.0,0.0,0.0,0.0,0.0,2.7248,2.7248,2.72,2.6995,2.7007,2.7079,2.7079,0.0,0.0,0.0,0.0,0.0,0.0,0.0,0.0,0.0,0.0,0.0,0.0,0.0,0.0,0.0,0.0,0.0,0.0,0.0,0.0,0.0,0.0,0.0,0.0,0.0,0.0,0.0,0.0,0.0,0.0,2.0254,1.9766,2.0327,1.9025,1.8331,1.8254,1.7944,1.7358,1.67,1.6861,1.7059,1.7215,1.6567,1.6366,1.6506,1.6032,1.5832,1.5832,1.5832,1.5832,1.5832,1.5832,1.5832,1.5832,1.5832,1.5832,1.5852,0.0,0.0,0.0,0.0,0.0,0.0,0.0,0.0,0.0,0.0,0.0,0.0,0.0,0.0,0.0,0.0,0.0,0.0,0.0,0.0,2.0595,1.9616,2.0451,2.1239,2.1793,2.2469,2.2567,2.2012,2.0913,2.0333,2.0224,2.0951,2.1267,2.1152,2.24,2.3232,2.3761,2.334,2.4014,2.5312,2.5277,2.5336,2.536,2.5901,0.0,0.0,0.0,0.0,0.0,0.0,0.0,0.0,2.7741,2.7753,2.7693,2.7164,2.6647,2.625,2.625,0.0,0.0,0.0,0.0,0.0,0.0,0.0,0.0,0.0,0.0,0.0,0.0,0.0,0.0,0.0,0.0,0.0,0.0,0.0,0.0,0.0,0.0,0.0,0.0,0.0,0.0,0.0,0.0,0.0,0.0,2.2208,2.2317,2.269,2.1395,2.0437,1.9618,1.9375,1.8408,1.666,1.6985,1.7007,1.6653,1.6366,1.6233,1.6219,1.5945,1.5832,1.5832,1.5832,1.5832,1.5832,1.5832,1.5832,1.5832,1.5832,1.5832,1.5832,0.0,0.0,0.0,0.0,0.0,0.0,0.0,0.0,0.0,0.0,0.0,0.0,0.0,0.0,0.0,0.0,0.0,0.0,0.0,0.0,2.0641,2.0144,2.1156,2.1911,2.248,2.3579,2.3692,2.2774,2.2123,2.1525,2.1124,2.1318,2.1379,2.1342,2.2063,2.2883,2.3761,2.334,2.4014,2.5336,2.5302,2.5326,2.5372,2.6106,2.5961,0.0,0.0,0.0,0.0,0.0,0.0,0.0,2.7849,2.8005,2.8234,2.7705,2.7464,2.738,0.0,2.7067,0.0,0.0,0.0,0.0,0.0,0.0,0.0,0.0,0.0,0.0,0.0,0.0,0.0,0.0,0.0,0.0,0.0,0.0,0.0,0.0,0.0,0.0,0.0,0.0,0.0,0.0,0.0,0.0,2.1878,2.1423,2.1145,2.1214,2.0193,1.9375,1.8572,1.8253,1.7548,0.0,1.6427,1.6434,1.6359,1.6059,1.5925,1.5919,1.5858,1.5832,1.5832,1.5832,1.5832,1.5832,1.5832,1.5832,1.5832,1.5832,1.5832,1.5865,0.0,0.0,0.0,0.0,0.0,0.0,0.0,0.0,0.0,0.0,0.0,0.0,0.0,0.0,0.0,0.0,0.0,0.0,0.0,0.0,2.0996,2.1581,2.2145,2.2897,2.3896,2.4539,2.4638,2.4097,2.3328,0.0,0.0,0.0,0.0,2.1813,2.2606,2.3256,2.3773,2.3589,2.416,2.5324,2.5278,2.5314,2.5372,2.6009,2.6058,2.5925,2.6942,0.0,0.0,0.0,0.0,0.0,0.0,0.0,2.8402,2.7885,2.7717,2.7609,0.0,0.0,0.0,0.0,0.0,0.0,0.0,0.0,0.0,0.0,0.0,0.0,0.0,0.0,0.0,0.0,0.0,0.0,0.0,0.0,0.0,0.0,0.0,0.0,0.0,0.0,0.0,0.0,0.0,2.2153,2.1759,2.1382,2.1296,2.1463,2.1,2.0429,1.9642,1.9868,1.9217,1.769,1.8006,1.7749,1.6724,1.6238,1.5965,1.5832,1.5832,1.5832,1.5832,1.5832,1.5832,1.5832,1.5832,1.5832,1.5845,1.5985,1.6039,1.6086,0.0,0.0,0.0,0.0,0.0,0.0,0.0,0.0,0.0,0.0,0.0,0.0,0.0,0.0,0.0,0.0,0.0,0.0,0.0,0.0,0.0,2.2642,2.2883,2.3628,2.5011,2.5131,2.5131,2.5035,0.0,0.0,0.0,0.0,0.0,2.2234,2.3111,2.3604,2.3785,2.3871,2.442,2.5312,2.5312,2.5312,2.536,2.5793,0.0,2.6324,2.6992,2.7678,2.8163,2.8288,0.0,0.0,0.0,0.0,2.8426,2.7993,2.7789,2.7524,0.0,0.0,0.0,0.0,0.0,0.0,0.0,0.0,0.0,0.0,0.0,0.0,0.0,0.0,0.0,0.0,0.0,0.0,0.0,0.0,0.0,0.0,0.0,0.0,0.0,0.0,0.0,0.0,0.0,2.2153,2.1759,2.1869,2.2034,2.2217,2.2364,2.1955,2.1096,2.1635,2.0997,1.9115,1.957,1.8788,1.7059,1.6464,1.6059,1.5832,1.5832,1.5832,1.5832,1.5832,1.5832,1.5832,1.5832,1.5832,1.5865,1.6166,1.6273,1.6319,0.0,0.0,0.0,0.0,0.0,0.0,0.0,0.0,0.0,0.0,0.0,0.0,0.0,0.0,0.0,0.0,0.0,0.0,0.0,0.0,0.0,2.156,2.2486,2.3292,2.3965,2.441,2.441,2.3977,0.0,0.0,0.0,0.0,0.0,2.2197,0.0,0.0,2.3851,2.4141,2.4643,2.5312,2.5312,2.5312,2.5312,0.0,0.0,0.0,2.5611,2.6079,2.6809,2.7363,2.7687,0.0,0.0,0.0,2.8498,2.8426,2.8077,2.7693,0.0,0.0,0.0,0.0,0.0,0.0,0.0,0.0,0.0,0.0,0.0,0.0,0.0,0.0,0.0,0.0,0.0,0.0,0.0,0.0,0.0,0.0,0.0,0.0,0.0,0.0,0.0,0.0,2.2327,2.2153,2.1759,2.2318,2.24,2.1841,2.2502,2.2075,2.0412,2.0534,1.9962,1.8859,1.8079,1.7131,1.6021,1.5872,1.5865,1.5832,1.5832,1.5832,1.5832,1.5832,1.5832,1.5832,1.5832,1.5832,1.5865,1.6166,1.6273,1.6319,0.0,0.0,0.0,0.0,0.0,0.0,0.0,0.0,0.0,0.0,0.0,0.0,0.0,0.0,0.0,0.0,0.0,0.0,0.0,0.0,0.0,2.1356,2.2125,2.2919,2.3749,2.4266,2.441,0.0,0.0,0.0,0.0,2.3713,2.3352,0.0,0.0,0.0,0.0,0.0,0.0,2.5326,2.531,2.5312,0.0,0.0,0.0,0.0,0.0,0.0,0.0,2.7268,2.7615,2.7813,2.8342,0.0,0.0,0.0,0.0,0.0,0.0,0.0,0.0,0.0,0.0,0.0,0.0,0.0,0.0,0.0,0.0,0.0,0.0,0.0,0.0,0.0,0.0,0.0,0.0,0.0,0.0,0.0,0.0,0.0,0.0,0.0,0.0,0.0,2.2547,2.2401,2.1768,2.208,2.2107,2.175,2.2089,2.1817,2.1087,2.0529,1.9795,1.8788,1.8334,1.7598,1.6574,1.6015,1.5832,1.5832,1.5832,1.5832,1.5832,1.5832,1.5832,1.5832,1.5832,1.5832,1.5885,1.6346,1.6513,1.658,0.0,0.0,0.0,0.0,0.0,0.0,0.0,0.0,0.0,0.0,0.0,0.0,0.0,0.0,0.0,0.0,0.0,0.0,0.0,0.0,0.0,2.1356,2.1777,2.2546,2.3749,2.4133,0.0,0.0,0.0,0.0,2.4723,2.4723,2.4518,0.0,2.4278,0.0,0.0,0.0,0.0,0.0,0.0,0.0,0.0,0.0,0.0,0.0,0.0,0.0,0.0,0.0,0.0,0.0,0.0,0.0,0.0,0.0,0.0,0.0,0.0,0.0,0.0,0.0,0.0,0.0,0.0,0.0,0.0,0.0,0.0,0.0,0.0,0.0,0.0,0.0,0.0,0.0,0.0,0.0,0.0,0.0,0.0,0.0,0.0,0.0,0.0,0.0,2.2777,2.251,2.1777,2.1832,2.1841,2.1741,2.1832,2.1841,2.1741,2.0997,2.0158,1.9155,1.9155,1.8611,1.7692,1.6943,1.6567,1.6567,1.6015,1.5832,1.5832,1.5832,1.5832,1.5832,1.5832,1.5832,1.5899,1.6493,1.6707,1.6787,0.0,0.0,0.0,0.0,0.0,0.0,0.0,0.0,0.0,0.0,0.0,0.0,0.0,0.0,1.9247,1.9271,1.9117,1.8999,1.8987,1.9011,1.9744,2.1332,2.1428,0.0,2.3737,2.3797,0.0,0.0,0.0,0.0,2.5264,2.5264,2.5252,2.518,2.423,2.3797,2.3797,0.0,0.0,0.0,0.0,2.5312,0.0,0.0,0.0,0.0,0.0,0.0,0.0,0.0,0.0,0.0,0.0,0.0,0.0,0.0,0.0,0.0,0.0,0.0,0.0,0.0,0.0,0.0,0.0,0.0,0.0,0.0,0.0,0.0,0.0,0.0,0.0,0.0,0.0,0.0,0.0,0.0,0.0,0.0,0.0,0.0,0.0,0.0,0.0,0.0,2.2848,2.251,2.1777,2.2089,2.2116,2.175,2.2098,2.2116,2.1741,2.1642,2.1177,2.0249,2.0249,1.9704,1.8703,1.8696,1.8603,1.8511,1.6662,1.5832,1.5832,1.5832,1.5832,1.5832,1.5832,1.5832,1.5899,1.6493,1.6707,1.6787,0.0,0.0,0.0,0.0,0.0,0.0,0.0,0.0,0.0,0.0,0.0,0.0,0.0,2.0118,2.0067,1.9978,1.9747,1.9643,1.9643,1.9239,1.972,2.1332,2.1404,2.2149,2.3737,0.0,0.0,0.0,0.0,2.5119,2.5312,2.5312,2.5312,2.5276,2.4566,2.4254,2.4266,2.4446,0.0,0.0,2.5095,2.5107,0.0,0.0,0.0,0.0,0.0,0.0,0.0,0.0,0.0,0.0,0.0,0.0,0.0,0.0,0.0,0.0,0.0,0.0,0.0,0.0,0.0,0.0,0.0,0.0,0.0,0.0,0.0,0.0,0.0,0.0,0.0,0.0,0.0,0.0,0.0,0.0,0.0,0.0,0.0,0.0,0.0,0.0,0.0,0.0,0.0,2.3167,2.2153,2.2245,2.2144,2.175,2.1878,2.1599,2.0808,2.1365,2.0907,1.9338,1.9977,1.9795,1.8788,1.8788,1.8427,1.7785,1.7044,1.6763,1.6669,1.6109,1.5832,1.5845,1.6039,1.6112,1.6186,1.6774,1.6987,1.7048,0.0,0.0,0.0,0.0,0.0,0.0,0.0,0.0,0.0,0.0,0.0,0.0,0.0,0.0,2.0985,2.0847,2.0681,2.0656,2.0888,2.0456,2.0951,2.2608,2.2211,2.2898,2.5033,2.4909,0.0,0.0,0.0,0.0,0.0,0.0,2.5312,2.5288,2.4939,0.0,0.0,0.0,0.0,2.4566,0.0,2.5095,2.4783,0.0,0.0,0.0,0.0,0.0,0.0,0.0,0.0,0.0,0.0,0.0,0.0,0.0,0.0,0.0,0.0,0.0,0.0,0.0,0.0,0.0,0.0,0.0,0.0,0.0,0.0,0.0,0.0,0.0,0.0,0.0,0.0,0.0,0.0,0.0,0.0,0.0,0.0,0.0,0.0,0.0,0.0,0.0,0.0,0.0,2.2373,2.2327,2.2144,2.175,2.1741,2.1365,2.0808,2.1365,2.1087,1.9803,2.0439,2.0439,1.9803,1.9929,1.9611,1.8978,1.8816,1.7988,1.6763,1.6109,1.5885,1.5999,1.6192,1.6333,1.648,1.6967,1.7148,1.7194,0.0,0.0,0.0,0.0,0.0,0.0,0.0,0.0,0.0,0.0,0.0,0.0,0.0,0.0,0.0,2.1783,2.1809,2.2048,2.2724,2.2644,2.3339,2.5157,2.391,2.4529,2.7432,2.6276,0.0,0.0,0.0,0.0,0.0,0.0,2.537,0.0,2.537,2.5093,2.4647,0.0,2.5011,2.459,0.0,2.53,2.5288,0.0,0.0,0.0,2.5841,2.5721,0.0,0.0,0.0,0.0,0.0,0.0,0.0,0.0,0.0,0.0,0.0,0.0,0.0,0.0,0.0,0.0,0.0,0.0,0.0,0.0,0.0,0.0,0.0,0.0,0.0,0.0,0.0,0.0,0.0,0.0,0.0,0.0,0.0,0.0,0.0,0.0,0.0,0.0,2.3662,2.3198,2.2392,2.2318,2.2135,2.175,2.1741,2.1741,2.1741,2.1741,2.1741,2.1741,2.1741,2.1741,2.175,2.2135,2.2309,2.2236,2.1672,1.9312,1.5927,1.5845,1.6025,1.6384,1.6299,1.6473,1.6754,1.7054,1.7161,1.7201,0.0,0.0,0.0,0.0,0.0,0.0,0.0,0.0,0.0,0.0,0.0,0.0,0.0,0.0,2.3478,2.3442,2.3741,2.3953,2.4065,2.3985,2.4532,2.58,2.545,2.5992,2.7604,2.7275,0.0,0.0,0.0,0.0,0.0,0.0,0.0,0.0,2.6867,2.6777,2.6582,2.5718,0.0,0.0,2.5252,2.5083,0.0,0.0,0.0,0.0,0.0,2.4795,0.0,0.0,2.6178,2.6803,0.0,0.0,0.0,0.0,0.0,0.0,2.827,0.0,0.0,0.0,0.0,0.0,0.0,0.0,0.0,0.0,0.0,0.0,0.0,0.0,0.0,0.0,0.0,0.0,0.0,0.0,0.0,0.0,0.0,0.0,0.0,0.0,0.0,0.0,2.4566,2.4016,2.2823,2.2217,2.1851,2.1741,2.1741,2.1741,2.1741,2.1741,2.1741,2.1741,2.1741,2.1741,2.1741,2.1851,2.1527,2.0876,2.0706,1.9611,1.7994,1.7727,1.7779,1.7781,1.7223,1.6954,1.7061,1.7355,1.7462,1.7475,0.0,0.0,0.0,0.0,0.0,0.0,2.4326,0.0,0.0,0.0,0.0,0.0,0.0,0.0,0.0,2.471,2.5137,2.5497,2.5697,2.5591,2.5911,2.6868,2.6546,2.6916,2.8162,2.7921,0.0,0.0,0.0,0.0,0.0,0.0,0.0,0.0,0.0,0.0,0.0,0.0,0.0,0.0,2.5441,0.0,0.0,2.4855,2.4869,0.0,0.0,0.0,2.5721,2.5382,2.5877,0.0,0.0,0.0,0.0,0.0,0.0,0.0,0.0,0.0,0.0,0.0,0.0,0.0,2.8859,2.9148,2.9496,0.0,0.0,0.0,0.0,0.0,0.0,0.0,0.0,0.0,0.0,0.0,0.0,0.0,0.0,0.0,0.0,2.5635,2.544,2.5128,2.4833,2.4259,2.3235,2.2428,2.1979,2.1979,2.1823,2.1741,2.1741,2.1741,2.1741,2.1741,2.1741,2.1741,2.175,2.2089,2.187,2.1401,2.1728,2.1578,2.1043,2.0402,1.9704,1.8988,1.8628,1.8636,1.8678,1.8338,1.8304,1.8199,0.0,0.0,0.0,2.5995,2.5995,2.5792,2.509,0.0,0.0,0.0,0.0,0.0,0.0,0.0,0.0,0.0,2.6289,2.6866,2.7496,2.7244,2.7427,2.8193,2.74,2.7575,2.8987,2.8407,2.838,0.0,0.0,0.0,0.0,0.0,0.0,0.0,0.0,0.0,0.0,0.0,0.0,2.6463,2.5836,2.5511,0.0,0.0,2.5931,0.0,2.5652,2.5861,2.6277,2.5652,2.5684,0.0,0.0,0.0,0.0,0.0,2.7272,0.0,0.0,0.0,0.0,0.0,0.0,0.0,2.91,2.8847,2.8655,2.9184,0.0,0.0,0.0,0.0,0.0,0.0,0.0,0.0,0.0,0.0,0.0,0.0,0.0,0.0,2.5742,2.544,2.5333,2.5333,2.4786,2.411,2.3565,2.2767,2.2327,2.2327,2.1942,2.1741,2.1741,2.1741,2.1741,2.1741,2.1741,2.1759,2.1823,2.2418,2.2774,2.2902,2.3657,2.3978,2.4024,2.305,2.1553,1.99,2.0126,2.035,2.0412,1.9384,1.8991,1.8923,0.0,0.0,0.0,2.7258,2.7345,2.7142,2.6504,0.0,0.0,0.0,0.0,0.0,0.0,0.0,0.0,0.0,2.7885,2.8452,2.8973,2.8856,2.9023,2.9665,2.8926,2.888,2.985,3.0086,2.9769,2.8887,0.0,0.0,0.0,0.0,0.0,0.0,0.0,0.0,0.0,0.0,0.0,2.736,2.7155,0.0,2.7069,2.7069,2.6812,2.6346,2.6208,2.6277,2.6346,0.0,2.5865,2.554,0.0,0.0,0.0,0.0,0.0,0.0,0.0,0.0,0.0,0.0,0.0,0.0,2.8643,2.8582,2.8655,0.0,2.9304,0.0,0.0,0.0,0.0,0.0,0.0,0.0,0.0,0.0,0.0,0.0,0.0,0.0,2.5742,2.5635,2.5538,2.5333,2.4532,2.3823,2.3547,2.2767,2.2327,2.2327,2.1942,2.1741,2.1741,2.1741,2.1741,2.1741,2.1741,2.1906,2.2208,2.2043,2.2337,2.2848,2.2758,2.2868,2.3112,2.3229,2.2068,2.0158,1.9428,1.8593,1.7839,1.764,1.7687,1.7891,0.0,0.0,0.0,2.8202,2.8202,2.7882,2.6924,2.6779,0.0,0.0,0.0,0.0,0.0,0.0,0.0,0.0,0.0,0.0,0.0,2.8913,2.8722,2.9021,2.8618,2.859,2.9035,2.96,2.9695,2.9355,0.0,0.0,0.0,0.0,0.0,0.0,0.0,0.0,0.0,0.0,2.9348,2.8944,2.7947,0.0,2.7484,2.7484,2.7471,2.7391,2.7082,2.6688,2.6346,2.6,2.5764,0.0,0.0,2.5889,2.6166,0.0,2.6707,2.6971,0.0,0.0,0.0,2.8114,0.0,0.0,0.0,2.851,2.8655,2.9184,2.9088,2.9063,0.0,0.0,0.0,0.0,0.0,0.0,0.0,0.0,0.0,0.0,0.0,0.0,2.5762,2.5742,2.5538,2.5137,2.4645,2.424,2.3849,2.3263,2.2933,2.2933,2.2346,2.2034,2.2034,2.1832,2.1741,2.1741,2.1933,2.2135,2.2327,2.2538,2.2758,2.2857,2.2942,2.2942,2.2893,2.3286,2.2532,2.1014,2.1379,2.1119,2.0607,1.9403,1.9096,1.9131,0.0,0.0,0.0,2.9484,2.9425,2.9028,2.7851,2.7689,0.0,0.0,0.0,0.0,0.0,0.0,0.0,0.0,0.0,0.0,0.0,0.0,2.8436,2.8564,2.8415,2.8415,2.8564,2.9209,2.9704,2.9992,0.0,0.0,0.0,0.0,0.0,0.0,0.0,0.0,0.0,0.0,0.0,3.0009,0.0,2.7868,2.7868,2.7868,2.8117,2.8427,2.7868,2.7217,2.6552,2.5918,0.0,2.6239,2.5672,2.6057,0.0,0.0,0.0,0.0,0.0,0.0,0.0,0.0,0.0,2.851,0.0,0.0,0.0,2.9063,0.0,0.0,0.0,0.0,0.0,0.0,0.0,0.0,0.0,0.0,0.0,0.0,0.0,0.0,0.0,2.581,2.5527,2.4941,2.5007,2.4829,2.4251,2.3767,2.3547,2.3547,2.2823,2.2447,2.2447,2.2126,2.197,2.1979,2.2291,2.2447,2.2465,2.3043,2.3085,2.2875,2.3208,2.3171,2.2884,2.3299,2.2793,2.204,2.3278,2.3628,2.3223,2.1492,2.0829,2.068,3.1579,3.1518,0.0,0.0,3.2002,3.1726,3.1014,3.0891,0.0,0.0,0.0,0.0,0.0,0.0,0.0,0.0,0.0,0.0,3.1017,0.0,0.0,3.0432,3.0284,3.027,3.0474,3.1505,3.1537,3.0672,3.1608,3.1513,0.0,0.0,0.0,0.0,3.067,0.0,0.0,0.0,2.9336,0.0,2.9219,2.9338,0.0,2.9338,2.898,2.8505,2.839,2.7947,2.7338,0.0,2.7181,2.6946,0.0,2.6093,0.0,0.0,0.0,0.0,0.0,0.0,0.0,0.0,2.8811,0.0,0.0,0.0,2.8522,2.8595,0.0,0.0,0.0,0.0,0.0,0.0,0.0,0.0,0.0,0.0,0.0,0.0,0.0,0.0,0.0,2.6084,2.5954,2.496,2.5282,2.513,2.427,2.3767,2.3547,2.3547,2.3116,2.2784,2.2784,2.2747,2.272,2.272,2.2765,2.2784,2.2784,2.2593,2.2639,2.2838,2.2602,2.2648,2.2866,2.2911,2.3103,2.3184,2.2566,2.1708,2.0816,2.0516,2.0615,2.0885,0.0,0.0,0.0,0.0,3.0936,3.0951,3.0325,3.0556,0.0,0.0,0.0,0.0,0.0,0.0,0.0,0.0,0.0,3.0408,0.0,0.0,0.0,3.0372,3.0665,3.0849,3.0786,3.1584,3.198,3.1891,3.2213,3.2314,0.0,0.0,0.0,0.0,3.1359,0.0,3.0136,0.0,0.0,0.0,0.0,0.0,0.0,2.9602,2.9401,2.9058,2.8648,2.8312,2.7986,0.0,2.6987,0.0,0.0,0.0,0.0,0.0,0.0,0.0,0.0,0.0,0.0,0.0,0.0,0.0,0.0,0.0,2.8595,0.0,0.0,0.0,0.0,0.0,0.0,0.0,2.7279,0.0,0.0,0.0,0.0,0.0,0.0,0.0,0.0,0.0,0.0,0.0,2.5429,2.5277,2.4458,2.4085,2.3895,2.3895,2.3501,2.3299,2.3299,2.2823,2.2584,2.2584,2.2584,2.2584,2.2593,2.2657,2.2657,2.2575,2.2401,2.2291,2.2172,2.2492,2.2832,2.3131,2.2955,2.2779,2.2477,2.1879,2.1677,2.1709,0.0,0.0,0.0,0.0,0.0,3.117,3.0736,0.0,0.0,0.0,0.0,0.0,3.0129,3.0261,0.0,0.0,0.0,3.0999,0.0,0.0,3.091,0.0,0.0,0.0,0.0,3.1754,3.239,3.2871,3.2734,3.289,0.0,0.0,0.0,0.0,0.0,3.1064,3.0755,0.0,0.0,2.9602,2.9602,2.9602,2.9602,2.9602,2.9602,2.954,2.898,2.8776,2.8634,2.7404,2.7181,0.0,2.6205,0.0,0.0,0.0,0.0,0.0,2.7861,0.0,0.0,0.0,0.0,0.0,0.0,0.0,0.0,0.0,0.0,0.0,0.0,0.0,0.0,0.0,0.0,0.0,0.0,0.0,0.0,0.0,0.0,0.0,0.0,0.0,0.0,0.0,0.0,2.5299,2.4566,2.435,2.4152,2.4152,2.3868,2.3657,2.3547,2.2951,2.2602,2.2492,2.2492,2.2437,2.2337,2.2639,2.2557,2.2162,2.2162,2.2061,2.1924,2.2208,2.2639,2.3048,2.3428,2.3794,2.4053,2.3238,2.2937,2.2828,0.0,3.1965,0.0,0.0,0.0,0.0,0.0,0.0,0.0,0.0,0.0,0.0,0.0,0.0,0.0,0.0,0.0,3.2053,3.1296,0.0,3.2405,0.0,0.0,3.2939,0.0,0.0,3.3269,3.3297,3.3297,3.3297,0.0,0.0,0.0,0.0,0.0,3.0895,3.1345,2.9518,2.9083,2.9602,2.9602,2.9602,2.9602,0.0,2.9602,2.9602,2.954,0.0,0.0,2.8698,2.8372,0.0,0.0,0.0,0.0,0.0,0.0,0.0,0.0,0.0,0.0,2.9268,0.0,0.0,0.0,0.0,2.8655,0.0,0.0,0.0,0.0,0.0,0.0,0.0,0.0,0.0,0.0,0.0,0.0,0.0,0.0,0.0,0.0,0.0,0.0,0.0,0.0,0.0,2.4575,2.435,2.4152,2.4152,2.4143,2.3941,2.3547,2.3519,2.3318,2.2838,2.2838,2.2722,2.2327,2.2337,2.2126,2.1759,2.1759,2.197,2.2309,2.2318,2.2795,2.3529,2.3538,2.3794,2.4152,2.4152,2.4152,2.4152,0.0,0.0,0.0,0.0,0.0,0.0,0.0,3.4101,0.0,0.0,0.0,0.0,0.0,0.0,3.2342,0.0,0.0,3.214,3.1457,3.2123,0.0,0.0,0.0,3.2359,0.0,0.0,0.0,0.0,0.0,0.0,0.0,0.0,0.0,0.0,0.0,3.1429,0.0,0.0,0.0,0.0,0.0,2.9855,3.0164,0.0,0.0,2.9602,2.9602,2.9602,0.0,2.8776,2.8185,2.7637,2.6898,2.639,2.6142,2.6322,2.6647,0.0,0.0,0.0,2.8426,2.9124,0.0,0.0,0.0,0.0,0.0,0.0,0.0,0.0,0.0,0.0,0.0,0.0,0.0,0.0,0.0,0.0,2.3516,0.0,0.0,0.0,0.0,0.0,0.0,0.0,0.0,0.0,0.0,2.4202,2.4033,2.3758,2.4015,2.396,2.3547,2.329,2.2942,2.2538,2.2272,2.2071,2.1942,2.2208,2.2254,2.2144,2.2419,2.2528,2.274,2.274,2.2966,2.3547,2.3547,2.3794,2.4152,2.4152,2.4152,2.4152,3.3971,0.0,0.0,0.0,0.0,0.0,0.0,0.0,0.0,0.0,3.3748,0.0,3.3527,0.0,3.2926,0.0,3.2857,3.2602,3.1537,3.237,0.0,3.1022,3.183,0.0,0.0,0.0,0.0,0.0,0.0,3.3002,0.0,0.0,0.0,0.0,0.0,0.0,0.0,0.0,2.9968,0.0,0.0,2.9841,0.0,0.0,2.9743,2.9897,0.0,2.9602,2.9477,2.8776,2.8051,2.7351,2.662,2.6107,2.5817,2.5817,2.6202,2.6707,2.7055,2.756,0.0,2.8619,2.8763,0.0,2.922,0.0,0.0,0.0,0.0,0.0,0.0,0.0,0.0,0.0,0.0,0.0,0.0,2.4108,0.0,0.0,0.0,0.0,0.0,0.0,0.0,0.0,0.0,0.0,0.0,0.0,2.4122,2.3767,2.4015,2.396,2.3547,2.3058,2.274,2.2318,2.1924,2.1814,2.1951,2.2208,2.241,2.2566,2.2832,2.2939,2.3067,2.3067,2.34,2.3758,2.3758,2.3923,2.4152,2.4152,2.4152,2.4152,0.0,0.0,0.0,0.0,3.4149,0.0,0.0,0.0,3.4101,0.0,3.4101,3.4101,3.4101,3.4101,3.3866,3.3303,3.3764,0.0,3.1694,3.3191,0.0,0.0,3.1948,3.2203,3.087,0.0,0.0,0.0,0.0,0.0,0.0,0.0,0.0,0.0,3.1148,0.0,3.0488,2.9897,2.9645,2.9602,2.9602,2.9631,2.9645,2.9617,2.9982,3.0445,2.9827,2.9602,2.9477,2.8776,2.8051,2.7351,2.6688,2.5931,2.5312,2.5312,2.5661,2.6057,2.6057,2.7224,2.8318,2.7837,0.0,0.0,0.0,0.0,2.8799,0.0,0.0,0.0,0.0,0.0,0.0,0.0,0.0,0.0,0.0,0.0,0.0,0.0,0.0,0.0,0.0,0.0,0.0,0.0,0.0,0.0,0.0,0.0,2.443,2.4125,2.4143,2.396,2.3547,2.3076,2.2767,2.2355,2.1979,2.1997,2.2355,2.2373,2.2602,2.2893,2.2911,2.3226,2.3574,2.3574,2.3804,2.4152,2.4152,2.4152,2.4152,2.4152,2.4152,2.4152,3.559,3.5736,3.5736,0.0,3.4829,3.4279,0.0,0.0,0.0,0.0,3.4101,3.4101,3.4101,3.4101,3.405,3.3866,3.3984,0.0,0.0,0.0,0.0,3.1879,3.2068,3.181,3.1131,3.1874,0.0,3.1655,0.0,0.0,3.3087,0.0,0.0,0.0,0.0,0.0,3.0516,3.0347,3.0024,2.9602,2.9602,2.9883,0.0,0.0,2.9982,3.0445,2.9827,2.9602,2.954,2.9401,2.8532,2.7484,2.7284,2.6333,2.5312,2.5312,2.5408,2.5516,2.5516,2.6406,2.7404,2.7657,2.8222,2.8823,0.0,0.0,0.0,0.0,0.0,0.0,0.0,0.0,0.0,0.0,0.0,0.0,0.0,0.0,0.0,2.3838,0.0,0.0,0.0,0.0,0.0,0.0,0.0,0.0,0.0,0.0,0.0,2.3712,2.3996,2.396,2.3547,2.3446,2.3094,2.2701,2.2601,2.2694,2.2804,2.3098,2.329,2.3409,2.3712,2.3904,2.3996,2.3996,2.406,2.4152,2.4152,2.4152,2.4152,2.4152,2.4152,2.4152,3.6157,0.0,0.0,3.6303,0.0,0.0,3.5169,0.0,0.0,3.4133,3.4101,0.0,3.4101,3.4101,3.4101,3.4101,3.4101,0.0,0.0,0.0,0.0,3.2296,3.2336,3.2114,3.1492,3.205,0.0,3.1731,0.0,0.0,3.2918,0.0,0.0,0.0,0.0,3.1766,0.0,3.1064,3.0586,2.9982,2.9715,0.0,0.0,2.9743,2.9827,3.008,2.9729,2.9602,2.954,2.9261,2.839,2.7404,2.7149,2.6195,2.5312,2.5312,2.5312,2.5312,2.5312,2.5925,2.6695,2.7248,2.7777,2.8366,2.9124,2.8895,2.857,0.0,0.0,0.0,0.0,0.0,0.0,0.0,0.0,0.0,0.0,0.0,0.0,0.0,0.0,0.0,0.0,0.0,0.0,0.0,0.0,0.0,0.0,0.0,0.0,2.3662,2.4304,2.4415,2.3901,2.3999,2.3708,2.3112,2.2939,2.2948,2.3217,2.3446,2.3639,2.3822,2.4051,2.4152,2.4152,2.4152,2.4152,2.4152,2.4152,2.4152,2.4152,2.4152,2.4152,2.4152,0.0,0.0,0.0,0.0,0.0,0.0,0.0,3.538,0.0,3.4214,0.0,3.4214,3.4117,3.4101,3.4101,3.4101,0.0,3.3866,3.3355,3.3815,3.3594,3.2415,3.2864,3.2826,3.2099,3.2079,0.0,0.0,0.0,3.2579,3.2525,0.0,0.0,0.0,0.0,0.0,0.0,3.1626,3.0993,0.0,2.9827,2.9602,2.9602,2.9602,2.9602,2.9602,2.9602,2.9602,2.9477,2.8839,2.8117,2.7417,2.6756,2.6,2.5312,2.5312,2.5312,2.5312,2.5312,2.5697,2.6214,2.6707,2.7272,2.7969,2.8883,2.8787,2.8643,2.91,2.8835,2.8534,0.0,0.0,0.0,0.0,0.0,0.0,0.0,0.0,0.0,0.0,0.0,0.0,0.0,0.0,0.0,0.0,0.0,0.0,0.0,0.0,0.0,2.4035,2.4706,2.4902,2.4538,0.0,2.4272,2.362,2.3272,2.329,2.362,2.362,2.3813,2.4152,2.4152,2.4152,2.4152,2.4152,2.4152,2.4152,2.4152,2.4152,2.4152,2.4152,2.4152,2.4152,0.0,0.0,0.0,0.0,0.0,3.7776,3.7048,3.6465,3.5623,3.4279,3.4619,3.4764,3.4165,3.4101,3.4101,3.4101,3.4101,0.0,0.0,0.0,0.0,3.3764,3.3866,3.3594,3.2971,3.2844,3.2705,0.0,3.2579,3.2798,3.3157,0.0,0.0,0.0,0.0,0.0,3.1612,3.0965,0.0,2.9757,2.9645,2.9602,2.9602,2.9602,2.9602,2.9602,2.9602,2.9602,2.9602,2.9463,2.8532,2.7484,2.7351,2.6389,2.5312,2.5312,2.5312,2.5312,2.5312,2.5697,2.6117,2.6226,2.6983,2.7765,2.7957,2.827,2.8534,2.8631,2.857,2.8643,2.9076,0.0,0.0,0.0,0.0,0.0,0.0,0.0,0.0,0.0,0.0,0.0,0.0,0.0,0.0,0.0,0.0,0.0,0.0,0.0,0.0,0.0,2.4477,0.0,0.0,0.0,2.4214,2.4051,2.3978,2.3978,2.4051,2.4051,2.4088,2.4152,2.4152,2.4152,2.4152,2.4152,2.4152,2.4152,2.4152,2.4152,2.4152,2.4152,2.4152,2.4152,0.0,0.0,0.0,0.0,0.0,0.0,0.0,3.7355,0.0,3.5428,3.5202,3.504,3.47,3.4327,3.4101,3.4101,3.4101,3.4101,3.4101,3.4101,3.4101,3.4101,3.4101,0.0,3.3697,3.3492,3.3306,3.3257,3.3365,3.3347,3.3326,0.0,0.0,0.0,0.0,3.2637,0.0,0.0,0.0,3.0052,2.9743,2.9602,2.9645,2.9968,2.9883,2.9645,2.9968,2.9883,2.9602,2.9602,2.8867,2.7986,2.7604,2.6744,2.5791,2.5382,2.5312,2.5312,2.5312,2.5492,2.5745,2.6021,2.6707,2.738,2.7657,2.8126,2.851,2.851,2.851,2.8667,2.9208,2.9304,0.0,0.0,0.0,0.0,0.0,0.0,0.0,0.0,0.0,0.0,0.0,0.0,0.0,0.0,0.0,0.0,0.0,0.0,0.0,0.0,0.0,0.0,0.0,0.0,0.0,2.4152,2.435,2.4341,2.4152,2.4152,2.4152,2.4152,2.4152,2.4152,2.4152,2.4152,2.4152,2.4152,2.4152,2.4152,2.4152,2.4152,2.4152,2.4152,0.0,3.9145,0.0,0.0,3.8602,0.0,3.7841,3.8132,3.789,3.6481,3.5785,3.5364,3.5202,3.4538,3.4101,3.4101,3.4101,3.4101,3.4101,3.4101,3.4101,3.4101,3.4101,3.4101,3.4101,3.3781,3.3614,0.0,3.3893,3.3739,0.0,0.0,0.0,0.0,0.0,0.0,0.0,0.0,3.0909,3.0291,2.9799,2.9602,2.9673,3.0291,3.0221,2.9855,3.0347,3.0207,2.9785,2.9645,2.9121,2.8363,2.7736,2.7015,2.6277,2.5511,2.5312,2.5312,2.5312,2.5312,2.5408,2.5829,2.6442,2.7043,2.7464,2.8053,2.851,2.851,2.851,2.8643,2.9051,2.9136,0.0,0.0,0.0,0.0,0.0,0.0,0.0,0.0,0.0,0.0,0.0,0.0,0.0,0.0,0.0,2.4877,2.3405,2.4381,2.5121,0.0,0.0,2.5068,2.5448,0.0,2.4964,0.0,2.4341,2.4341,2.4152,2.4152,2.4152,2.4152,2.4152,2.4152,2.4152,2.4152,2.4152,2.4152,2.4152,2.4152,2.4152,2.4152,2.4152,2.4152,0.0,0.0,0.0,0.0,0.0,0.0,3.9185,3.878,3.789,3.6481,3.6254,3.5946,3.525,3.4538,3.4101,3.4101,3.4101,3.4101,3.4101,3.4101,3.4101,3.4101,3.4101,3.4101,3.4101,3.3527,3.3363,0.0,0.0,3.3487,0.0,0.0,0.0,0.0,0.0,0.0,0.0,3.0614,3.0263,2.9687,2.9631,2.9602,2.9673,3.0291,3.0488,3.0445,3.0502,3.0488,3.0347,2.9785,2.9121,2.8363,2.7736,2.7015,2.6277,2.5511,2.5312,2.5312,2.5312,2.5312,2.5324,2.5372,2.6166,2.6947,2.6995,2.7789,2.851,2.851,2.851,2.8522,2.857,2.8582,2.8751,0.0,0.0,0.0,0.0,0.0,0.0,0.0,0.0,0.0,0.0,2.683,0.0,0.0,2.4893,2.4643,2.4873,2.4378,2.5228,2.7641,0.0,2.5683,2.7333,2.5535,2.4575,2.444,2.435,2.4251,2.4152,2.4152,2.4152,2.4152,2.4152,2.4152,2.4152,2.4152,2.4152,2.4152,2.4152,2.4152,2.4152,2.4152,2.4152,2.4152,0.0,0.0,0.0,0.0,0.0,0.0,0.0,3.8586,3.8197,3.763,3.7193,3.6805,3.6497,3.5849,3.5234,3.4797,3.4748,3.4554,3.4133,3.4101,3.4101,3.4101,3.4101,3.4101,3.4101,3.3729,3.3561,0.0,0.0,0.0,0.0,0.0,0.0,0.0,0.0,3.0993,3.053,3.053,3.06,3.074,3.074,3.074,3.0811,3.1415,3.1429,3.1148,3.1527,3.1162,3.0488,3.0235,2.9694,2.8994,2.7868,2.7284,2.6812,2.5652,2.5312,2.5312,2.5312,2.5312,2.5312,2.5312,2.6129,2.6935,2.6935,2.7753,2.851,2.851,2.851,2.851,2.851,2.851,2.8582,0.0,0.0,0.0,0.0,0.0,0.0,0.0,0.0,0.0,0.0,0.0,0.0,0.0,0.0,2.6804,2.6456,2.6198,2.6925,2.8817,0.0,2.6566,2.758,2.6473,2.5489,2.4735,2.4833,2.4745,2.4637,2.444,2.4341,2.4152,2.4152,2.4152,2.4152,2.4152,2.4152,2.4152,2.4152,2.4152,2.4152,2.4152,2.4152,2.4152,4.1032,0.0,4.0772,0.0,3.9573,3.9136,3.9023,3.8667,3.8553,3.8958,3.8213,3.7549,3.7339,3.6707,3.5995,3.525,3.5185,3.4878,3.4149,3.4101,3.4101,3.4101,3.4101,0.0,3.4,3.3848,3.3693,3.345,3.4345,0.0,0.0,0.0,0.0,0.0,3.0797,3.0797,3.0797,3.0797,3.1078,3.1485,3.1485,3.1485,3.1555,3.2174,3.2145,3.1822,3.2258,3.1724,3.0783,3.0586,3.0122,2.9338,2.7947,2.7484,2.7204,2.5721,2.5312,2.5312,2.5312,2.5312,2.5312,2.5312,2.6129,2.6935,2.6935,2.7753,2.851,2.851,2.851,2.851,2.851,2.851,2.8558,2.8715,0.0,0.0,0.0,0.0,0.0,0.0,0.0,2.7007,2.6947,0.0,0.0,0.0,0.0,0.0,2.7624,2.7557,0.0,0.0,0.0,0.0,0.0,2.7427,2.636,2.5509,2.5226,2.5039,2.4932,2.4735,2.4538,2.4251,2.4251,2.4242,2.4152,2.4152,2.4152,2.4152,2.4152,2.4152,2.417,2.429,2.4335,2.4354,4.1645,4.0448,3.9946,4.1306,3.98,3.8877,4.0254,3.9282,3.8893,4.0286,3.925,3.8116,3.7404,3.6707,3.5995,3.525,3.5185,3.4878,3.4149,3.4101,3.4101,0.0,0.0,3.4,3.3694,3.3949,3.3507,3.2413,0.0,0.0,3.1696,0.0,3.1669,3.1485,3.1485,3.1485,3.1485,3.1485,3.1485,3.1485,3.1485,3.1485,3.1555,3.2174,3.2412,3.2398,3.2412,3.2005,3.1387,3.074,3.0122,2.9338,2.7947,2.7484,2.7204,2.5721,2.5312,2.5312,2.5312,2.5312,2.5312,2.5312,2.6129,2.6935,2.6935,2.7753,2.851,2.851,2.851,2.851,2.851,2.851,2.8679,2.9208,0.0,0.0,0.0,0.0,0.0,0.0,2.8943,2.8643,2.7079,0.0,0.0,0.0,0.0,0.0,0.0,0.0,0.0,3.0158,2.9223,0.0,3.0962,2.8189,2.6829,2.6733,2.5499,2.4932,2.4932,2.4932,2.4735,2.4529,2.4529,2.4341,2.4152,2.4152,2.4152,2.4152,2.4152,2.4152,2.4207,2.462,2.4776,2.4831,4.2101,4.145,4.0885,4.0853,4.0691,4.0399,3.9881,3.9816,3.9816,3.98,3.9412,3.8861,3.8132,3.7857,3.7436,0.0,3.6206,3.5639,0.0,3.4376,3.4311,3.4813,3.4845,3.5037,3.5485,3.531,3.508,3.4738,0.0,0.0,0.0,3.2473,3.2093,3.1485,3.1485,3.1724,3.2117,3.2117,3.2356,3.2736,3.2736,3.2736,3.2764,3.296,3.3031,3.3031,3.3031,3.2637,3.2075,3.1878,3.1106,3.0029,2.9143,2.8266,2.7284,2.6346,2.5721,2.5312,2.5312,2.5312,2.5312,2.5312,2.6129,2.6935,2.6935,2.7753,2.851,2.851,2.851,2.851,2.851,2.8799,2.91,2.9268,2.9605,0.0,0.0,0.0,0.0,0.0,2.7584,2.72,0.0,2.7128,0.0,0.0,0.0,0.0,0.0,0.0,0.0,0.0,3.0573,0.0,3.0962,2.9025,2.7746,2.7094,2.5994,2.5342,2.5137,2.5137,2.5039,2.4735,2.4529,2.443,2.444,2.4251,2.4152,2.4152,2.4152,2.4152,2.4207,2.4629,2.4785,2.484,4.2425,4.1927,4.1419,4.0966,4.1047,4.0966,4.0351,4.0399,4.0529,4.0658,4.0189,3.9687,3.9233,3.8958,0.0,3.7404,3.6707,3.6108,3.5639,3.491,3.4829,3.5574,3.5606,3.5764,3.6093,0.0,0.0,3.5459,3.5035,3.4147,3.2948,3.2883,3.2482,3.197,3.1903,3.2174,3.275,3.275,3.2974,3.3326,3.3326,3.3326,3.3326,3.3326,3.3326,3.3326,3.3326,3.2918,3.2412,3.2412,3.1724,3.0774,3.0117,2.8972,2.7624,2.6671,2.5861,2.5312,2.5312,2.5456,2.5612,2.5612,2.6418,2.7284,2.7476,2.8041,2.851,2.851,2.851,2.851,2.851,2.8943,2.9304,2.9304,2.9737,2.9905,2.9376,0.0,0.0,0.0,0.0,0.0,0.0,2.7428,0.0,0.0,0.0,0.0,0.0,0.0,0.0,3.136,3.124,0.0,3.1225,2.9954,2.8773,2.7746,2.638,2.5635,2.543,2.543,2.5333,2.5039,2.4735,2.4627,2.443,2.4242,2.4152,2.427,2.4326,2.439,2.4455,2.5023,2.5225,2.5289,4.2678,4.2019,4.1565,0.0,4.1047,0.0,4.1468,4.1047,4.1096,4.2391,4.1355,4.048,4.0432,3.9816,3.8861,3.7517,0.0,0.0,0.0,3.5671,3.559,3.6351,3.6384,3.626,3.5973,3.6254,3.595,3.4982,3.4725,3.3955,3.2859,3.2985,3.2954,3.2741,3.2537,3.2792,3.3326,3.3326,3.3326,3.3326,3.3326,3.3326,3.3326,3.3326,3.3326,3.3326,3.3326,3.296,3.2469,3.2469,3.2061,3.1443,3.0839,2.9656,2.8268,2.6853,2.5955,2.536,2.536,2.5745,2.6154,2.6154,2.6947,2.7861,2.839,2.851,2.851,2.851,2.851,2.8522,2.8558,2.8991,2.9364,2.94,2.9845,3.0001,2.9436,0.0,0.0,0.0,0.0,0.0,0.0,2.8498,2.857,0.0,0.0,0.0,0.0,0.0,3.1468,3.0891,3.1384,3.1661,3.1661,3.0722,2.9704,2.8588,2.6658,2.5742,2.5742,2.5742,2.5538,2.5333,2.5039,2.4754,2.4575,2.4387,2.4306,2.4271,2.4666,2.4821,2.4913,2.5674,2.5958,2.6023,0.0,0.0,4.1565,4.1565,4.1873,4.2002,4.163,4.1889,4.2051,4.184,4.1047,4.0302,3.9768,3.9088,3.8521,3.8165,3.7501,3.708,3.708,3.6432,3.6351,3.7048,3.708,3.7268,3.7745,3.7576,3.702,3.6064,3.5752,3.5107,3.4125,3.3937,3.3686,3.3393,3.3323,3.3325,3.3326,3.3326,3.3326,3.3326,3.3326,3.3326,3.3326,3.3326,3.3326,3.3326,3.3326,3.3227,3.3101,3.3101,3.2707,3.2159,3.2005,3.1046,2.955,2.7771,2.6634,2.5913,2.5913,2.631,2.6731,2.6731,2.7236,2.7861,2.839,2.851,2.851,2.851,2.851,2.8643,2.9039,2.9544,3.0025,3.0434,3.0951,3.0963,3.0025,2.9797,0.0,0.0,2.8342,2.8198,2.738,2.8402,2.9112,0.0,0.0,0.0,0.0,3.1937,3.1865,3.0903,3.1384,3.1661,3.1661,3.0722,2.9326,2.7558,2.6284,2.5742,2.5742,2.5742,2.5645,2.5635,2.5333,2.521,2.5195,2.4995,2.4988,2.5087,2.5197,2.5234,2.5289,2.5775,2.5958,2.6023,4.2402,4.2236,4.2067,4.2067,4.2375,4.2504,4.2116,4.2391,4.2488,4.2099,4.1711,4.1079,4.0059,3.959,3.9233,3.8926,3.7922,3.7452,3.7792,3.7469,3.7582,3.8278,3.8602,3.8958,3.9347,3.885,3.8046,3.6848,3.6974,3.6338,3.4988,3.4881,3.4476,3.3744,3.3536,3.3551,3.3719,3.3438,3.3649,3.4112,3.355,3.3494,3.3705,3.3438,3.3326,3.3326,3.3326,3.3326,3.3326,3.3326,3.3101,3.2778,3.2497,3.1433,3.0041,2.8654,2.771,2.6956,2.6552,2.6875,2.7356,2.7596,2.8053,2.8522,2.8799,2.9051,2.9232,2.9232,2.9232,2.9316,2.9605,3.0098,3.0543,3.0831,3.112,3.1023,3.0206,2.9881,0.0,2.8546,2.8703,2.8739,2.8414,2.916,2.9761,3.0001,0.0,0.0,3.1637,3.2202,3.2118,3.1264,3.1769,3.1925,3.1661,3.026,2.9068,2.8169,2.648,2.5937,2.6318,2.6123,2.6143,2.6309,2.5817,2.5657,2.5758,2.5447,2.5385,2.5535,2.5813,2.5857,2.5903,2.6203,2.6243,2.6279,4.2634,4.2634,4.2634,4.2634,4.2634,4.2634,4.2634,4.2634,4.2634,4.2634,4.2537,4.2002,4.0788,4.0561,4.0254,3.9687,3.8505,3.8068,3.8683,3.8715,3.8991,3.9606,4.0189,4.0496,4.0496,3.9833,3.8921,3.7694,3.795,3.7207,3.5578,3.5597,3.4978,3.3882,3.3536,3.3734,3.4197,3.3677,3.4112,3.5127,3.3916,3.3775,3.4169,3.355,3.3326,3.3326,3.3326,3.3326,3.3326,3.3326,3.3326,3.3227,3.2707,3.165,3.0434,2.966,2.9014,2.8285,2.7281,2.744,2.7969,2.8498,2.8967,2.9316,2.94,2.9761,3.0086,3.0086,3.0086,3.011,3.0194,3.0579,3.0903,3.0975,3.0999,3.0783,3.017,0.0,2.9388,2.9304,2.9304,2.9508,3.0037,3.0158,3.0398,3.0843,3.0951,3.1192,3.1637,3.2274,3.237,3.1805,3.2334,3.2346,3.1793,2.9817,2.8997,2.9222,2.7013,2.6309,2.7002,2.665,2.668,2.6992,2.6429,2.6203,2.616,2.5948,2.5895,2.5916,2.6417,2.6592,2.6523,2.667,2.6691,2.6691,4.2634,4.2634,4.2634,4.2634,4.2634,4.2634,4.2634,4.2634,4.2634,4.2634,4.2116,4.1646,4.1419,4.0853,4.0448,4.0335,4.014,4.0043,4.0156,4.0156,4.0221,4.0335,4.0432,4.0496,4.0496,3.9833,3.9412,3.9182,3.749,3.6569,3.6197,3.5139,3.4452,3.4059,3.3882,3.403,3.4454,3.414,3.4506,3.5156,3.4379,3.4155,3.4169,3.355,3.3326,3.3326,3.3326,3.3326,3.3326,3.3326,3.3326,3.3297,3.3213,3.3031,3.2552,3.1029,3.0559,3.0008,2.8078,2.7981,2.851,2.9039,2.9232,2.9412,2.9869,3.0025,3.0086,3.0086,3.0086,3.0218,3.0675,3.0819,3.1023,3.1468,3.1541,3.1204,3.0218,0.0,2.9797,2.9352,2.9304,2.9508,3.0037,3.0494,3.0783,3.0867,3.1288,3.1577,3.1661,3.2623,3.2923,3.2382,3.2887,3.2911,3.2382,3.0266,2.9252,2.9232,2.7641,2.6885,2.7012,2.6943,2.6953,2.7012,2.6841,2.6904,2.7016,2.7016,2.7027,2.7157,2.7173,2.7229,2.7229,2.6971,2.689,2.689,4.2634,4.2634,4.2634,4.2634,4.2634,4.2634,4.2634,4.2634,4.2634,4.2634,4.2342,4.2002,4.1614,4.1274,4.1079,4.1079,4.1079,4.1241,4.1614,4.129,4.1079,4.1079,4.1436,4.1468,4.1079,4.0383,3.9715,3.8974,3.7613,3.6585,3.5834,3.5139,3.452,3.4005,3.3813,3.3945,3.4297,3.3888,3.4478,3.5531,3.4253,3.414,3.4618,3.3677,3.3326,3.3326,3.3326,3.3326,3.3326,3.3326,3.3326,3.3326,3.3326,3.3016,3.2475,3.1783,3.0594,2.9484,2.8785,2.8546,2.8703,2.952,2.9725,2.9857,3.0398,3.0735,3.0939,3.0939,3.0939,3.1011,3.1252,3.13,3.1384,3.1625,3.1661,0.0,0.0,3.0506,3.0422,3.017,3.0146,3.035,3.0879,3.1156,3.13,3.13,3.1529,3.1793,3.2094,3.2863,3.3296,3.3332,3.3308,3.3176,3.2923,3.1364,3.043,3.0101,2.8597,2.7851,2.7695,2.7471,2.749,2.7685,2.7461,2.7367,2.7437,2.7437,2.7563,2.7545,2.7669,2.7638,2.7638,2.7314,2.7098,2.6989,4.2634,4.2634,4.2634,4.2634,4.2634,4.2634,4.2634,4.2634,4.2634,4.2634,4.2634,4.2423,4.1873,4.1824,4.1824,4.1824,4.1824,4.2051,4.2601,4.2116,4.1824,4.1824,4.2342,4.2375,4.1824,4.095,4.0003,3.895,3.7786,3.6693,3.5848,3.537,3.4791,3.418,3.41,3.4214,3.4436,3.4098,3.4773,3.5939,3.4379,3.4225,3.4829,3.3733,3.3326,3.3326,3.3326,3.3326,3.3326,3.3326,3.3326,3.3326,3.3326,3.2957,3.2495,3.1969,3.0318,2.8787,2.9184,2.9003,2.8943,3.0013,3.0266,3.041,3.0939,3.1372,3.1661,3.1661,3.1661,3.1661,3.1661,3.1661,3.1661,3.1661,0.0,0.0,0.0,3.0879,3.0879,3.0879,3.0879,3.1084,3.1613,3.1661,3.1661,3.1661,3.1661,3.1901,3.2466,3.3008,3.3573,3.421,3.3729,3.3464,3.3464,3.2475,3.1678,3.1153,2.9606,2.885,2.8688,2.8065,2.7988,2.8271,2.7949,2.7812,2.7812,2.7812,2.7812,2.7842,2.7941,2.796,2.796,2.7638,2.7431,2.7206,4.2634,4.2634,4.2634,4.2634,4.2634,4.2634,4.2634,4.2634,4.2634,4.2634,4.2634,4.2601,4.2553,4.2553,4.2553,4.2553,4.2553,4.2585,4.2634,4.2585,4.2553,4.2553,4.2601,4.2601,4.2553,4.1193,4.0469,4.0388,3.7732,3.6712,3.7127,3.5947,3.5215,3.5035,3.5397,3.5465,3.5345,3.5719,3.5939,3.6009,3.5381,3.4731,3.4225,3.3564,3.3326,3.3326,3.3326,3.3326,3.3326,3.3326,3.3326,3.3326,3.3326,3.3634,3.3668,3.1575,3.0133,2.9256,2.9292,2.9268,2.9496,3.0555,3.0819,3.0951,3.148,3.1637,3.1661,3.1661,3.1661,3.1661,3.1661,3.1661,3.1661,3.1661,0.0,0.0,3.0951,3.0879,3.0879,3.0879,3.0879,3.1084,3.1613,3.1661,3.1661,3.1661,3.1661,3.1901,3.2466,3.3008,3.3741,3.4739,3.4258,3.3982,3.3982,3.2893,3.2311,3.2259,3.0547,2.9755,2.9713,2.8774,2.8262,2.8291,2.8262,2.8252,2.8252,2.8252,2.8252,2.8252,2.8281,2.8291,2.8291,2.796,2.7853,2.7745,4.2634,4.2634,4.2634,4.2634,4.2634,4.2634,4.2634,4.2634,4.2634,4.2634,4.2634,4.2634,4.2634,4.2634,4.2634,4.2634,4.2634,4.2634,4.2634,4.2634,4.2634,4.2634,4.2634,4.2634,4.2634,4.1662,4.0766,3.9897,3.8023,3.6925,3.6681,3.5787,3.5288,3.5078,3.5238,3.5139,3.4822,3.5062,3.5526,3.6023,3.5479,3.5236,3.5264,3.4267,3.4126,3.4351,3.3593,3.3803,3.4393,3.4014,3.3888,3.3958,3.4337,3.4351,3.3876,3.2376,3.1258,3.0483,3.035,3.0037,3.0037,3.1108,3.112,3.1011,3.1541,3.1661,3.1661,3.1661,3.1661,3.1661,3.1661,3.1661,3.1661,3.1661,0.0,3.1589,3.1396,3.136,3.136,3.136,3.136,3.1444,3.1649,3.1661,3.1661,3.1661,3.1661,3.2046,3.2947,3.3789,3.4426,3.4811,3.4631,3.4535,3.4535,3.4124,3.3527,3.2925,3.1589,3.0546,2.9817,2.8804,2.8291,2.8291,2.8291,2.8291,2.8291,2.8291,2.8291,2.8291,2.8291,2.8291,2.8291,2.8184,2.8067,2.7891,4.2634,4.2634,4.2634,4.2634,4.2634,4.2634,4.2634,4.2634,4.2634,4.2634,4.2634,4.2634,4.2634,4.2634,4.2634,4.2634,4.2634,4.2634,4.2634,4.2634,4.2634,4.2634,4.2634,4.2634,4.2634,4.1735,4.0753,3.9807,3.8203,3.7286,3.6881,3.6272,3.5896,3.5683,3.587,3.564,3.5121,3.5319,3.5624,3.6023,3.5691,3.5662,3.5686,3.4843,3.4787,3.5127,3.4197,3.4436,3.5156,3.4674,3.452,3.4604,3.5012,3.471,3.4016,3.3496,3.2722,3.1921,3.1417,3.1126,3.1162,3.1568,3.1384,3.1216,3.1589,3.1661,3.1661,3.1661,3.1661,3.1661,3.1661,3.1661,3.1661,3.1661,3.1661,3.1661,3.1661,3.1661,3.1661,3.1661,3.1661,3.1661,3.1661,3.1661,3.1661,3.1661,3.1829,3.2394,3.3464,3.4354,3.4823,3.4823,3.4823,3.4823,3.4823,3.4823,3.4421,3.3709,3.2286,3.1165,3.0338,2.891,2.8291,2.8291,2.8291,2.8291,2.8291,2.8291,2.8291,2.8291,2.8291,2.8291,2.831,2.8437,2.8379,2.8221,4.2634,4.2634,4.2634,4.2634,4.2634,4.2634,4.2634,4.2634,4.2634,4.2634,4.2634,4.2634,4.2634,4.2634,4.2634,4.2634,4.2634,4.2634,4.2634,4.2634,4.2634,4.2634,4.2634,4.2634,4.2634,4.1231,4.0469,4.0416,3.8333,3.7627,3.8188,3.7593,3.7155,3.7022,3.7656,3.7343,3.6424,3.7034,3.6858,3.6079,3.6079,3.5714,3.524,3.524,3.524,3.524,3.5226,3.524,3.524,3.524,3.524,3.524,3.524,3.4691,3.4104,3.4689,3.4206,3.3294,3.2415,3.2566,3.2821,3.1913,3.1661,3.1661,3.1661,3.1661,3.1661,3.1661,3.1661,3.1661,3.1661,3.1661,3.1661,3.1661,3.1661,3.1661,3.1661,3.1661,3.1661,3.1661,3.1661,3.1661,3.1661,3.1673,3.1673,3.1673,3.2202,3.2959,3.3982,3.4547,3.4823,3.4823,3.4823,3.4823,3.4835,3.4823,3.4823,3.4726,3.26,3.1575,3.1472,2.9323,2.8291,2.8291,2.8301,2.8301,2.8291,2.8301,2.8301,2.8291,2.8291,2.8291,2.835,2.876,2.8916,2.8984,4.2634,4.2634,4.2634,4.2634,4.2634,4.2634,4.2634,4.2634,4.2634,4.2634,4.2634,4.2634,4.2634,4.2634,4.2634,4.2634,4.2634,4.2634,4.2634,4.2634,4.2634,4.2634,4.2634,4.2634,4.2634,4.2156,4.1466,4.0416,3.9336,3.8622,3.8188,3.7593,3.7302,3.7229,3.7269,3.7017,3.6621,3.6656,3.6717,3.6712,3.6712,3.6599,3.6388,3.5953,3.6065,3.6318,3.5536,3.57,3.6374,3.5939,3.5798,3.5798,3.5798,3.5529,3.526,3.5437,3.4807,3.3962,3.3713,3.3352,3.2821,3.1913,3.1661,3.1661,3.1661,3.1661,3.1661,3.1661,3.1661,3.1661,3.1661,3.1661,3.1661,3.1661,3.1661,3.1661,3.1661,3.1661,3.1661,3.1661,3.1661,3.1661,3.1661,3.2022,3.225,3.225,3.308,3.3717,3.4018,3.4547,3.4823,3.4823,3.4823,3.5004,3.5376,3.5016,3.4823,3.4726,3.26,3.1575,3.1472,2.9323,2.8291,2.831,2.8603,2.8564,2.831,2.8613,2.8555,2.8291,2.8291,2.8476,2.875,2.8877,2.9111,2.9434,4.2634,4.2634,4.2634,4.2634,4.2634,4.2634,4.2634,4.2634,4.2634,4.2634,4.2634,4.2634,4.2634,4.2634,4.2634,4.2634,4.2634,4.2634,4.2634,4.2634,4.2634,4.2634,4.2285,4.2142,4.2142,4.1868,4.1178,3.9929,3.9325,3.8716,3.8188,3.7839,3.7665,3.7665,3.7502,3.7353,3.7143,3.7053,3.7039,3.7148,3.7148,3.707,3.695,3.6571,3.6655,3.688,3.6136,3.636,3.6922,3.6557,3.6431,3.6431,3.6431,3.6359,3.6243,3.6243,3.5816,3.5224,3.4472,3.3901,3.3237,3.2001,3.1661,3.1661,3.1661,3.1661,3.1661,3.1661,3.1661,3.1661,3.1661,3.1661,3.1661,3.1661,3.1661,3.1661,3.1661,3.1661,3.1661,3.1661,3.1661,3.1745,3.1973,3.2298,3.2671,3.308,3.3693,3.4138,3.4342,3.4655,3.4823,3.4823,3.504,3.5292,3.5617,3.5509,3.5449,3.5449,3.3696,3.266,3.2132,3.0364,2.9213,2.8799,2.8887,2.8779,2.8545,2.8633,2.8613,2.8525,2.8359,2.8652,2.918,2.918,2.9453,2.9883,4.2634,4.2634,4.2634,4.2634,4.2634,4.2634,4.2634,4.2634,4.2634,4.2634,4.2634,4.2634,4.2634,4.2634,4.2634,4.2634,4.2634,4.2634,4.2634,4.2634,4.2571,4.2492,4.1868,4.1459,4.1327,4.069,4.0069,3.9305,3.862,3.8277,3.8202,3.8202,3.8202,3.8202,3.8202,3.8066,3.7929,3.7853,3.7625,3.7303,3.7303,3.7148,3.6978,3.6978,3.6978,3.6978,3.6978,3.6978,3.6978,3.6978,3.6978,3.6978,3.6978,3.6978,3.6978,3.6978,3.6978,3.6652,3.4979,3.4472,3.4056,3.2413,3.2001,3.1913,3.1749,3.1661,3.1661,3.1661,3.1661,3.1661,3.1661,3.1661,3.1661,3.1661,3.1661,3.1661,3.1661,3.1661,3.1661,3.1661,3.1709,3.1937,3.2442,3.2587,3.3044,3.403,3.4114,3.4318,3.4799,3.4871,3.4895,3.4895,3.5412,3.5713,3.5761,3.623,3.6459,3.6411,3.5338,3.417,3.2994,3.193,3.075,2.9551,2.9189,2.8984,2.8896,2.8594,2.8643,2.8887,2.8535,2.8906,2.9629,2.9629,2.9893,3.0322,4.2634,4.2634,4.2634,4.2634,4.2634,4.2634,4.2634,4.2634,4.2634,4.2634,4.2634,4.2634,4.2634,4.2634,4.2634,4.2634,4.2634,4.2634,4.2634,4.2634,4.2349,4.1722,4.1591,4.0977,3.9788,4.0209,4.0069,3.9305,3.9175,3.8752,3.8202,3.8202,3.8202,3.8202,3.8066,3.7929,3.7853,3.7701,3.7534,3.7303,3.7303,3.7148,3.6978,3.6978,3.6978,3.6978,3.6978,3.6978,3.6978,3.6978,3.6978,3.6978,3.6978,3.6978,3.6978,3.6978,3.6978,3.69,3.648,3.591,3.5332,3.491,3.4319,3.3395,3.1989,3.1661,3.1661,3.1661,3.1661,3.1661,3.1661,3.1661,3.1661,3.1661,3.1661,3.1661,3.1661,3.1661,3.1661,3.1661,3.2058,3.237,3.2491,3.3236,3.397,3.4607,3.4655,3.4715,3.4823,3.522,3.5449,3.5449,3.5954,3.6435,3.6843,3.6964,3.6819,3.6411,3.5338,3.417,3.2994,3.193,3.075,2.958,2.9814,2.9541,2.8965,2.9541,2.9443,2.8945,2.9199,2.9609,3.0059,3.0059,3.0351,3.0752,4.2634,4.2909,4.3136,4.3136,4.3136,4.3136,4.3136,4.286,4.2634,4.2634,4.2634,4.2634,4.2634,4.2634,4.2634,4.2634,4.2634,4.2634,4.2634,4.2634,4.2429,4.2013,4.1311,4.0622,3.9859,3.952,3.9175,3.8752,3.8752,3.8546,3.8202,3.8202,3.8202,3.8202,3.8066,3.8066,3.8066,3.7915,3.7763,3.7625,3.7457,3.7303,3.7148,3.7056,3.6978,3.6978,3.6978,3.6978,3.6978,3.6978,3.6978,3.6978,3.6978,3.6978,3.6978,3.6978,3.6978,3.69,3.6494,3.6084,3.5575,3.5156,3.4637,3.4056,3.3152,3.2661,3.2326,3.2326,3.2001,3.1661,3.1661,3.1889,3.1973,3.1709,3.2094,3.2262,3.1733,3.2118,3.2238,3.1721,3.2382,3.2971,3.3212,3.3945,3.4631,3.516,3.4968,3.5052,3.5557,3.5605,3.5737,3.599,3.6507,3.6916,3.7192,3.7445,3.7433,3.7156,3.6611,3.5416,3.3683,3.3147,3.1839,3.0205,3.0195,2.9941,2.9551,2.9795,2.9756,2.9531,2.956,2.9961,3.0508,3.0273,3.0488,3.0889,4.2812,4.3298,4.3751,4.3881,4.3783,4.3751,4.3881,4.3281,4.2812,4.2812,4.2715,4.2634,4.2634,4.2634,4.2634,4.2634,4.2634,4.2634,4.2634,4.2634,4.2492,4.2222,4.1044,4.0278,3.9999,3.8826,3.8202,3.8202,3.8202,3.8202,3.8202,3.8202,3.8202,3.8202,3.8202,3.8202,3.8202,3.8202,3.8066,3.7853,3.7701,3.7534,3.7303,3.7148,3.707,3.707,3.6978,3.6978,3.6978,3.6978,3.6978,3.6978,3.6978,3.6978,3.6978,3.6978,3.6978,3.6822,3.6163,3.591,3.5749,3.4979,3.4719,3.4719,3.4719,3.3894,3.3045,3.2971,3.2299,3.1829,3.1925,3.225,3.2382,3.1997,3.2695,3.2971,3.207,3.2719,3.2959,3.2046,3.2815,3.3621,3.4126,3.4655,3.5148,3.5581,3.5292,3.5485,3.6362,3.6074,3.6086,3.6519,3.7048,3.7324,3.7324,3.7757,3.7986,3.7986,3.7986,3.6881,3.467,3.4447,3.3222,3.1208,3.0594,3.0273,3.0176,2.9912,2.9951,3.0166,2.9902,3.0244,3.084,3.0459,3.0566,3.0889,4.3573,4.3638,4.3913,4.4528,4.4123,4.3929,4.4544,4.4043,4.3573,4.3573,4.3022,4.2634,4.2634,4.2634,4.2634,4.2634,4.2634,4.2634,4.2634,4.2634,4.2013,4.0758,4.0485,3.9788,3.856,3.8263,3.8202,3.8202,3.8202,3.8202,3.8202,3.8202,3.8202,3.8202,3.8202,3.8202,3.8202,3.8202,3.8066,3.7929,3.7853,3.7777,3.7534,3.7303,3.7226,3.7226,3.707,3.6978,3.6978,3.6978,3.6978,3.6978,3.6978,3.6978,3.6978,3.6978,3.6978,3.6978,3.6822,3.6822,3.6808,3.6652,3.6638,3.6638,3.6638,3.5143,3.3482,3.2731,3.2473,3.2527,3.2984,3.2755,3.2623,3.3008,3.32,3.3236,3.3092,3.32,3.3236,3.3092,3.3585,3.415,3.4667,3.5196,3.5533,3.5605,3.5966,3.6254,3.6398,3.6771,3.7012,3.7084,3.7601,3.7878,3.7878,3.7938,3.7986,3.7986,3.7986,3.7322,3.5904,3.4891,3.3674,3.2342,3.1275,3.0566,3.0225,3.0566,3.0508,3.0234,3.0576,3.0791,3.0889,3.082,3.084,3.0889,4.4237,4.4625,4.4982,4.5305,4.5095,4.4982,4.5305,4.4415,4.3719,4.3719,4.3087,4.2634,4.2634,4.2634,4.2796,4.3201,4.286,4.2634,4.2634,4.2634,4.2285,4.1656,4.0826,4.0069,3.9448,3.862,3.8202,3.8202,3.8202,3.8202,3.8202,3.8202,3.8202,3.8202,3.8202,3.8202,3.8202,3.8202,3.8127,3.8066,3.7929,3.7853,3.7777,3.7534,3.738,3.7303,3.707,3.6978,3.6978,3.6978,3.6978,3.6978,3.6978,3.6978,3.6978,3.6978,3.6978,3.6978,3.6978,3.6978,3.6978,3.6978,3.7245,3.7419,3.6913,3.612,3.5377,3.4908,3.4689,3.4463,3.4173,3.4102,3.3968,3.3389,3.3777,3.3945,3.3368,3.3777,3.4258,3.4559,3.4523,3.4691,3.5208,3.5749,3.6062,3.6062,3.6278,3.6663,3.7252,3.7228,3.7324,3.7625,3.7866,3.7986,3.7986,3.7986,3.7986,3.7986,3.7986,3.7334,3.6122,3.5002,3.3786,3.2685,3.145,3.0771,3.0605,3.0801,3.0771,3.0605,3.081,3.0889,3.0889,3.0889,3.0889,3.0889]}]]